Date StartTime U_cm/s V_cm/s W_cm/s Ustd_cm/s Vstd_cm/s Wstd_cm/s Uvar_(cm/s)^2 Vvar_(cm/s)^2 Wvar_(cm/s)^2 KE_(m/s)^2 TurbulentKE_(m/s)^2 HorizWindSpeed_cm/s FrictionSpeec_cm/s DragCoef SpeedOfSound_m/s SonicTemperature_C Pressure_mb 
01/12/2015  00:00:00     -141.782      -23.112       -6.041      126.396       96.072       53.077    15975.838     9229.746     2817.120        2.434        1.401      143.654       39.682        0.076      337.897       10.179      863.387
01/12/2015  00:01:00     -214.347     -126.466      -13.521      142.094      106.439       52.701    20190.651    11329.274     2777.400        4.820        1.715      248.874       57.167        0.053      337.915       10.209      863.386
01/12/2015  00:02:00     -136.210      -64.693        2.845       89.062       63.342       35.442     7932.087     4012.171     1256.161        1.797        0.660      150.792       38.816        0.066      337.917       10.214      863.386
01/12/2015  00:03:00     -151.196     -106.638       -4.281       60.440       63.435       28.823     3653.038     4024.041      830.759        2.138        0.425      185.018       17.271        0.009      337.913       10.206      863.390
01/12/2015  00:04:00     -157.288      -95.496       -4.300       70.144       48.962       32.103     4920.223     2397.230     1030.603        2.111        0.417      184.008       28.687        0.024      337.897       10.181      863.392
01/12/2015  00:05:00     -116.923      -74.475        4.120       73.670       65.356       36.461     5427.303     4271.439     1329.392        1.513        0.551      138.627       37.734        0.074      337.875       10.143      863.398
01/12/2015  00:06:00     -240.196     -136.441       -4.669       94.805       87.579       44.777     8987.964     7670.093     2005.011        4.749        0.933      276.244       41.872        0.023      337.868       10.130      863.395
01/12/2015  00:07:00     -158.237      -54.055       -2.851       47.737       50.186       29.948     2278.833     2518.610      896.856        1.683        0.285      167.215       30.134        0.032      337.831       10.070      863.409
01/12/2015  00:08:00      -62.027      -38.458        7.077       48.212       55.852       26.450     2324.405     3119.401      699.624        0.576        0.307       72.982       26.751        0.134      337.840       10.084      863.423
01/12/2015  00:09:00      -90.742      -40.875        3.368       35.862       45.172       28.504     1286.111     2040.525      812.476        0.703        0.207       99.523       19.721        0.039      337.828       10.066      863.424
01/12/2015  00:10:00      -58.851      -37.994       10.709       53.206       46.697       28.845     2830.893     2180.565      832.062        0.543        0.292       70.050       28.320        0.163      337.858       10.115      863.414
01/12/2015  00:11:00      -69.829      -26.691        2.499       54.330       30.576       30.959     2951.757      934.906      958.435        0.522        0.242       74.756       28.584        0.146      337.840       10.086      863.421
01/12/2015  00:12:00     -134.005     -108.060      -14.195       46.665       52.457       25.815     2177.634     2751.695      666.420        1.771        0.280      172.146       27.140        0.025      337.878       10.148      863.424
01/12/2015  00:13:00     -163.482      -43.395       -9.883       88.625       87.982       43.378     7854.358     7740.752     1881.649        2.309        0.874      169.144       43.425        0.066      337.862       10.121      863.423
01/12/2015  00:14:00     -196.668      -77.714       -6.260       88.507       91.667       47.641     7833.526     8402.825     2269.684        3.163        0.925      211.466       46.428        0.048      337.894       10.173      863.439
01/12/2015  00:15:00     -171.928      -57.015       -2.207      112.803       88.750       52.268    12724.516     7876.650     2731.896        2.807        1.167      181.135       62.437        0.119      337.871       10.135      863.452
01/12/2015  00:16:00     -124.120      -28.903       -5.149       71.784       51.232       36.236     5152.883     2624.745     1313.025        1.268        0.455      127.441       42.025        0.109      337.836       10.077      863.468
01/12/2015  00:17:00      -45.425       21.300       10.459       43.994       35.119       24.688     1935.458     1233.350      609.477        0.320        0.189       50.171       18.975        0.143      337.820       10.052      863.473
01/12/2015  00:18:00      -32.332       18.675       17.331       39.418       36.543       23.729     1553.813     1335.389      563.078        0.257        0.173       37.338       22.688        0.369      337.828       10.066      863.478
01/12/2015  00:19:00     -105.406       22.148      -16.410       31.098       34.796       15.517      967.079     1210.775      240.792        0.714        0.121      107.708       10.941        0.010      337.822       10.054      863.490
01/12/2015  00:20:00     -107.954      -13.834      -11.834       37.825       37.218       18.042     1430.746     1385.211      325.527        0.756        0.157      108.837       18.524        0.029      337.816       10.044      863.483
01/12/2015  00:21:00     -106.725       15.809       -7.183       45.637       39.575       35.882     2082.774     1566.163     1287.484        0.831        0.247      107.889       21.613        0.040      337.810       10.035      863.474
01/12/2015  00:22:00      -87.136      -29.599       -6.830       34.774       43.694       26.574     1209.243     1909.174      706.182        0.617        0.191       92.026       23.360        0.064      337.764        9.959      863.470
01/12/2015  00:23:00      -98.464       14.799      -14.120       33.946       37.764       25.127     1152.298     1426.118      631.368        0.666        0.160       99.570       21.467        0.046      337.767        9.964      863.488
01/12/2015  00:24:00      -53.970       40.022        2.976       56.310       53.567       32.269     3170.795     2869.384     1041.273        0.580        0.354       67.191       29.854        0.197      337.817       10.047      863.492
01/12/2015  00:25:00      -63.658       70.054       -9.038       28.533       34.135       20.318      814.132     1165.220      412.833        0.572        0.120       94.657       15.536        0.027      337.782        9.988      863.509
01/12/2015  00:26:00      -91.935      -24.678        5.992       62.787       53.936       32.823     3942.225     2909.089     1077.365        0.851        0.396       95.190       37.327        0.154      337.734        9.909      863.519
01/12/2015  00:27:00     -177.064      -37.293       -7.957       67.195       48.253       26.793     4515.227     2328.353      717.863        2.018        0.378      180.949       28.122        0.024      337.783        9.988      863.535
01/12/2015  00:28:00     -167.532       84.435      -29.089       47.883       75.144       33.334     2292.779     5646.562     1111.158        2.254        0.453      187.607       26.881        0.021      337.791       10.002      863.524
01/12/2015  00:29:00      -87.959       13.790      -13.559       48.299       34.584       24.008     2332.769     1196.041      576.378        0.611        0.205       89.034       17.116        0.037      337.720        9.886      863.527
01/12/2015  00:30:00      -62.609       -5.281       -3.849       37.627       36.830       22.538     1415.766     1356.480      507.969        0.362        0.164       62.832       20.706        0.109      337.666        9.795      863.527
01/12/2015  00:31:00     -110.255      -33.341       -8.009       42.568       27.002       18.758     1812.053      729.097      351.861        0.811        0.145      115.186       19.401        0.028      337.715        9.877      863.513
01/12/2015  00:32:00      -71.492       -7.974       -5.695       38.958       28.736       21.423     1517.750      825.753      458.960        0.400        0.140       71.936        9.637        0.018      337.656        9.778      863.499
01/12/2015  00:33:00     -132.041       -9.454       -6.962       53.974       33.850       29.028     2913.200     1145.790      842.635        1.124        0.245      132.379       27.626        0.044      337.706        9.860      863.486
01/12/2015  00:34:00     -116.882      -47.827       -3.923       57.714       50.902       26.753     3330.928     2591.047      715.711        1.130        0.332      126.288       18.988        0.023      337.730        9.901      863.478
01/12/2015  00:35:00     -110.746      -41.984        7.110       71.127       47.956       32.710     5059.012     2299.799     1069.954        1.125        0.421      118.437       34.207        0.083      337.749        9.933      863.465
01/12/2015  00:36:00     -180.140      -87.822      -11.354       84.325       69.585       49.562     7110.700     4842.038     2456.359        2.735        0.720      200.407       42.485        0.045      337.785        9.990      863.455
01/12/2015  00:37:00     -115.819      -40.604      -14.531       75.619       59.496       28.936     5718.308     3539.793      837.289        1.268        0.505      122.731       35.023        0.081      337.775        9.975      863.447
01/12/2015  00:38:00     -127.106      -29.143       -8.429       61.489       55.362       25.585     3780.913     3064.945      654.594        1.229        0.375      130.404       24.308        0.035      337.748        9.932      863.450
01/12/2015  00:39:00     -248.328      -11.469      -16.954       89.454       60.403       43.569     8001.981     3648.486     1898.295        3.781        0.677      248.593       47.698        0.037      337.759        9.947      863.458
01/12/2015  00:40:00     -159.947      -53.159      -11.718       57.462       60.137       30.576     3301.873     3616.504      934.904        1.820        0.393      168.549       25.421        0.023      337.764        9.956      863.458
01/12/2015  00:41:00     -240.612      -16.695      -25.219      102.373       85.649       36.173    10480.298     7335.759     1308.511        3.896        0.956      241.191       36.208        0.023      337.774        9.973      863.466
01/12/2015  00:42:00     -200.236      -24.798      -21.250       65.504       70.578       37.902     4290.726     4981.321     1436.597        2.593        0.535      201.766       23.798        0.014      337.750        9.934      863.470
01/12/2015  00:43:00     -199.536      -48.005       -1.948       98.002       81.501       58.955     9604.447     6642.371     3475.746        3.092        0.986      205.229       45.772        0.050      337.749        9.932      863.475
01/12/2015  00:44:00     -201.004      -50.721      -12.627       59.173       75.062       33.780     3501.453     5634.268     1141.119        2.670        0.514      207.305       27.224        0.017      337.764        9.955      863.474
01/12/2015  00:45:00     -225.687      -32.874      -14.926       78.738       67.826       39.849     6199.674     4600.392     1587.916        3.231        0.619      228.069       43.829        0.037      337.755        9.939      863.482
01/12/2015  00:46:00     -194.338      -17.147       -9.173       90.807      109.725       45.316     8245.952    12039.600     2053.528        3.024        1.117      195.093       37.769        0.037      337.790       10.001      863.479
01/12/2015  00:47:00     -212.631      -77.705      -21.615       47.336       50.724       37.125     2240.659     2572.920     1378.271        2.895        0.310      226.384       22.206        0.010      337.760        9.949      863.485
01/12/2015  00:48:00     -214.574      -14.199      -20.260       73.924       55.742       42.563     5464.711     3107.190     1811.591        2.852        0.519      215.044       42.181        0.038      337.758        9.945      863.493
01/12/2015  00:49:00     -233.204        2.637      -25.093       64.873       51.316       25.483     4208.503     2633.303      649.400        3.125        0.375      233.218       25.429        0.012      337.736        9.907      863.504
01/12/2015  00:50:00     -228.157       -7.594      -24.645       42.023       29.131       24.041     1765.974      848.590      577.989        2.796        0.160      228.283       21.018        0.008      337.693        9.836      863.514
01/12/2015  00:51:00     -186.973      -10.430      -12.539       50.749       44.483       33.724     2575.468     1978.745     1137.278        2.046        0.285      187.263       29.456        0.025      337.665        9.792      863.509
01/12/2015  00:52:00     -178.829      -39.028      -16.049       66.375       54.553       38.592     4405.694     2975.987     1489.364        2.131        0.444      183.038       34.514        0.036      337.673        9.806      863.500
01/12/2015  00:53:00     -148.508      -31.748      -22.679       56.960       32.790       26.365     3244.461     1075.211      695.107        1.429        0.251      151.864       24.726        0.027      337.607        9.697      863.510
01/12/2015  00:54:00     -126.081       -0.824      -11.160       51.308       54.747       36.111     2632.497     2997.283     1304.027        1.148        0.347      126.083       23.596        0.035      337.615        9.710      863.523
01/12/2015  00:55:00     -148.990      -71.852       -8.429       53.607       42.747       32.888     2873.716     1827.264     1081.609        1.661        0.289      165.411       33.791        0.042      337.573        9.637      863.547
01/12/2015  00:56:00     -180.252      -65.026      -10.891       62.038       59.407       36.007     3848.679     3529.152     1296.482        2.275        0.434      191.623       29.641        0.024      337.564        9.620      863.561
01/12/2015  00:57:00     -206.717      -64.851      -18.697       59.718       60.010       34.807     3566.225     3601.199     1211.552        2.783        0.419      216.650       25.634        0.014      337.587        9.656      863.562
01/12/2015  00:58:00     -162.200      -31.658      -28.280       47.686       36.582       26.317     2273.998     1338.258      692.592        1.621        0.215      165.260       14.636        0.008      337.540        9.582      863.573
01/12/2015  00:59:00     -140.973      -27.782      -13.788       60.845       54.081       31.430     3702.134     2924.727      987.854        1.422        0.381      143.684       20.077        0.020      337.550        9.598      863.579
01/12/2015  01:00:00     -154.868      -11.040      -22.949       43.825       58.867       22.313     1920.599     3465.303      497.869        1.526        0.294      155.261       10.884        0.005      337.561        9.616      863.592
01/12/2015  01:01:00      -86.885        3.528      -13.927       40.410       41.797       20.598     1633.004     1746.998      424.259        0.578        0.190       86.956       14.178        0.027      337.545        9.590      863.612
01/12/2015  01:02:00     -117.539       27.913      -14.400       38.616       52.950       23.994     1491.221     2803.753      575.711        0.984        0.244      120.808       17.741        0.022      337.530        9.565      863.635
01/12/2015  01:03:00     -118.421      -42.669      -13.006       28.401       35.331       17.907      806.618     1248.246      320.654        0.919        0.119      125.874        8.894        0.005      337.540        9.581      863.660
01/12/2015  01:04:00      -98.644      -35.846       -8.433       54.399       41.341       39.045     2959.246     1709.102     1524.492        0.864        0.310      104.955       34.213        0.106      337.550        9.599      863.679
01/12/2015  01:05:00     -125.960      -15.041      -10.623       38.406       41.779       25.449     1475.011     1745.453      647.654        1.004        0.193      126.855       16.676        0.017      337.502        9.519      863.699
01/12/2015  01:06:00     -121.791      -23.589      -20.902       41.639       27.403       20.712     1733.838      750.929      428.991        0.937        0.146      124.055       18.571        0.022      337.537        9.576      863.721
01/12/2015  01:07:00     -108.146        6.050      -16.936       49.400       36.158       22.942     2440.386     1307.387      526.338        0.815        0.214      108.315       28.492        0.069      337.544        9.589      863.742
01/12/2015  01:08:00     -102.837       36.689      -12.986       42.316       27.961       19.070     1790.632      781.795      363.669        0.751        0.147      109.185       15.383        0.020      337.518        9.546      863.759
01/12/2015  01:09:00      -70.382        4.544      -12.807       29.106       20.132       15.083      847.149      405.293      227.506        0.331        0.074       70.529        7.674        0.012      337.465        9.458      863.785
01/12/2015  01:10:00      -61.357       35.247      -13.273       33.988       32.674       25.072     1155.176     1067.578      628.625        0.402        0.143       70.760       21.094        0.089      337.620        9.717      863.797
01/12/2015  01:11:00      -78.575       41.608      -18.381       14.861       20.355       13.208      220.852      414.333      174.458        0.453        0.040       88.912        5.106        0.003      337.556        9.612      863.810
01/12/2015  01:12:00      -65.830       58.163      -13.857       19.287       32.802       17.023      372.003     1076.000      289.773        0.482        0.087       87.844       14.784        0.028      337.590        9.665      863.819
01/12/2015  01:13:00       -1.528      155.915      -25.643       23.441       40.530       11.298      549.500     1642.700      127.636        1.364        0.116      155.923       12.268        0.006      337.494        9.505      863.819
01/12/2015  01:14:00      -11.475      190.071      -26.305       25.273       32.096       13.658      638.739     1030.167      186.533        1.940        0.093      190.417        9.277        0.002      337.394        9.339      863.814
01/12/2015  01:15:00      -10.317      185.954      -26.444       22.996       40.687       14.929      528.819     1655.447      222.861        1.890        0.120      186.240       12.425        0.004      337.369        9.295      863.812
01/12/2015  01:16:00      -15.678      206.187      -25.336       31.206       39.442       16.828      973.832     1555.688      283.189        2.311        0.141      206.782       10.921        0.003      337.307        9.191      863.809
01/12/2015  01:17:00      -13.551      236.579      -34.441       21.814       30.393       15.179      475.851      923.710      230.412        2.948        0.081      236.967        3.267        0.000      337.254        9.101      863.809
01/12/2015  01:18:00      -38.067      241.150      -30.165       42.811       46.361       26.856     1832.796     2149.365      721.253        3.261        0.235      244.136       21.619        0.008      337.254        9.098      863.813
01/12/2015  01:19:00      -47.382      256.688      -29.991       34.497       47.232       24.343     1190.072     2230.842      592.564        3.652        0.201      261.025       20.836        0.006      337.213        9.030      863.817
01/12/2015  01:20:00      -54.347      240.705      -30.405       30.920       40.377       22.158      956.031     1630.326      490.960        3.245        0.154      246.764       16.697        0.005      337.202        9.013      863.832
01/12/2015  01:21:00      -43.661      182.934      -19.470       35.332       61.844       26.242     1248.324     3824.692      688.666        2.075        0.288      188.072       32.290        0.029      337.218        9.043      863.832
01/12/2015  01:22:00      -54.241      193.506      -25.160       46.138       50.630       33.356     2128.724     2563.407     1112.609        2.341        0.290      200.965       28.037        0.019      337.176        8.972      863.836
01/12/2015  01:23:00      -58.383      154.663      -20.878       28.068       41.153       20.562      787.801     1693.575      422.794        1.533        0.145      165.316       18.425        0.012      337.213        9.036      863.840
01/12/2015  01:24:00      -56.736      127.277      -10.696       33.779       42.765       23.927     1141.002     1828.866      572.524        1.154        0.177      139.350       24.270        0.030      337.188        8.994      863.842
01/12/2015  01:25:00      -48.876      128.781      -13.558       29.923       42.448       20.805      895.365     1801.850      432.833        1.114        0.157      137.744       21.844        0.025      337.189        8.996      863.836
01/12/2015  01:26:00      -89.062      102.545      -30.469       18.732       34.943       18.781      350.887     1220.982      352.743        1.065        0.096      135.822        3.631        0.001      337.187        8.994      863.833
01/12/2015  01:27:00      -60.182       76.538      -10.405       25.806       47.599       19.978      665.931     2265.697      399.136        0.646        0.167       97.365       20.832        0.046      337.203        9.019      863.830
01/12/2015  01:28:00      -47.671      109.899      -10.764       27.930       51.445       17.762      780.059     2646.638      315.502        0.910        0.187      119.793       14.998        0.016      337.171        8.965      863.819
01/12/2015  01:29:00      -58.918      132.084      -12.698       35.036       44.561       23.808     1227.514     1985.697      566.803        1.243        0.189      144.629       23.694        0.027      337.120        8.880      863.815
01/12/2015  01:30:00      -64.041      125.085      -16.346       43.976       29.247       19.660     1933.897      855.366      386.526        1.159        0.159      140.526        9.878        0.005      337.167        8.958      863.808
01/12/2015  01:31:00      -42.605      192.450      -29.196       42.454       62.098       22.272     1802.368     3856.119      496.063        2.293        0.308      197.109       22.083        0.013      337.027        8.722      863.805
01/12/2015  01:32:00      -40.147      199.001      -26.293       40.260       53.756       25.043     1620.828     2889.741      627.162        2.352        0.257      203.011       27.208        0.018      337.000        8.676      863.803
01/12/2015  01:33:00      -48.978      194.966      -18.493       29.395       40.505       23.174      864.068     1640.622      537.026        2.190        0.152      201.024       20.864        0.011      336.996        8.671      863.801
01/12/2015  01:34:00      -29.947      175.003      -20.209       34.099       43.960       21.697     1162.731     1932.453      470.764        1.775        0.178      177.547       23.883        0.018      336.986        8.653      863.797
01/12/2015  01:35:00      -33.489      155.214      -16.853       30.872       51.281       20.532      953.062     2629.775      421.572        1.475        0.200      158.785       23.311        0.022      336.987        8.655      863.803
01/12/2015  01:36:00      -26.569      101.912      -13.344       29.565       34.479       15.921      874.075     1188.793      253.473        0.679        0.116      105.318       15.533        0.022      336.992        8.665      863.816
01/12/2015  01:37:00      -19.743       75.471       -9.193       21.141       32.441       12.052      446.945     1052.389      145.258        0.391        0.082       78.011       14.645        0.035      336.982        8.649      863.834
01/12/2015  01:38:00      -23.448      147.853      -20.164       22.356       20.135       14.314      499.772      405.401      204.889        1.196        0.056      149.701        8.418        0.003      336.922        8.548      863.854
01/12/2015  01:39:00       -9.934      145.742      -16.783       17.646       23.943       16.380      311.365      573.254      268.297        1.139        0.058      146.080       10.607        0.005      336.970        8.628      863.860
01/12/2015  01:40:00       -8.799      152.873      -23.448       10.645       13.875        7.210      113.315      192.526       51.984        1.218        0.018      153.126        4.338        0.001      336.954        8.602      863.867
01/12/2015  01:41:00       -5.661      138.828      -19.559       18.604       21.253        9.837      346.091      451.686       96.758        1.029        0.045      138.944        8.948        0.004      336.920        8.545      863.875
01/12/2015  01:42:00       18.712      101.192      -16.377       18.863       45.511       18.507      355.811     2071.228      342.527        0.681        0.138      102.907       23.768        0.053      336.907        8.523      863.875
01/12/2015  01:43:00       17.828       81.032       -4.156       25.459       39.601       26.488      648.149     1568.270      701.622        0.491        0.146       82.970       27.233        0.108      336.889        8.493      863.881
01/12/2015  01:44:00       34.243       78.827      -15.246       28.770       43.068       21.939      827.708     1854.847      481.309        0.539        0.158       85.944       24.919        0.084      336.891        8.497      863.892
01/12/2015  01:45:00       34.885       72.824      -13.697       27.323       40.348       17.040      746.537     1627.942      290.374        0.469        0.133       80.748       18.157        0.051      336.880        8.477      863.902
01/12/2015  01:46:00       48.673       33.161        1.359       26.338       34.154       23.756      693.665     1166.479      564.347        0.295        0.121       58.896       20.297        0.119      336.865        8.453      863.904
01/12/2015  01:47:00       42.096       36.355        1.186       25.456       19.575       19.305      647.994      383.164      372.688        0.225        0.070       55.621       10.635        0.037      336.852        8.432      863.916
01/12/2015  01:48:00       70.029       30.099        0.785       25.601       22.948       16.961      655.406      526.610      287.672        0.364        0.073       76.223       10.747        0.020      336.804        8.354      863.936
01/12/2015  01:49:00       70.305       42.469        1.430       13.494       15.631       12.852      182.084      244.318      165.162        0.367        0.030       82.136        3.050        0.001      336.737        8.241      863.945
01/12/2015  01:50:00       55.703       40.376       10.895       13.434       17.321       15.229      180.471      300.018      231.925        0.278        0.036       68.797        9.639        0.020      336.742        8.248      863.952
01/12/2015  01:51:00       58.130       29.489        8.677       21.190       18.501       18.116      449.008      342.286      328.185        0.272        0.056       65.182       10.986        0.028      336.749        8.260      863.956
01/12/2015  01:52:00       41.673       36.172       19.180       20.558       18.977       18.617      422.646      360.117      346.578        0.227        0.056       55.182        8.891        0.026      336.764        8.285      863.969
01/12/2015  01:53:00       40.957       41.631       24.598       29.004       18.869       16.462      841.203      356.051      271.006        0.274        0.073       58.400       12.478        0.046      336.756        8.273      863.980
01/12/2015  01:54:00       61.705       47.863       19.184       18.149       13.264       15.987      329.374      175.927      255.594        0.361        0.038       78.092        9.369        0.014      336.745        8.253      863.997
01/12/2015  01:55:00       87.634       41.375       14.879       19.490       19.046       14.933      379.867      362.761      222.985        0.529        0.048       96.911        5.740        0.004      336.808        8.360      864.007
01/12/2015  01:56:00       97.067       50.413        8.784       18.384       16.008       12.815      337.984      256.259      164.231        0.640        0.038      109.378        8.437        0.006      336.775        8.305      864.006
01/12/2015  01:57:00       86.171       34.946       -0.635       30.264       18.629       12.811      915.894      347.036      164.112        0.504        0.071       92.988        8.388        0.008      336.732        8.234      864.004
01/12/2015  01:58:00       54.190       34.437        4.622       24.327       24.278       19.381      591.789      589.417      375.640        0.285        0.078       64.206       13.347        0.043      336.692        8.166      864.013
01/12/2015  01:59:00       51.731       32.379        7.519       27.517       25.414       20.190      757.196      645.850      407.622        0.280        0.091       61.028       11.536        0.036      336.694        8.169      864.025
01/12/2015  02:00:00       32.795       45.095        4.788       41.733       23.488       19.442     1741.671      551.686      377.972        0.290        0.134       55.759        9.541        0.029      336.694        8.168      864.041
01/12/2015  02:01:00       48.862       47.744        4.797       40.969       31.289       25.695     1678.500      978.993      660.220        0.400        0.166       68.315       22.837        0.112      336.723        8.218      864.048
01/12/2015  02:02:00       53.006       40.725        3.718       34.355       28.051       23.943     1180.236      786.839      573.254        0.351        0.127       66.844       11.934        0.032      336.676        8.138      864.047
01/12/2015  02:03:00       88.505       67.563        9.786       58.147       44.787       37.264     3381.057     2005.870     1388.611        0.963        0.339      111.346       28.381        0.065      336.742        8.249      864.053
01/12/2015  02:04:00       45.280       55.755        3.850       46.847       51.409       29.693     2194.623     2642.835      881.659        0.545        0.286       71.826       26.840        0.140      336.702        8.183      864.074
01/12/2015  02:05:00       45.671       56.305        2.843       50.717       49.753       32.770     2572.196     2475.398     1073.844        0.569        0.306       72.499       26.715        0.136      336.728        8.225      864.092
01/12/2015  02:06:00       77.098       57.567        3.376       43.603       25.712       25.577     1901.242      661.082      654.161        0.624        0.161       96.219       19.302        0.040      336.635        8.070      864.109
01/12/2015  02:07:00       73.379       41.468       15.984       27.806       27.943       21.962      773.180      780.825      482.316        0.470        0.102       84.286        5.190        0.004      336.658        8.108      864.126
01/12/2015  02:08:00       67.979       69.030        6.292       38.402       29.297       27.266     1474.708      858.288      743.437        0.625        0.154       96.883       18.649        0.037      336.622        8.048      864.139
01/12/2015  02:09:00      114.611       86.428       18.831       38.254       24.587       32.942     1463.337      604.501     1085.191        1.206        0.158      143.546       17.620        0.015      336.663        8.117      864.133
01/12/2015  02:10:00       58.828       65.515        3.719       28.009       44.346       24.865      784.531     1966.606      618.273        0.557        0.168       88.051       15.717        0.032      336.620        8.045      864.136
01/12/2015  02:11:00       65.324       69.808       -1.232       43.814       39.712       31.263     1919.662     1577.073      977.370        0.681        0.224       95.605       19.746        0.043      336.636        8.072      864.146
01/12/2015  02:12:00       36.484      126.223      -16.093       22.479       48.162       27.903      505.288     2319.531      778.574        1.056        0.180      131.390       29.494        0.050      336.752        8.265      864.161
01/12/2015  02:13:00       60.069       83.189        6.781       48.682       71.707       41.617     2369.984     5141.842     1731.943        0.991        0.462      102.609       39.695        0.150      336.739        8.244      864.181
01/12/2015  02:14:00      125.173       80.748        4.457       43.968       35.889       31.711     1933.206     1288.029     1005.579        1.322        0.211      148.958       19.239        0.017      336.791        8.329      864.197
01/12/2015  02:15:00       19.263       56.467       -8.723       87.430       45.832       28.105     7643.963     2100.583      789.913        0.708        0.527       59.662       22.249        0.139      336.842        8.415      864.205
01/12/2015  02:16:00      -31.820      159.132      -21.004       41.622       56.588       22.290     1732.414     3202.165      496.824        1.610        0.272      162.282       28.944        0.032      336.968        8.624      864.224
01/12/2015  02:17:00      -77.208       99.511      -14.972       32.867       53.692       20.431     1080.238     2882.856      417.411        1.023        0.219      125.950       17.422        0.019      337.123        8.884      864.230
01/12/2015  02:18:00      -45.522        6.861       -1.629       54.221       35.427       19.884     2939.877     1255.059      395.387        0.336        0.230       46.037       20.131        0.191      337.213        9.035      864.226
01/12/2015  02:19:00      -41.654       32.968       -1.801       51.409       26.595       18.047     2642.923      707.275      325.702        0.325        0.184       53.122       16.073        0.092      337.140        8.914      864.240
01/12/2015  02:20:00        7.480      103.101      -18.996       24.410       51.472       16.200      595.828     2649.406      262.429        0.728        0.175      103.372       23.477        0.052      337.123        8.885      864.241
01/12/2015  02:21:00      -43.753       86.587      -19.044       28.433       32.140       14.760      808.447     1032.999      217.850        0.592        0.103       97.014        9.116        0.009      337.052        8.764      864.240
01/12/2015  02:22:00      -16.166      103.626       -8.634       20.722       46.361       19.778      429.403     2149.357      391.160        0.702        0.148      104.879       24.546        0.055      337.055        8.772      864.239
01/12/2015  02:23:00       -6.302       35.058       -8.244       13.508       27.126       12.530      182.470      735.802      156.999        0.121        0.054       35.620        4.381        0.015      337.065        8.786      864.234
01/12/2015  02:24:00      -22.538       11.640       -7.438       13.343       12.443        9.004      178.024      154.824       81.077        0.056        0.021       25.366        6.633        0.068      337.013        8.699      864.235
01/12/2015  02:25:00      -41.093        2.845       -2.675       28.142       12.616       10.558      791.975      159.173      111.470        0.138        0.053       41.191       11.458        0.077      337.024        8.718      864.232
01/12/2015  02:26:00      -78.250      -46.809       -2.475       30.386       22.399       18.637      923.332      501.728      347.341        0.505        0.089       91.183       17.699        0.038      336.984        8.651      864.229
01/12/2015  02:27:00      -93.421      -29.900       -6.513       36.219       25.082       21.353     1311.786      629.127      455.953        0.603        0.120       98.089       19.767        0.041      336.980        8.645      864.231
01/12/2015  02:28:00      -62.748      -12.944       -1.648       28.288       22.218       16.303      800.190      493.637      265.803        0.283        0.078       64.070       17.301        0.073      336.905        8.520      864.227
01/12/2015  02:29:00      -39.967       22.561       -0.798       52.125       66.743       27.811     2717.059     4454.666      773.467        0.502        0.397       45.895       32.113        0.490      336.945        8.586      864.215
01/12/2015  02:30:00      -50.863       69.246      -13.092       22.484       55.844       21.538      505.529     3118.585      463.868        0.582        0.204       85.919       18.971        0.049      336.970        8.627      864.204
01/12/2015  02:31:00      -22.902        0.428       -7.517       12.861       13.200       13.844      165.397      174.227      191.665        0.056        0.027       22.906       11.713        0.261      336.947        8.587      864.194
01/12/2015  02:32:00        8.692       26.312        7.140       27.315       23.023       11.214      746.098      530.038      125.761        0.111        0.070       27.710       10.104        0.133      336.891        8.497      864.192
01/12/2015  02:33:00       12.002       90.966       -5.279       55.796       71.162       42.735     3113.163     5064.042     1826.303        0.922        0.500       91.754       43.932        0.229      336.799        8.342      864.198
01/12/2015  02:34:00      -97.345      235.451      -32.212       57.545       73.569       41.092     3311.476     5412.332     1688.537        3.818        0.521      254.781       35.411        0.019      336.614        8.031      864.205
01/12/2015  02:35:00     -115.056      239.321      -39.054       76.327       91.357       46.479     5825.880     8346.074     2160.258        4.418        0.817      265.542       48.317        0.033      336.548        7.921      864.223
01/12/2015  02:36:00      -38.564      260.656      -24.038       74.289      116.905       43.568     5518.891    13666.821     1898.133        4.554        1.054      263.493       45.272        0.030      336.413        7.694      864.210
01/12/2015  02:37:00      -75.088      301.323      -36.504       51.472       71.261       35.126     2649.341     5078.095     1233.839        5.336        0.448      310.538       31.892        0.011      336.372        7.625      864.220
01/12/2015  02:38:00      -54.213      264.043      -36.442       45.318       54.732       29.069     2053.715     2995.592      844.992        3.994        0.295      269.552       26.482        0.010      336.361        7.605      864.229
01/12/2015  02:39:00      -68.932      295.381      -38.009       76.041      108.414       38.973     5782.164    11753.685     1518.875        5.625        0.953      303.317       34.628        0.013      336.354        7.594      864.233
01/12/2015  02:40:00      -68.103      254.176      -32.019       61.517       75.916       35.420     3784.299     5763.228     1254.596        4.053        0.540      263.141       23.234        0.008      336.345        7.580      864.258
01/12/2015  02:41:00      -55.313      202.016      -18.349       50.120       51.404       36.392     2512.034     2642.352     1324.371        2.534        0.324      209.451       30.965        0.022      336.328        7.554      864.266
01/12/2015  02:42:00      -19.512      235.155      -26.768       46.090       94.330       38.418     2124.268     8898.158     1475.908        3.444        0.625      235.963       39.737        0.028      336.344        7.580      864.275
01/12/2015  02:43:00      -32.409      273.909      -33.639       58.489       79.638       35.927     3420.972     6342.238     1290.764        4.413        0.553      275.819       35.859        0.017      336.330        7.556      864.272
01/12/2015  02:44:00      -44.855      253.782      -32.106       40.125       60.667       27.519     1610.007     3680.467      757.316        3.675        0.302      257.716       17.970        0.005      336.300        7.505      864.288
01/12/2015  02:45:00      -27.089      231.526      -27.566       40.026       54.642       31.464     1602.041     2985.758      989.990        3.034        0.279      233.105       20.288        0.008      336.300        7.505      864.282
01/12/2015  02:46:00      -18.564      264.168      -32.638       42.888       65.770       32.634     1839.349     4325.685     1064.972        3.921        0.362      264.819       28.647        0.012      336.245        7.413      864.267
01/12/2015  02:47:00      -65.299      285.723      -36.237       58.108       59.364       35.879     3376.575     3524.112     1287.276        4.770        0.409      293.090       30.602        0.011      336.262        7.442      864.264
01/12/2015  02:48:00      -31.160      254.644      -30.992       44.018       67.837       29.408     1937.576     4601.809      864.812        3.709        0.370      256.543       29.522        0.013      336.220        7.372      864.260
01/12/2015  02:49:00      -17.855      215.561      -27.819       41.235       42.855       28.822     1700.310     1836.527      830.686        2.596        0.218      216.299       17.513        0.007      336.243        7.412      864.257
01/12/2015  02:50:00      -37.136      222.781      -27.059       53.537       57.568       33.532     2866.247     3314.063     1124.400        2.952        0.365      225.855       29.887        0.018      336.243        7.410      864.269
01/12/2015  02:51:00      -24.618      285.225      -32.648       38.948       48.944       22.708     1516.921     2395.540      515.647        4.373        0.221      286.286       15.036        0.003      336.217        7.366      864.293
01/12/2015  02:52:00      -18.959      305.177      -37.507       33.481       45.377       22.228     1120.953     2059.090      494.100        4.929        0.184      305.766       15.635        0.003      336.267        7.449      864.312
01/12/2015  02:53:00       -8.559      216.840      -26.347       44.244       51.901       27.106     1957.506     2693.688      734.723        2.659        0.269      217.009       20.724        0.009      336.197        7.334      864.335
01/12/2015  02:54:00      -36.757      208.386      -13.652       42.240       79.211       31.736     1784.219     6274.320     1007.173        2.701        0.453      211.603       33.230        0.025      336.230        7.390      864.345
01/12/2015  02:55:00      -50.690      213.761      -20.044       60.032       59.860       30.253     3603.785     3583.236      915.219        2.838        0.405      219.689       24.759        0.013      336.221        7.374      864.338
01/12/2015  02:56:00      -68.970      248.184      -18.979       58.554       85.262       37.578     3428.586     7269.630     1412.121        3.941        0.606      257.589       39.902        0.024      336.247        7.416      864.332
01/12/2015  02:57:00      -52.624      184.873      -24.487       43.894       79.635       23.100     1926.640     6341.746      533.607        2.317        0.440      192.217       27.698        0.021      336.241        7.410      864.321
01/12/2015  02:58:00      -45.344      158.589      -22.834       39.792       59.853       22.276     1583.385     3582.348      496.198        1.669        0.283      164.944       24.836        0.023      336.272        7.461      864.292
01/12/2015  02:59:00      -58.111      120.157      -15.899       46.254       38.015       28.896     2139.429     1445.119      834.959        1.124        0.221      133.471       26.805        0.040      336.262        7.444      864.267
01/12/2015  03:00:00      -12.485       52.709       -5.034       21.940       20.007       17.464      481.356      400.299      304.999        0.207        0.059       54.168        9.523        0.031      336.216        7.369      864.250
01/12/2015  03:01:00       23.405      112.475      -15.750       30.278       32.752       22.822      916.727     1072.684      520.852        0.798        0.126      114.884       14.832        0.017      336.230        7.392      864.234
01/12/2015  03:02:00      -12.947      117.878      -12.945       26.176       49.056       20.366      685.172     2406.533      414.782        0.887        0.175      118.587       18.524        0.024      336.258        7.440      864.210
01/12/2015  03:03:00      -20.515       59.106       -8.695       24.768       30.202       17.234      613.473      912.163      297.025        0.291        0.091       62.565       19.343        0.096      336.255        7.435      864.199
01/12/2015  03:04:00      -33.668       42.924       -8.614       17.907       37.556        9.830      320.672     1410.489       96.628        0.244        0.091       54.553        4.709        0.007      336.328        7.556      864.204
01/12/2015  03:05:00      -23.356       21.960        7.466       38.024       26.308       24.154     1445.824      692.109      583.420        0.190        0.136       32.058       17.655        0.303      336.382        7.644      864.207
01/12/2015  03:06:00      -40.611        3.121        7.186       40.485       35.093       23.064     1639.002     1231.531      531.938        0.256        0.170       40.731       22.455        0.304      336.386        7.653      864.204
01/12/2015  03:07:00      -47.190       24.700        1.239       18.890       26.081       21.272      356.818      680.240      452.489        0.216        0.074       53.263       14.233        0.071      336.497        7.839      864.205
01/12/2015  03:08:00      -95.867       -1.304       -9.275       25.747       24.859       21.008      662.925      617.972      441.323        0.550        0.086       95.876       10.626        0.012      336.515        7.869      864.216
01/12/2015  03:09:00     -114.259      -11.334      -10.336       36.239       44.243       25.517     1313.249     1957.425      651.128        0.861        0.196      114.820       21.723        0.036      336.659        8.109      864.220
01/12/2015  03:10:00     -131.045      -23.031      -11.902       62.564       62.380       34.819     3914.259     3891.257     1212.389        1.343        0.451      133.053       32.834        0.061      336.600        8.010      864.213
01/12/2015  03:11:00     -173.575      -71.004      -14.369       63.725       60.059       36.095     4060.860     3607.076     1302.849        2.217        0.449      187.536       32.353        0.030      336.659        8.107      864.206
01/12/2015  03:12:00     -232.814      -64.824      -15.697       64.359       80.819       41.394     4142.074     6531.633     1713.497        3.552        0.619      241.670       37.352        0.024      336.869        8.455      864.201
01/12/2015  03:13:00     -133.701      -38.726        4.194       67.311       59.200       35.542     4530.798     3504.694     1263.204        1.434        0.465      139.196       33.775        0.059      336.769        8.292      864.204
01/12/2015  03:14:00     -159.006      -57.572       -3.081       74.077       71.305       38.502     5487.432     5084.416     1482.433        2.033        0.603      169.108       35.206        0.043      336.858        8.439      864.205
01/12/2015  03:15:00     -158.217      -85.484       -8.944       60.473       53.113       30.972     3657.003     2821.035      959.266        1.993        0.372      179.834       29.342        0.027      336.875        8.469      864.198
01/12/2015  03:16:00      -80.587      -37.539        2.006       68.211       55.511       33.737     4652.752     3081.452     1138.177        0.839        0.444       88.901       31.800        0.128      336.790        8.330      864.192
01/12/2015  03:17:00     -173.710      -17.729      -16.953      112.871       65.766       38.179    12739.892     4325.226     1457.619        2.465        0.926      174.612       45.181        0.067      336.864        8.450      864.184
01/12/2015  03:18:00     -207.120      -50.449      -12.575       68.785       68.375       37.962     4731.413     4675.180     1441.151        2.822        0.542      213.176       31.741        0.022      336.948        8.588      864.172
01/12/2015  03:19:00     -169.347      -35.214       10.054       90.269       64.510       45.870     8148.415     4161.483     2104.068        2.221        0.721      172.969       50.522        0.085      336.909        8.523      864.162
01/12/2015  03:20:00     -136.684      -32.587       -2.170       80.594       57.210       45.832     6495.448     3272.951     2100.549        1.581        0.593      140.514       43.247        0.095      336.923        8.549      864.143
01/12/2015  03:21:00     -179.193      -78.809       -4.260      120.150       79.619       49.366    14435.962     6339.110     2436.962        3.077        1.161      195.757       53.309        0.074      336.941        8.579      864.133
01/12/2015  03:22:00     -211.603     -139.925        9.411      137.675      117.963       59.556    18954.429    13915.216     3546.905        5.042        1.821      253.683       68.959        0.074      336.971        8.627      864.119
01/12/2015  03:23:00     -251.352     -113.677      -14.886       90.964       92.466       47.209     8274.508     8549.995     2228.680        4.768        0.953      275.863       47.369        0.029      337.009        8.689      864.124
01/12/2015  03:24:00      -81.008        2.612       14.907       89.784       69.082       47.938     8061.211     4772.326     2298.016        1.096        0.757       81.050       42.963        0.281      336.984        8.651      864.135
01/12/2015  03:25:00      -48.727      -22.503       12.763       77.811       68.304       43.974     6054.488     4665.405     1933.744        0.785        0.633       53.672       41.142        0.588      336.947        8.589      864.134
01/12/2015  03:26:00     -113.586      -23.974       -1.630       64.656       49.826       31.754     4180.394     2482.615     1008.288        1.057        0.384      116.088       23.932        0.042      336.964        8.618      864.143
01/12/2015  03:27:00      -48.625      -66.277       24.042       82.868       83.225       49.595     6867.083     6926.428     2459.679        1.179        0.813       82.201       54.077        0.433      337.026        8.721      864.141
01/12/2015  03:28:00     -192.382     -107.526       -9.926       93.260       81.421       50.930     8697.504     6629.333     2593.903        3.329        0.896      220.392       47.437        0.046      337.027        8.722      864.134
01/12/2015  03:29:00     -106.491      -95.752       -3.942       81.856       82.595       38.211     6700.355     6821.992     1460.050        1.775        0.749      143.208       34.339        0.057      337.037        8.740      864.141
01/12/2015  03:30:00      -85.160      -41.294       15.775      117.952       80.409       52.526    13912.737     6465.668     2758.992        1.617        1.157       94.644       54.597        0.333      337.001        8.679      864.144
01/12/2015  03:31:00      -61.705      -34.407       -2.600       68.142       79.999       43.031     4643.337     6399.811     1851.628        0.894        0.645       70.649       28.840        0.167      337.049        8.761      864.166
01/12/2015  03:32:00     -146.448      -26.811       -4.660       84.943       54.563       43.133     7215.377     2977.147     1860.480        1.712        0.603      148.882       45.084        0.092      337.036        8.738      864.175
01/12/2015  03:33:00     -168.592      -66.536       -1.705      101.614       82.597       51.349    10325.479     6822.224     2636.746        2.631        0.989      181.247       52.040        0.082      336.956        8.602      864.191
01/12/2015  03:34:00     -170.401      -59.960      -10.974       84.321       67.095       45.010     7110.058     4501.794     2025.871        2.319        0.682      180.642       43.426        0.058      336.936        8.571      864.195
01/12/2015  03:35:00     -179.192      -63.065        1.699       79.072       69.476       41.253     6252.446     4826.947     1701.792        2.443        0.639      189.966       30.620        0.026      336.906        8.518      864.209
01/12/2015  03:36:00     -138.277      -73.937        6.813      120.639      111.415       56.890    14553.789    12413.290     3236.514        2.741        1.510      156.803       61.973        0.156      336.881        8.476      864.211
01/12/2015  03:37:00     -197.433       -1.190       -9.127       88.975       77.122       49.687     7916.566     5947.875     2468.840        2.770        0.817      197.436       46.878        0.056      336.859        8.441      864.226
01/12/2015  03:38:00     -215.906      -37.693      -11.352       82.555       79.488       39.268     6815.265     6318.340     1541.966        3.142        0.734      219.172       41.298        0.036      336.852        8.428      864.233
01/12/2015  03:39:00     -170.158      -51.608       -1.939       88.903       62.799       41.447     7903.686     3943.717     1717.824        2.259        0.678      177.811       46.749        0.069      336.809        8.357      864.250
01/12/2015  03:40:00     -256.706      -55.658      -11.324      100.744      104.495       50.392    10149.347    10919.243     2539.327        4.636        1.180      262.670       49.830        0.036      336.836        8.401      864.259
01/12/2015  03:41:00     -280.082     -108.277      -19.885       97.474       74.185       52.951     9501.098     5503.472     2803.796        5.418        0.890      300.283       46.596        0.024      336.851        8.426      864.253
01/12/2015  03:42:00     -267.748      -49.302      -12.866       79.112       63.467       40.032     6258.780     4028.009     1602.554        4.308        0.594      272.249       39.589        0.021      336.838        8.404      864.250
01/12/2015  03:43:00     -213.365      -67.457      -14.473       72.749       59.179       42.779     5292.399     3502.142     1830.078        3.045        0.531      223.774       41.865        0.035      336.823        8.381      864.254
01/12/2015  03:44:00     -229.216      -49.299      -10.614      110.942       66.954       38.924    12308.123     4482.826     1515.114        3.669        0.915      234.458       44.575        0.036      336.790        8.324      864.258
01/12/2015  03:45:00     -118.879      -18.073        0.009       80.907       60.024       35.511     6546.023     3602.850     1261.030        1.293        0.570      120.245       35.707        0.088      336.768        8.291      864.262
01/12/2015  03:46:00     -255.518      -94.630      -24.013      142.305      119.711       57.371    20250.770    14330.626     3291.443        5.634        1.894      272.478       32.185        0.014      336.831        8.395      864.244
01/12/2015  03:47:00     -248.607      -43.669       -6.778      111.645       86.699       56.141    12464.605     7516.667     3151.834        4.344        1.157      252.413       60.845        0.058      336.834        8.398      864.248
01/12/2015  03:48:00     -283.003      -56.749      -23.887       81.458       94.849       48.858     6635.462     8996.389     2387.093        5.095        0.901      288.637       43.990        0.023      336.827        8.386      864.252
01/12/2015  03:49:00     -224.824      -18.930       -6.260      135.442       77.207       58.829    18344.572     5960.980     3460.803        3.935        1.388      225.620       71.881        0.102      336.786        8.321      864.264
01/12/2015  03:50:00     -242.589      -41.426      -15.163      130.091      103.748       49.874    16923.576    10763.726     2487.374        4.548        1.509      246.101       51.600        0.044      336.798        8.339      864.267
01/12/2015  03:51:00     -268.762      -62.074      -17.696      134.082       93.764       52.771    17977.984     8791.599     2784.817        5.297        1.478      275.838       65.347        0.056      336.822        8.378      864.269
01/12/2015  03:52:00     -249.607      -69.420      -13.466       86.152       72.026       41.694     7422.217     5187.687     1738.365        4.082        0.717      259.081       33.771        0.017      336.808        8.353      864.280
01/12/2015  03:53:00     -260.542      -38.558      -13.856      107.347       85.253       49.849    11523.413     7268.144     2484.890        4.541        1.064      263.380       58.932        0.050      336.778        8.306      864.294
01/12/2015  03:54:00     -316.419      -94.489      -19.877      116.831       87.867       60.341    13649.378     7720.573     3641.019        6.722        1.251      330.226       65.337        0.039      336.798        8.339      864.306
01/12/2015  03:55:00     -238.438      -64.806      -26.811       98.957       61.975       45.337     9792.413     3840.877     2055.411        3.873        0.784      247.088       35.180        0.020      336.770        8.293      864.321
01/12/2015  03:56:00     -258.736      -43.353       -2.562       99.251       93.620       51.201     9850.807     8764.618     2621.566        4.503        1.062      262.343       53.887        0.042      336.781        8.309      864.345
01/12/2015  03:57:00     -303.860      -88.180      -14.252       82.732       92.682       48.196     6844.547     8590.031     2322.860        5.903        0.888      316.396       43.830        0.019      336.810        8.358      864.362
01/12/2015  03:58:00     -325.366      -48.667      -27.248       96.673       83.694       52.453     9345.669     7004.757     2751.317        6.403        0.955      328.986       46.264        0.020      336.807        8.353      864.372
01/12/2015  03:59:00     -272.185      -26.953      -24.680       88.991       84.252       50.087     7919.392     7098.444     2508.755        4.647        0.876      273.516       53.207        0.038      336.765        8.283      864.373
01/12/2015  04:00:00     -253.080      -62.391      -12.975       91.241      102.197       47.151     8324.963    10444.293     2223.242        4.455        1.050      260.657       41.064        0.025      336.758        8.272      864.372
01/12/2015  04:01:00     -238.097      -43.774      -16.385       92.129       84.402       43.305     8487.683     7123.773     1875.298        3.818        0.874      242.087       37.490        0.024      336.745        8.249      864.386
01/12/2015  04:02:00     -271.299      -79.045      -10.932       98.987       86.836       53.318     9798.502     7540.445     2842.848        5.007        1.009      282.579       44.505        0.025      336.774        8.299      864.388
01/12/2015  04:03:00     -192.213      -55.690       -1.944      110.119       90.066       53.933    12126.212     8111.891     2908.798        3.159        1.157      200.118       50.929        0.065      336.727        8.222      864.393
01/12/2015  04:04:00     -189.597      -34.209       -5.042      106.399       88.049       55.429    11320.685     7752.585     3072.336        2.964        1.107      192.659       44.815        0.054      336.744        8.250      864.398
01/12/2015  04:05:00     -179.864      -69.674      -10.617       74.791       92.663       48.694     5593.766     8586.449     2371.057        2.693        0.828      192.888       36.355        0.036      336.744        8.249      864.410
01/12/2015  04:06:00     -270.170      -64.324      -25.570       70.336       67.521       41.572     4947.151     4559.143     1728.240        4.451        0.562      277.721       36.339        0.017      336.766        8.285      864.427
01/12/2015  04:07:00     -285.548      -33.734      -19.678       85.201       89.586       47.113     7259.202     8025.589     2219.605        5.028        0.875      287.534       33.180        0.013      336.750        8.258      864.435
01/12/2015  04:08:00     -209.638      -86.830        1.229       97.497       84.589       51.035     9505.746     7155.257     2604.613        3.537        0.963      226.909       43.698        0.037      336.759        8.274      864.427
01/12/2015  04:09:00     -155.315      -50.973       -5.071       90.019       71.709       49.522     8103.332     5142.232     2452.457        2.122        0.785      163.465       45.328        0.077      336.730        8.228      864.438
01/12/2015  04:10:00     -245.891      -72.641      -18.618       65.450       65.330       41.439     4283.678     4268.012     1717.159        3.818        0.513      256.396       37.466        0.021      336.745        8.250      864.438
01/12/2015  04:11:00     -248.610      -58.868      -16.597       87.179       91.048       42.931     7600.104     8289.791     1843.086        4.164        0.887      255.485       39.867        0.024      336.732        8.229      864.453
01/12/2015  04:12:00     -239.655      -40.307      -17.562      114.299       62.050       46.733    13064.205     3850.171     2183.935        3.923        0.955      243.021       54.539        0.050      336.680        8.142      864.458
01/12/2015  04:13:00     -310.195      -21.121      -31.336       76.089       63.815       42.473     5789.587     4072.349     1803.932        5.466        0.583      310.913       28.031        0.008      336.724        8.213      864.460
01/12/2015  04:14:00     -255.591      -52.542      -15.279       82.121       51.669       44.969     6743.936     2669.704     2022.167        3.988        0.572      260.936       49.270        0.036      336.706        8.186      864.462
01/12/2015  04:15:00     -209.494      -46.621      -17.836       80.606       64.076       34.033     6497.258     4105.683     1158.215        2.907        0.588      214.619       38.518        0.032      336.688        8.156      864.453
01/12/2015  04:16:00     -249.981      -61.457      -15.381       75.917       80.758       42.161     5763.400     6521.794     1777.528        4.028        0.703      257.424       37.388        0.021      336.724        8.214      864.450
01/12/2015  04:17:00     -255.201       -1.956      -23.166       76.397       54.787       40.571     5836.542     3001.610     1646.004        3.807        0.524      255.209       39.427        0.024      336.773        8.295      864.452
01/12/2015  04:18:00     -163.884      -29.878      -14.983       79.156       67.489       31.633     6265.622     4554.741     1000.623        1.990        0.591      166.585       36.615        0.048      336.745        8.252      864.457
01/12/2015  04:19:00     -122.332       12.464      -20.335       39.322       30.344       24.321     1546.213      920.729      591.522        0.930        0.153      122.965       11.109        0.008      336.731        8.231      864.454
01/12/2015  04:20:00     -122.891       23.766      -15.439       44.255       23.165       19.091     1958.511      536.613      364.450        0.938        0.143      125.168       17.855        0.020      336.638        8.076      864.453
01/12/2015  04:21:00      -93.391       20.837      -11.043       42.911       37.009       21.376     1841.393     1369.693      456.935        0.647        0.183       95.687        9.821        0.011      336.660        8.113      864.462
01/12/2015  04:22:00      -61.018        3.599       -7.377       33.931       31.670       20.128     1151.303     1003.014      405.144        0.317        0.128       61.124       21.273        0.121      336.635        8.070      864.468
01/12/2015  04:23:00      -68.888       54.400       -6.757       31.667       56.928       26.757     1002.791     3240.849      715.913        0.635        0.248       87.777       21.390        0.059      336.610        8.029      864.480
01/12/2015  04:24:00      -82.137       49.454      -11.194       27.191       69.299       25.134      739.332     4802.319      631.696        0.774        0.309       95.875       27.579        0.083      336.614        8.035      864.480
01/12/2015  04:25:00     -100.526       46.405      -16.127       36.405       40.013       25.915     1325.299     1601.040      671.581        0.806        0.180      110.719       19.348        0.031      336.586        7.990      864.484
01/12/2015  04:26:00      -91.383       58.777       -6.960       51.758       46.419       31.361     2678.937     2154.744      983.493        0.883        0.291      108.653       33.132        0.093      336.553        7.934      864.486
01/12/2015  04:27:00     -102.495      117.716      -21.485       42.894       38.087       28.175     1839.924     1450.586      793.856        1.445        0.204      156.085       20.924        0.018      336.572        7.965      864.488
01/12/2015  04:28:00     -126.216       90.533      -21.647       44.518       38.322       26.652     1981.895     1468.605      710.326        1.438        0.208      155.328       23.602        0.023      336.434        7.732      864.501
01/12/2015  04:29:00      -86.115      122.319      -17.967       39.192       42.138       33.059     1535.996     1775.620     1092.913        1.355        0.220      149.592       23.714        0.025      336.390        7.658      864.513
01/12/2015  04:30:00     -127.966      142.956      -24.745       59.089       75.723       36.777     3491.481     5733.989     1352.549        2.400        0.529      191.864       40.483        0.045      336.361        7.607      864.518
01/12/2015  04:31:00     -110.554      122.313      -10.667       68.579       52.648       33.333     4703.040     2771.826     1111.093        1.794        0.429      164.872       34.971        0.045      336.294        7.497      864.521
01/12/2015  04:32:00     -117.840      189.314      -29.413       56.028       58.668       33.269     3139.151     3441.945     1106.835        2.914        0.384      222.993       38.055        0.029      336.257        7.434      864.507
01/12/2015  04:33:00     -112.580      136.550      -20.600       52.656       72.000       38.091     2772.617     5183.945     1450.896        2.057        0.470      176.975       28.037        0.025      336.300        7.507      864.506
01/12/2015  04:34:00      -99.941       70.076      -24.894       44.316       47.972       27.248     1963.935     2301.315      742.468        1.026        0.250      122.061       24.067        0.039      336.292        7.496      864.492
01/12/2015  04:35:00      -87.608       38.311       -6.491       37.605       44.020       26.276     1414.120     1937.768      690.413        0.661        0.202       95.618       25.514        0.071      336.288        7.488      864.485
01/12/2015  04:36:00      -79.352       -5.012        8.114       47.135       34.007       32.486     2221.720     1156.500     1055.335        0.541        0.222       79.510       31.995        0.162      336.266        7.451      864.473
01/12/2015  04:37:00      -74.770       45.929       -7.774       36.468       65.227       30.432     1329.905     4254.602      926.128        0.713        0.326       87.750       24.406        0.077      336.281        7.478      864.465
01/12/2015  04:38:00      -89.420       77.595      -28.783       36.555       54.100       22.354     1336.268     2926.854      499.720        0.980        0.238      118.394       17.529        0.022      336.314        7.532      864.459
01/12/2015  04:39:00      -79.686       34.291       -5.848       45.164       41.992       21.208     2039.823     1763.333      449.792        0.591        0.213       86.751       13.972        0.026      336.317        7.539      864.464
01/12/2015  04:40:00      -86.855       62.767      -15.871       26.615       41.170       19.343      708.352     1694.939      374.158        0.726        0.139      107.161       19.054        0.032      336.313        7.530      864.477
01/12/2015  04:41:00     -104.662       88.983      -16.443       30.607       51.170       24.743      936.780     2618.395      612.196        1.165        0.208      137.376       17.318        0.016      336.288        7.488      864.504
01/12/2015  04:42:00      -88.227      116.065      -15.147       42.224       39.215       30.882     1782.848     1537.777      953.710        1.288        0.214      145.791       27.698        0.036      336.342        7.579      864.520
01/12/2015  04:43:00     -117.936      116.905      -22.416       38.563       58.494       28.154     1487.086     3421.603      792.644        1.689        0.285      166.059       23.115        0.019      336.348        7.588      864.521
01/12/2015  04:44:00     -116.329      110.619      -20.521       40.636       50.131       28.718     1651.289     2513.101      824.727        1.559        0.249      160.527       22.882        0.020      336.381        7.643      864.516
01/12/2015  04:45:00     -100.049       37.367      -11.527       38.418       65.320       33.475     1475.922     4266.702     1120.544        0.920        0.343      106.800       36.905        0.119      336.389        7.658      864.506
01/12/2015  04:46:00      -71.686       86.555      -13.562       37.434       62.958       27.845     1401.281     3963.700      775.324        0.948        0.307      112.386       22.996        0.042      336.384        7.648      864.503
01/12/2015  04:47:00      -81.239       41.082      -17.975       29.078       34.291       18.865      845.516     1175.891      355.891        0.549        0.119       91.036       15.096        0.027      336.382        7.647      864.499
01/12/2015  04:48:00     -133.936       44.246      -16.357       47.180       29.066       20.626     2225.977      844.807      425.442        1.183        0.175      141.055        9.250        0.004      336.350        7.592      864.502
01/12/2015  04:49:00      -98.688       51.867      -10.785       34.178       43.154       23.390     1168.122     1862.230      547.076        0.806        0.179      111.488       23.401        0.044      336.344        7.582      864.510
01/12/2015  04:50:00     -101.199       31.080      -17.998       27.869       39.339       18.866      776.663     1547.580      355.923        0.711        0.134      105.864        9.870        0.009      336.329        7.558      864.504
01/12/2015  04:51:00      -85.810       47.549       -9.548       25.671       37.538       21.913      658.993     1409.093      480.168        0.613        0.127       98.103       16.162        0.027      336.347        7.587      864.504
01/12/2015  04:52:00     -120.433       60.645      -19.921       48.312       50.107       22.788     2334.009     2510.745      519.298        1.197        0.268      134.840       19.132        0.020      336.422        7.712      864.485
01/12/2015  04:53:00      -84.261       46.184      -15.345       43.099       34.338       27.637     1857.505     1179.093      763.791        0.663        0.190       96.087       23.306        0.059      336.390        7.657      864.471
01/12/2015  04:54:00      -94.641        0.723      -15.381       29.589       43.947       21.293      875.502     1931.367      453.389        0.623        0.163       94.643       11.954        0.016      336.387        7.655      864.463
01/12/2015  04:55:00      -96.395        9.579      -16.742       32.978       35.261       24.134     1087.556     1243.352      582.468        0.629        0.146       96.870       20.195        0.043      336.390        7.661      864.468
01/12/2015  04:56:00     -135.695       -9.121      -18.942       32.258       48.389       23.756     1040.554     2341.483      564.326        1.140        0.197      136.001       17.074        0.016      336.366        7.617      864.471
01/12/2015  04:57:00     -105.064      -43.915       -8.804       58.126       51.979       29.552     3378.580     2701.855      873.303        1.000        0.348      113.872       23.982        0.044      336.439        7.742      864.489
01/12/2015  04:58:00     -119.109      -47.302       -6.953       42.953       47.416       29.651     1844.971     2248.286      879.179        1.072        0.249      128.158       25.842        0.041      336.442        7.747      864.493
01/12/2015  04:59:00     -158.210       -1.109      -25.807       67.711       45.604       34.928     4584.766     2079.708     1219.998        1.679        0.394      158.214       35.635        0.051      336.634        8.066      864.498
01/12/2015  05:00:00     -157.892      -46.231      -24.719       50.982       60.578       35.017     2599.159     3669.650     1226.170        1.759        0.375      164.522       25.665        0.024      336.542        7.914      864.496
01/12/2015  05:01:00     -203.439      -69.120      -23.355       78.663       73.696       32.848     6187.944     5431.170     1078.993        2.970        0.635      214.860       33.181        0.024      336.637        8.070      864.486
01/12/2015  05:02:00     -286.651      -38.491      -32.014       84.036       77.073       35.739     7062.096     5940.312     1277.277        4.947        0.714      289.223       41.510        0.021      336.696        8.168      864.482
01/12/2015  05:03:00     -212.447      -72.207        3.507      106.441      100.629       46.425    11329.776    10126.260     2155.265        3.698        1.181      224.383       40.130        0.032      336.793        8.331      864.482
01/12/2015  05:04:00     -250.687      -34.337       -7.211      113.540       81.392       48.935    12891.271     6624.618     2394.591        4.299        1.096      253.028       54.854        0.047      336.849        8.423      864.485
01/12/2015  05:05:00     -294.911      -66.288      -14.525      125.236       92.865       55.008    15684.030     8623.902     3025.881        5.945        1.367      302.269       55.834        0.034      336.944        8.582      864.488
01/12/2015  05:06:00     -310.755      -40.450      -16.146      122.464       72.724       53.185    14997.346     5288.768     2828.692        6.079        1.156      313.377       53.787        0.029      336.978        8.639      864.493
01/12/2015  05:07:00     -279.062      -22.634      -21.385       89.686       64.954       40.709     8043.530     4219.066     1657.208        4.638        0.696      279.979       40.225        0.021      336.936        8.567      864.487
01/12/2015  05:08:00     -206.791      -49.494       -5.264       78.382       64.685       35.073     6143.694     4184.105     1230.083        2.840        0.578      212.632       28.790        0.018      336.962        8.612      864.480
01/12/2015  05:09:00     -235.485       16.575      -26.344       66.450       63.079       34.018     4415.565     3978.904     1157.194        3.298        0.478      236.068       25.972        0.012      336.966        8.617      864.474
01/12/2015  05:10:00     -183.015       -1.016      -12.982       66.781       62.902       37.172     4459.637     3956.665     1381.733        2.173        0.490      183.018       42.131        0.053      336.934        8.566      864.471
01/12/2015  05:11:00     -231.884      -45.024      -11.178      124.643       82.430       48.005    15535.766     6794.767     2304.512        4.027        1.232      236.215       57.643        0.060      336.980        8.642      864.462
01/12/2015  05:12:00     -223.737      -29.061       -6.043       92.013       63.148       48.151     8466.431     3987.618     2318.479        3.285        0.739      225.617       45.960        0.041      337.021        8.709      864.448
01/12/2015  05:13:00     -253.617      -41.950       -9.122      110.745       68.718       48.623    12264.555     4722.104     2364.237        4.275        0.968      257.063       49.173        0.037      337.012        8.696      864.443
01/12/2015  05:14:00     -170.192      -26.056        3.023       70.632       85.357       42.263     4988.868     7285.869     1786.136        2.185        0.703      172.175       35.835        0.043      336.987        8.656      864.433
01/12/2015  05:15:00     -173.709        9.419       -6.420       72.837       64.411       38.665     5305.214     4148.836     1495.006        2.062        0.547      173.964       41.480        0.057      336.980        8.643      864.438
01/12/2015  05:16:00     -231.555      -42.594      -10.626       78.064       86.656       46.309     6094.008     7509.261     2144.526        3.564        0.787      235.440       42.544        0.033      336.994        8.665      864.446
01/12/2015  05:17:00     -235.560      -33.573      -14.219      129.625       59.963       45.247    16802.746     3595.604     2047.315        3.963        1.122      237.940       52.089        0.048      336.975        8.635      864.444
01/12/2015  05:18:00     -209.184      -49.672      -12.678       71.860       58.560       38.723     5163.801     3429.282     1499.446        2.824        0.505      215.001       38.324        0.032      336.954        8.599      864.441
01/12/2015  05:19:00     -235.015      -17.013      -19.017       71.875       75.140       34.104     5165.976     5645.990     1163.088        3.393        0.599      235.629       29.675        0.016      336.957        8.603      864.434
01/12/2015  05:20:00     -196.460       -6.254      -18.780       73.248       75.052       28.409     5365.200     5632.769      807.082        2.539        0.590      196.560       24.452        0.015      336.948        8.589      864.438
01/12/2015  05:21:00     -155.992      -68.366       -6.552       57.092       63.952       34.098     3259.451     4089.794     1162.654        1.878        0.426      170.316       27.243        0.026      336.880        8.477      864.447
01/12/2015  05:22:00     -132.512       -6.271       -9.611       55.607       44.523       26.946     3092.097     1982.339      726.091        1.174        0.290      132.661       29.555        0.050      336.879        8.477      864.447
01/12/2015  05:23:00     -148.042       12.536      -17.496       67.783       30.626       21.846     4594.497      937.941      477.238        1.419        0.300      148.571       28.887        0.038      336.848        8.424      864.450
01/12/2015  05:24:00     -104.571      -13.694      -17.201       61.162       26.666       16.814     3740.819      711.055      282.712        0.808        0.237      105.464       18.160        0.030      336.821        8.381      864.432
01/12/2015  05:25:00      -83.302       69.598      -21.775       28.042       44.050       17.788      786.380     1940.442      316.419        0.765        0.152      108.550       21.889        0.041      336.715        8.205      864.412
01/12/2015  05:26:00     -105.526      101.396      -22.703       33.758       30.174       26.747     1139.608      910.441      715.395        1.235        0.138      146.345       18.949        0.017      336.562        7.947      864.400
01/12/2015  05:27:00     -114.569      104.097      -25.230       41.093       44.680       21.480     1688.620     1996.339      461.399        1.437        0.207      154.797       22.242        0.021      336.515        7.868      864.396
01/12/2015  05:28:00     -131.951       98.537      -23.203       37.176       59.287       29.370     1382.025     3514.916      862.585        1.671        0.288      164.683       18.563        0.013      336.414        7.698      864.399
01/12/2015  05:29:00     -160.178       50.822      -24.285       45.373       45.795       30.831     2058.696     2097.170      950.538        1.697        0.255      168.047       21.078        0.016      336.337        7.570      864.402
01/12/2015  05:30:00     -121.215       33.258      -20.447       18.339       34.255       18.286      336.334     1173.437      334.360        0.903        0.092      125.695       13.650        0.012      336.301        7.510      864.399
01/12/2015  05:31:00     -118.787      -10.462      -17.041       47.422       56.408       26.006     2248.838     3181.911      676.321        1.031        0.305      119.247       15.436        0.017      336.237        7.403      864.390
01/12/2015  05:32:00     -148.904       -8.472      -20.584       54.514       47.951       28.194     2971.752     2299.260      794.923        1.437        0.303      149.144       28.477        0.036      336.224        7.381      864.391
01/12/2015  05:33:00     -142.044       19.685      -22.344       30.215       44.272       23.255      912.964     1960.030      540.808        1.224        0.171      143.401       11.859        0.007      336.199        7.340      864.396
01/12/2015  05:34:00     -151.349       25.002      -21.861       45.162       32.389       22.822     2039.575     1049.059      520.850        1.381        0.180      153.400       16.924        0.012      336.145        7.250      864.400
01/12/2015  05:35:00     -109.344       41.660      -13.700       42.379       46.072       21.850     1796.018     2122.648      477.434        0.914        0.220      117.011       17.069        0.021      336.165        7.283      864.403
01/12/2015  05:36:00     -144.566      -22.546      -12.562       62.696       65.497       33.963     3930.805     4289.879     1153.494        1.547        0.469      146.314       34.831        0.057      336.148        7.252      864.414
01/12/2015  05:37:00      -75.265       -2.246      -14.396       45.348       39.995       24.765     2056.473     1599.597      613.296        0.507        0.213       75.298       25.806        0.117      336.124        7.215      864.427
01/12/2015  05:38:00      -75.296       -0.974      -14.584       41.764       24.988       21.703     1744.260      624.380      471.030        0.436        0.142       75.303       20.435        0.074      336.162        7.276      864.427
01/12/2015  05:39:00      -70.422      -20.910       -2.711       36.662       28.839       18.680     1344.085      831.695      348.936        0.396        0.126       73.461       12.064        0.027      336.129        7.223      864.426
01/12/2015  05:40:00     -102.816      -15.015       -8.811       51.842       52.917       28.977     2687.590     2800.249      839.662        0.860        0.316      103.907       11.111        0.011      336.094        7.164      864.423
01/12/2015  05:41:00     -160.840        4.789      -17.101       49.161       54.416       29.776     2416.770     2961.119      886.587        1.622        0.313      160.911       24.483        0.023      336.105        7.183      864.427
01/12/2015  05:42:00     -159.496      -69.059      -10.249       63.705       54.230       37.633     4058.276     2940.927     1416.253        1.936        0.421      173.804       27.262        0.025      336.018        7.036      864.420
01/12/2015  05:43:00     -234.790      -78.620      -18.543       66.786       55.628       36.835     4460.376     3094.431     1356.845        3.528        0.446      247.604       28.501        0.013      335.990        6.987      864.423
01/12/2015  05:44:00     -183.211      -78.811      -13.237       55.121       53.780       33.830     3038.338     2892.304     1144.474        2.351        0.354      199.443       27.557        0.019      335.908        6.853      864.436
01/12/2015  05:45:00     -159.715      -57.965      -10.362       56.575       57.006       33.824     3200.722     3249.643     1144.082        1.828        0.380      169.908       25.525        0.023      335.873        6.795      864.447
01/12/2015  05:46:00     -147.343      -26.861      -17.783       74.480       54.846       38.889     5547.211     3008.116     1512.324        1.641        0.503      149.771       42.555        0.081      336.139        7.240      864.448
01/12/2015  05:47:00     -196.653      -30.932      -17.488       91.188       66.003       36.503     8315.172     4356.406     1332.433        2.697        0.700      199.071       37.363        0.035      336.081        7.141      864.455
01/12/2015  05:48:00     -199.240      -55.786      -23.556       68.177       64.120       35.781     4648.089     4111.384     1280.279        2.670        0.502      206.903       28.283        0.019      336.007        7.018      864.476
01/12/2015  05:49:00     -186.438      -71.665      -32.817       42.387       36.345       24.439     1796.630     1320.974      597.285        2.234        0.186      199.738        7.284        0.001      335.992        6.992      864.489
01/12/2015  05:50:00     -187.478      -42.960      -20.868       70.329       56.444       38.308     4946.210     3185.933     1467.515        2.351        0.480      192.337       39.319        0.042      336.064        7.113      864.513
01/12/2015  05:51:00     -117.914       -7.951        1.241       65.864       60.381       37.974     4338.058     3645.905     1442.012        1.170        0.471      118.182       40.568        0.118      336.102        7.177      864.519
01/12/2015  05:52:00     -116.049       -6.480      -13.228       62.840       57.022       35.114     3948.871     3251.514     1233.023        1.106        0.422      116.230       39.940        0.118      336.090        7.157      864.524
01/12/2015  05:53:00     -137.541      -66.677      -16.319       49.416       52.107       32.760     2441.904     2715.176     1073.247        1.493        0.312      152.851       23.828        0.024      336.091        7.159      864.519
01/12/2015  05:54:00     -114.340      -36.150      -18.020       59.072       41.463       32.859     3489.463     1719.142     1079.699        1.050        0.314      119.918       33.245        0.077      336.145        7.248      864.512
01/12/2015  05:55:00     -107.978      -39.380       -8.277       62.014       37.076       32.121     3845.776     1374.636     1031.758        0.976        0.313      114.934       32.257        0.079      336.166        7.283      864.509
01/12/2015  05:56:00     -161.983      -28.883      -18.242       54.098       49.349       28.333     2926.547     2435.297      802.760        1.678        0.308      164.538       18.231        0.012      336.188        7.322      864.514
01/12/2015  05:57:00      -76.544       -7.129       -4.650       39.968       27.805       27.793     1597.443      773.116      772.426        0.454        0.157       76.876       17.189        0.050      336.184        7.315      864.532
01/12/2015  05:58:00     -119.655       35.185      -14.882       58.610       57.875       31.359     3435.092     3349.561      983.366        1.177        0.388      124.721       30.888        0.061      336.222        7.377      864.546
01/12/2015  05:59:00     -113.240      102.481      -21.281       49.017       52.022       27.660     2402.646     2706.323      765.051        1.483        0.294      152.727       20.518        0.018      336.299        7.507      864.547
01/12/2015  06:00:00     -105.119       67.107      -17.157       34.963       42.055       27.124     1222.385     1768.661      735.691        0.979        0.186      124.713       23.768        0.036      336.341        7.577      864.531
01/12/2015  06:01:00     -101.015       83.211      -24.731       22.645       29.100       15.351      512.817      846.839      235.639        0.967        0.080      130.874       10.435        0.006      336.337        7.571      864.526
01/12/2015  06:02:00     -136.701       72.659      -22.489       53.135       50.420       29.164     2823.293     2542.217      850.527        1.534        0.311      154.812       22.168        0.021      336.310        7.525      864.530
01/12/2015  06:03:00     -130.404      196.634      -41.318       46.933       62.014       28.732     2202.679     3845.793      825.551        3.212        0.344      235.945       29.589        0.016      336.407        7.685      864.539
01/12/2015  06:04:00      -88.958      153.667      -17.936       50.188       82.225       36.300     2518.878     6760.977     1317.710        2.122        0.530      177.559       45.328        0.065      336.417        7.703      864.548
01/12/2015  06:05:00     -126.621      102.033      -29.988       37.043       51.109       29.252     1372.158     2612.156      855.677        1.609        0.242      162.615       24.462        0.023      336.394        7.664      864.578
01/12/2015  06:06:00      -77.400       85.751       -5.823       30.934       59.491       23.625      956.897     3539.203      558.150        0.922        0.253      115.516       19.013        0.027      336.420        7.709      864.606
01/12/2015  06:07:00     -107.162       44.228      -14.347       43.063       81.361       33.791     1854.413     6619.669     1141.829        1.163        0.481      115.930       23.901        0.043      336.372        7.629      864.629
01/12/2015  06:08:00      -90.190      164.265      -17.608       47.799       77.911       37.105     2284.781     6070.170     1376.753        2.258        0.487      187.396       41.846        0.050      336.389        7.656      864.646
01/12/2015  06:09:00     -139.693      124.647      -35.993       57.880       62.760       31.686     3350.104     3938.873     1003.980        2.232        0.415      187.219       30.717        0.027      336.376        7.632      864.628
01/12/2015  06:10:00     -123.329       28.775      -22.600       33.338       58.643       21.887     1111.448     3438.946      479.035        1.079        0.251      126.642       16.257        0.016      336.307        7.521      864.616
01/12/2015  06:11:00     -138.570      -15.609      -11.998       40.138       53.574       31.644     1611.065     2870.205     1001.315        1.253        0.274      139.447       22.897        0.027      336.295        7.500      864.613
01/12/2015  06:12:00     -174.120       79.608      -19.222       72.983       44.620       34.393     5326.505     1990.960     1182.850        2.276        0.425      191.456       28.253        0.022      336.239        7.404      864.616
01/12/2015  06:13:00     -180.363       44.335      -18.371       73.790       52.712       38.589     5444.895     2778.563     1489.145        2.227        0.486      185.732       42.364        0.052      336.214        7.364      864.614
01/12/2015  06:14:00     -129.277      173.889      -29.473       72.214       77.596       48.359     5214.793     6021.172     2338.585        3.069        0.679      216.680       35.690        0.027      336.286        7.483      864.628
01/12/2015  06:15:00     -160.632      246.989      -44.397       74.876       71.726       41.283     5606.469     5144.612     1704.324        5.061        0.623      294.629       36.474        0.015      336.257        7.433      864.637
01/12/2015  06:16:00     -151.943      156.285      -41.108       38.859       67.277       26.974     1509.985     4526.194      727.606        2.798        0.338      217.972       22.688        0.011      336.227        7.385      864.659
01/12/2015  06:17:00     -127.404      107.231      -24.387       65.249       73.947       37.355     4257.478     5468.136     1395.362        1.972        0.556      166.524       43.966        0.070      336.235        7.398      864.656
01/12/2015  06:18:00     -140.942      138.742      -31.245       54.687       94.008       36.746     2990.691     8837.562     1350.284        2.663        0.659      197.773       31.028        0.025      336.249        7.420      864.641
01/12/2015  06:19:00     -162.976       90.691      -35.944       72.956       84.904       43.450     5322.515     7208.755     1887.865        2.525        0.721      186.510       50.973        0.075      336.247        7.419      864.631
01/12/2015  06:20:00     -210.139      103.543      -32.378       95.627       44.785       40.965     9144.608     2005.675     1678.129        3.438        0.641      234.263       43.628        0.035      336.210        7.355      864.626
01/12/2015  06:21:00     -176.185       65.947      -34.217       92.241       72.874       33.872     8508.447     5310.674     1147.334        2.576        0.748      188.122       31.842        0.029      336.206        7.350      864.637
01/12/2015  06:22:00     -132.949       32.510      -13.176       62.051       69.797       46.011     3850.290     4871.660     2117.007        1.487        0.542      136.866       41.939        0.094      336.203        7.345      864.639
01/12/2015  06:23:00     -172.575       84.336      -24.296       74.930       59.531       55.865     5614.576     3543.929     3120.909        2.488        0.614      192.080       37.996        0.039      336.125        7.213      864.641
01/12/2015  06:24:00     -187.910       91.180      -34.775       62.928       58.743       34.410     3959.954     3450.697     1184.041        2.671        0.430      208.864       28.571        0.019      336.093        7.161      864.636
01/12/2015  06:25:00     -103.008       39.791      -16.451       36.927       52.074       21.127     1363.579     2711.696      446.362        0.849        0.226      110.426       17.573        0.025      336.051        7.093      864.619
01/12/2015  06:26:00     -101.907       28.807      -14.106       39.779       54.765       32.579     1582.359     2999.175     1061.407        0.853        0.282      105.900       22.695        0.046      336.084        7.148      864.618
01/12/2015  06:27:00      -66.097       40.094        2.502       52.462       41.590       25.622     2752.312     1729.702      656.494        0.556        0.257       77.307       23.997        0.096      336.132        7.229      864.617
01/12/2015  06:28:00      -90.981       78.270      -17.030       39.129       55.702       26.854     1531.052     3102.717      721.132        1.002        0.268      120.016       27.898        0.054      336.136        7.236      864.614
01/12/2015  06:29:00     -133.117       70.311      -27.867       41.869       44.876       24.672     1753.022     2013.833      608.692        1.391        0.219      150.545       21.563        0.021      336.166        7.284      864.603
01/12/2015  06:30:00     -126.862      105.631      -32.009       48.044       73.975       26.454     2308.187     5472.281      699.791        1.838        0.424      165.082       23.737        0.021      336.180        7.308      864.600
01/12/2015  06:31:00     -164.665      117.868      -32.105       51.527       74.625       33.052     2655.073     5568.912     1092.446        2.568        0.466      202.503       31.754        0.025      336.192        7.326      864.584
01/12/2015  06:32:00     -119.053       78.184      -14.293       77.237       83.390       39.372     5965.542     6953.859     1550.119        1.748        0.723      142.430       40.141        0.079      336.229        7.389      864.580
01/12/2015  06:33:00      -80.225       24.259       -2.682       54.059       59.711       34.595     2922.369     3565.390     1196.848        0.736        0.384       83.812       22.165        0.070      336.209        7.358      864.578
01/12/2015  06:34:00      -89.167        6.687       -0.567       69.063       59.907       33.449     4769.693     3588.834     1118.804        0.873        0.474       89.417       24.815        0.077      336.210        7.357      864.576
01/12/2015  06:35:00      -87.181      -14.586       -2.929       60.196       51.085       26.151     3623.502     2609.634      683.862        0.737        0.346       88.393       20.579        0.054      336.177        7.302      864.572
01/12/2015  06:36:00      -94.651       -7.302       -4.140       40.414       36.540       27.548     1633.268     1335.187      758.878        0.638        0.186       94.933       21.553        0.052      336.139        7.239      864.568
01/12/2015  06:37:00      -83.377      -11.510       -9.797       35.045       33.036       28.402     1228.153     1091.402      806.670        0.515        0.156       84.168       21.015        0.062      336.143        7.245      864.560
01/12/2015  06:38:00      -69.131       26.968        0.365       34.088       35.977       25.349     1161.958     1294.356      642.594        0.430        0.155       74.205       13.557        0.033      336.144        7.247      864.555
01/12/2015  06:39:00      -90.658      -52.585       -9.544       54.344       35.009       25.132     2953.253     1225.642      631.622        0.794        0.241      104.805       17.973        0.029      336.126        7.217      864.555
01/12/2015  06:40:00     -105.517      -38.128      -14.254       76.583       58.554       32.653     5865.030     3428.555     1066.241        1.157        0.518      112.194       29.392        0.069      336.119        7.205      864.552
01/12/2015  06:41:00     -129.573      -35.981      -18.021       42.462       79.952       29.072     1803.052     6392.331      845.200        1.372        0.452      134.476       17.065        0.016      336.106        7.185      864.561
01/12/2015  06:42:00     -123.628      -38.643      -18.344       56.151       57.748       27.440     3152.948     3334.775      752.948        1.218        0.362      129.527       24.110        0.035      336.116        7.200      864.580
01/12/2015  06:43:00      -57.989       -8.722        3.591       41.015       45.349       24.833     1682.191     2056.514      616.660        0.390        0.218       58.641       19.618        0.112      336.086        7.152      864.601
01/12/2015  06:44:00      -62.645      -18.956       -0.930       46.483       33.852       27.336     2160.710     1145.982      747.274        0.417        0.203       65.450       27.886        0.182      336.128        7.223      864.617
01/12/2015  06:45:00      -87.720        8.125      -10.687       62.259       39.849       32.655     3876.224     1587.919     1066.358        0.720        0.327       88.096       39.175        0.198      336.112        7.195      864.620
01/12/2015  06:46:00      -87.537        2.012      -10.785       46.995       30.429       21.442     2208.501      925.919      459.741        0.569        0.180       87.561       14.420        0.027      336.101        7.175      864.622
01/12/2015  06:47:00     -114.688       15.326      -13.738       54.748       55.768       31.949     2997.336     3110.061     1020.731        1.035        0.356      115.708       24.808        0.046      336.147        7.251      864.619
01/12/2015  06:48:00      -65.725       74.603       -9.854       39.522       37.752       25.305     1561.985     1425.235      640.324        0.680        0.181       99.425       20.129        0.041      336.215        7.367      864.613
01/12/2015  06:49:00     -122.493       34.267       -9.975       77.738       35.127       29.735     6043.160     1233.910      884.165        1.222        0.408      127.195       36.717        0.083      336.201        7.343      864.631
01/12/2015  06:50:00      -66.370       59.950      -12.884       31.824       49.758       28.881     1012.758     2475.886      834.087        0.624        0.216       89.437       16.965        0.036      336.183        7.314      864.626
01/12/2015  06:51:00      -93.678       89.428      -14.239       44.609       52.852       33.885     1989.947     2793.317     1148.160        1.145        0.297      129.510       24.443        0.036      336.228        7.388      864.620
01/12/2015  06:52:00     -137.606      122.138      -32.943       46.605       57.062       28.469     2172.062     3256.064      810.510        2.059        0.312      183.992       17.080        0.009      336.267        7.453      864.619
01/12/2015  06:53:00     -115.652      132.986      -32.347       44.535       47.085       30.082     1983.401     2217.027      904.914        1.861        0.255      176.240       22.576        0.016      336.241        7.409      864.596
01/12/2015  06:54:00      -71.797       96.167      -21.249       51.264       40.409       33.223     2627.993     1632.865     1103.749        1.011        0.268      120.012       27.504        0.053      336.276        7.469      864.585
01/12/2015  06:55:00     -114.703       96.349      -29.069       32.304       51.933       26.295     1043.580     2697.088      691.419        1.386        0.222      149.799       30.268        0.041      336.330        7.559      864.590
01/12/2015  06:56:00      -95.958       98.192      -22.238       39.488       42.613       21.319     1559.285     1815.896      454.502        1.159        0.191      137.295       18.134        0.017      336.366        7.619      864.599
01/12/2015  06:57:00      -76.670      117.868      -21.989       51.832       38.544       24.455     2686.571     1485.670      598.058        1.251        0.239      140.610       25.369        0.033      336.365        7.618      864.608
01/12/2015  06:58:00     -114.980      126.055      -33.751       58.828       47.415       24.150     3460.690     2248.164      583.245        1.827        0.315      170.617       18.856        0.012      336.399        7.673      864.615
01/12/2015  06:59:00      -70.716       78.936       -7.170       43.621       41.060       27.598     1902.766     1685.894      761.623        0.782        0.218      105.979       24.968        0.056      336.359        7.607      864.632
01/12/2015  07:00:00      -61.912      143.707      -13.770       31.742       41.838       22.949     1007.559     1750.442      526.675        1.398        0.164      156.476       17.534        0.013      336.446        7.752      864.641
01/12/2015  07:01:00       -3.572      165.765      -25.841       29.676       34.123       19.034      880.689     1164.403      362.294        1.528        0.120      165.803       13.915        0.007      336.273        7.464      864.647
01/12/2015  07:02:00      -22.484      177.156      -28.034       26.867       29.663       16.099      721.826      879.904      259.163        1.727        0.093      178.577        9.252        0.003      336.282        7.479      864.661
01/12/2015  07:03:00       -0.614      138.685      -27.153       42.745       39.707       22.783     1827.176     1576.647      519.051        1.195        0.196      138.687       19.581        0.020      336.225        7.384      864.684
01/12/2015  07:04:00      -18.553      161.303      -18.221       27.492       42.466       23.261      755.835     1803.386      541.062        1.490        0.155      162.367       16.708        0.011      336.268        7.456      864.701
01/12/2015  07:05:00      -26.030       85.632       -9.013       28.731       34.730       15.015      825.447     1206.142      225.441        0.517        0.113       89.501        7.551        0.007      336.296        7.503      864.728
01/12/2015  07:06:00       -1.470      100.192       -9.136       22.092       31.299       20.240      488.044      979.598      409.678        0.600        0.094      100.203       17.408        0.030      336.206        7.352      864.756
01/12/2015  07:07:00       -4.973       63.394        6.296       17.317       38.532       19.821      299.870     1484.746      392.885        0.313        0.109       63.588       19.795        0.097      336.240        7.407      864.786
01/12/2015  07:08:00        5.966       -8.517        4.912       19.435       50.228       22.858      377.701     2522.899      522.469        0.178        0.171       10.398       25.982        6.243      336.266        7.452      864.806
01/12/2015  07:09:00      -23.826      -21.923       10.925       18.004       14.509       12.467      324.149      210.522      155.431        0.093        0.035       32.377       13.562        0.175      336.327        7.554      864.823
01/12/2015  07:10:00       13.108      -39.162       -1.836       33.264       30.490       11.887     1106.513      929.668      141.310        0.194        0.109       41.297        9.688        0.055      336.313        7.532      864.828
01/12/2015  07:11:00        8.686       -7.019       22.861       22.573       35.722       28.593      509.520     1276.058      817.574        0.162        0.130       11.168       25.804        5.339      336.168        7.289      864.836
01/12/2015  07:12:00       33.882      -29.697       17.817       40.352       39.898       41.553     1628.318     1591.863     1726.673        0.365        0.247       45.055       36.807        0.667      335.970        6.959      864.861
01/12/2015  07:13:00       52.171      -40.851       18.193       37.619       52.707       37.806     1415.157     2778.072     1429.323        0.517        0.281       66.261       41.474        0.392      335.890        6.824      864.864
01/12/2015  07:14:00       86.687      -51.016        5.618       43.063       45.364       29.753     1854.434     2057.875      885.271        0.747        0.240      100.585       30.859        0.094      335.849        6.757      864.880
01/12/2015  07:15:00       49.143      -38.313        9.186       45.553       57.998       36.854     2075.067     3363.720     1358.231        0.538        0.340       62.313       41.186        0.437      335.839        6.742      864.886
01/12/2015  07:16:00       70.990      -21.041       36.804       90.176       91.095       70.592     8131.679     8298.365     4983.179        1.412        1.071       74.043       74.892        1.023      335.828        6.721      864.894
01/12/2015  07:17:00       82.801      -26.645       44.666       86.677       98.708       56.081     7512.934     9743.326     3145.134        1.498        1.020       86.982       71.060        0.667      335.832        6.727      864.903
01/12/2015  07:18:00       65.120      -21.967       30.649       46.294      110.381       50.554     2143.126    12183.904     2555.693        1.127        0.844       68.726       59.230        0.743      335.829        6.722      864.901
01/12/2015  07:19:00      125.103       80.897       58.903       46.621       45.759       47.636     2173.489     2093.892     2269.194        1.610        0.327      148.980       31.630        0.045      335.758        6.604      864.915
01/12/2015  07:20:00      175.821       68.941       31.712       84.538       70.178       65.138     7146.661     4924.938     4242.960        2.649        0.816      188.854       51.336        0.074      335.752        6.593      864.920
01/12/2015  07:21:00       79.191       90.193       84.868       80.933       90.751       76.417     6550.142     8235.699     5839.567        2.111        1.031      120.024       69.806        0.338      335.717        6.537      864.915
01/12/2015  07:22:00       81.057      129.733      131.400       74.583       65.563       55.900     5562.594     4298.464     3124.806        2.682        0.649      152.974       50.229        0.108      335.722        6.543      864.903
01/12/2015  07:23:00       99.472      123.842       93.206       74.092       59.820       49.041     5489.567     3578.446     2405.065        2.269        0.574      158.844       43.739        0.076      335.789        6.655      864.902
01/12/2015  07:24:00      152.690       54.701        4.488       70.617       72.348       56.797     4986.790     5234.175     3225.909        1.988        0.672      162.193       39.943        0.061      335.707        6.519      864.903
01/12/2015  07:25:00      151.108       59.562       17.974       70.924       45.751       51.169     5030.159     2093.119     2618.236        1.822        0.487      162.423       32.185        0.039      335.759        6.605      864.909
01/12/2015  07:26:00      111.814      109.466       82.842       49.345       37.187       39.420     2434.963     1382.836     1553.966        1.836        0.269      156.478       22.524        0.021      335.872        6.793      864.903
01/12/2015  07:27:00      108.707      114.109       71.046       44.533       36.222       49.907     1983.221     1312.048     2490.758        1.783        0.289      157.602       37.160        0.056      335.996        7.002      864.891
01/12/2015  07:28:00       73.160       69.462       64.201       45.841       44.460       34.882     2101.432     1976.672     1216.736        0.980        0.265      100.883       30.152        0.089      335.875        6.800      864.891
01/12/2015  07:29:00       66.082       34.554       52.600       42.793       31.622       29.824     1831.279      999.933      889.478        0.602        0.186       74.571       23.723        0.101      335.957        6.936      864.892
01/12/2015  07:30:00       50.821       39.074       60.216       60.283       40.234       26.147     3633.993     1618.766      683.663        0.683        0.297       64.106       30.729        0.230      335.998        7.004      864.893
01/12/2015  07:31:00       -3.178       39.309       41.443       19.518       31.387       24.795      380.943      985.151      614.781        0.263        0.099       39.437       11.526        0.085      335.944        6.915      864.907
01/12/2015  07:32:00      -12.518       46.668        0.867       21.448       36.156       23.428      460.016     1307.287      548.887        0.233        0.116       48.317       20.964        0.188      335.936        6.902      864.920
01/12/2015  07:33:00      -29.874       66.065      -10.048       30.596       35.017       19.986      936.132     1226.197      399.441        0.396        0.128       72.506       20.242        0.078      335.908        6.856      864.928
01/12/2015  07:34:00      -27.544      107.594       -6.959       21.474       15.780       12.630      461.130      249.018      159.516        0.663        0.043      111.064        9.064        0.007      335.940        6.907      864.929
01/12/2015  07:35:00       18.958       76.339       -9.549       28.443       34.181        9.376      809.025     1168.352       87.912        0.417        0.103       78.658        5.428        0.005      336.042        7.076      864.931
01/12/2015  07:36:00       36.856       65.856       -8.786       22.511       27.876       17.312      506.728      777.082      299.712        0.368        0.079       75.467       16.460        0.048      335.911        6.861      864.941
01/12/2015  07:37:00       46.208       59.538       -8.002       23.530       28.755       17.298      553.684      826.872      299.218        0.371        0.084       75.365       17.152        0.052      335.876        6.803      864.943
01/12/2015  07:38:00       29.991       58.943       -7.872       19.284       24.699       13.426      371.870      610.045      180.245        0.280        0.058       66.135       12.929        0.038      335.933        6.896      864.945
01/12/2015  07:39:00       26.252       11.602       -0.469       20.125       21.695       10.545      405.015      470.691      111.204        0.091        0.049       28.702        7.807        0.074      335.984        6.980      864.949
01/12/2015  07:40:00       42.397        8.247       10.540       22.617       14.354       17.509      511.543      206.030      306.571        0.150        0.051       43.192       10.722        0.062      336.015        7.032      864.945
01/12/2015  07:41:00       52.366       23.751       -1.887       19.559       18.261       13.046      382.562      333.447      170.201        0.210        0.044       57.500       13.532        0.055      336.054        7.099      864.935
01/12/2015  07:42:00       50.688       34.223       23.131       31.461       16.757       15.576      989.777      280.791      242.622        0.289        0.076       61.159       12.742        0.043      336.030        7.057      864.942
01/12/2015  07:43:00       30.713       25.876        1.273       25.575       18.187       16.101      654.058      330.780      259.257        0.143        0.062       40.160       13.142        0.107      335.962        6.943      864.963
01/12/2015  07:44:00       15.941       42.523      -11.263       18.920       28.518        8.115      357.953      813.288       65.848        0.171        0.062       45.413       10.810        0.057      335.960        6.939      864.990
01/12/2015  07:45:00        5.607       91.685      -14.031       18.508       23.204        9.642      342.538      538.435       92.973        0.480        0.049       91.856        9.501        0.011      336.059        7.106      865.026
01/12/2015  07:46:00      -10.270       78.137       -4.020       17.323       29.847       15.826      300.077      890.818      250.447        0.383        0.072       78.809       17.199        0.048      336.053        7.095      865.058
01/12/2015  07:47:00      -16.220      114.680      -16.545       16.874       15.227       14.201      284.746      231.853      201.660        0.720        0.036      115.821        5.488        0.002      336.130        7.226      865.080
01/12/2015  07:48:00       -1.506      130.314      -18.997       14.150       20.664        9.482      200.217      426.982       89.909        0.903        0.036      130.323        3.216        0.001      336.033        7.063      865.105
01/12/2015  07:49:00       -2.085      108.395      -17.704       15.174       25.103       11.359      230.252      630.148      129.032        0.653        0.049      108.415       12.848        0.014      336.010        7.024      865.137
01/12/2015  07:50:00        9.048      152.124      -26.392       18.131       23.008       14.199      328.728      529.380      201.609        1.249        0.053      152.393       12.153        0.006      336.034        7.065      865.175
01/12/2015  07:51:00       18.939      138.542      -24.168       26.731       41.711       23.166      714.526     1739.775      536.656        1.156        0.150      139.830       23.317        0.028      335.996        6.999      865.211
01/12/2015  07:52:00       -5.027      114.533       -7.679       30.580       54.109       26.720      935.136     2927.735      713.945        0.889        0.229      114.643       33.376        0.085      336.023        7.046      865.235
01/12/2015  07:53:00       18.674       42.955       -1.022       23.431       38.665       22.685      549.011     1494.945      514.620        0.238        0.128       46.838       22.331        0.227      336.025        7.049      865.243
01/12/2015  07:54:00       -9.720       86.850      -10.439       19.400       24.719       14.793      376.373      611.012      218.837        0.448        0.060       87.392       11.338        0.017      336.047        7.087      865.261
01/12/2015  07:55:00      -19.520      105.224      -13.626       16.509       18.113       10.951      272.546      328.085      119.915        0.618        0.036      107.020        7.699        0.005      336.096        7.170      865.291
01/12/2015  07:56:00        2.584      119.595      -17.369        8.634       13.776        7.857       74.538      189.776       61.740        0.747        0.016      119.623        4.630        0.001      336.068        7.121      865.296
01/12/2015  07:57:00       37.247      117.373      -19.916       25.788       25.324       17.022      665.047      641.289      289.764        0.858        0.080      123.141       13.621        0.012      336.113        7.196      865.314
01/12/2015  07:58:00       37.751       77.318       -5.375       33.345       39.641       28.778     1111.873     1571.442      828.201        0.547        0.176       86.042       25.181        0.086      336.154        7.265      865.330
01/12/2015  07:59:00       37.163      110.078      -18.667       28.800       32.170       23.390      829.417     1034.930      547.115        0.813        0.121      116.182       20.178        0.030      336.065        7.118      865.351
01/12/2015  08:00:00       20.492      114.915       -8.846       30.488       56.742       26.276      929.512     3219.610      690.448        0.927        0.242      116.728       27.024        0.054      336.046        7.086      865.357
01/12/2015  08:01:00       24.025       71.809       -3.417       25.557       33.870       20.235      653.177     1147.152      409.455        0.398        0.110       75.721       15.534        0.042      336.079        7.139      865.341
01/12/2015  08:02:00       23.087       97.029      -18.096       20.449       28.945       14.408      418.144      837.838      207.595        0.587        0.073       99.738       12.259        0.015      336.091        7.161      865.348
01/12/2015  08:03:00       20.785       84.241       -5.544       29.271       38.183       24.307      856.800     1457.973      590.840        0.523        0.145       86.767       22.784        0.069      336.076        7.133      865.359
01/12/2015  08:04:00       38.541       49.427       -5.581       29.838       43.315       30.744      890.318     1876.147      945.214        0.383        0.186       62.677       25.525        0.166      336.170        7.291      865.365
01/12/2015  08:05:00       31.776       68.359       -9.841       43.605       51.937       21.929     1901.379     2697.431      480.902        0.543        0.254       75.383       19.112        0.064      336.447        7.756      865.378
01/12/2015  08:06:00       27.951       59.867       -6.123       28.801       40.623       21.853      829.474     1650.255      477.552        0.368        0.148       66.070       24.768        0.141      336.403        7.682      865.392
01/12/2015  08:07:00       27.978       60.238      -14.721       23.003       28.602       12.830      529.154      818.102      164.620        0.307        0.076       66.419       14.802        0.050      336.203        7.349      865.414
01/12/2015  08:08:00       28.933       79.293      -10.915       32.678       51.597       22.631     1067.861     2662.285      512.149        0.574        0.212       84.407       23.278        0.076      336.198        7.339      865.440
01/12/2015  08:09:00       14.958      142.159      -22.112       24.174       34.755       17.285      584.401     1207.894      298.760        1.151        0.105      142.944       18.015        0.016      336.297        7.504      865.467
01/12/2015  08:10:00      -35.886       95.810      -12.039       28.259       25.415       17.899      798.598      645.909      320.378        0.619        0.088      102.310       15.026        0.022      336.284        7.482      865.488
01/12/2015  08:11:00        3.455       78.513      -11.305       39.270       37.640       19.289     1542.144     1416.805      372.060        0.482        0.167       78.589       21.480        0.075      336.232        7.396      865.488
01/12/2015  08:12:00       29.989       91.942       -7.873       33.848       52.337       34.507     1145.682     2739.213     1190.729        0.724        0.254       96.710       33.645        0.121      336.248        7.423      865.490
01/12/2015  08:13:00       30.888       69.968       -1.832       29.168       34.279       25.523      850.791     1175.050      651.413        0.426        0.134       76.483       21.413        0.078      336.263        7.449      865.501
01/12/2015  08:14:00       18.383       48.886       -4.405       34.155       27.144       18.265     1166.574      736.799      333.627        0.249        0.112       52.228       21.034        0.162      336.271        7.461      865.521
01/12/2015  08:15:00       30.456       85.500      -13.178       24.459       30.897       25.384      598.256      954.638      644.341        0.530        0.110       90.763       23.616        0.068      336.326        7.553      865.548
01/12/2015  08:16:00       14.862       89.969       -5.705       34.037       47.592       29.047     1158.523     2264.992      843.741        0.631        0.213       91.188       31.605        0.120      336.316        7.535      865.569
01/12/2015  08:17:00        5.552      149.963      -25.281       23.167       39.195       19.949      536.718     1536.215      397.950        1.281        0.124      150.066       18.427        0.015      336.289        7.490      865.596
01/12/2015  08:18:00       -9.488       84.888      -10.576       25.443       44.668       21.791      647.352     1995.194      474.846        0.526        0.156       85.416       24.887        0.085      336.377        7.637      865.619
01/12/2015  08:19:00      -14.909       73.177       -1.902       29.322       67.823       24.685      859.788     4599.999      609.326        0.582        0.303       74.680       31.739        0.181      336.358        7.606      865.645
01/12/2015  08:20:00      -41.234      168.059      -17.747       28.551       38.288       20.180      815.156     1465.946      407.224        1.647        0.134      173.043       17.166        0.010      336.473        7.798      865.664
01/12/2015  08:21:00      -68.571      158.220      -16.777       50.644       49.705       31.893     2564.834     2470.574     1017.195        1.803        0.303      172.440       20.594        0.014      336.484        7.815      865.675
01/12/2015  08:22:00      -77.706       57.213      -18.827       23.928       26.463       15.085      572.567      700.310      227.550        0.558        0.075       96.496       13.735        0.020      336.523        7.882      865.687
01/12/2015  08:23:00      -95.998        8.247       -8.490       47.342       22.142       14.779     2241.242      490.257      218.431        0.615        0.147       96.352       19.393        0.041      336.519        7.875      865.693
01/12/2015  08:24:00      -95.138        7.323      -10.500       42.650       39.189       18.475     1819.057     1535.788      341.337        0.645        0.185       95.420       20.754        0.047      336.499        7.842      865.701
01/12/2015  08:25:00     -100.262       96.478      -29.289       29.475       35.616       20.861      868.796     1268.513      435.166        1.139        0.129      139.142       16.703        0.014      336.470        7.793      865.734
01/12/2015  08:26:00      -33.124        7.163       -1.623       26.989       28.323       13.811      728.410      802.171      190.750        0.144        0.086       33.890       15.587        0.212      336.509        7.859      865.758
01/12/2015  08:27:00      -37.484      -23.630        4.518       31.953       18.945       16.785     1020.993      358.912      281.735        0.182        0.083       44.310       15.698        0.126      336.602        8.014      865.753
01/12/2015  08:28:00      -76.843        1.852      -11.118       24.595       39.293       14.166      604.905     1543.960      200.689        0.419        0.117       76.865       12.021        0.024      336.556        7.937      865.788
01/12/2015  08:29:00      -39.429       23.250      -18.190       20.787       30.090       20.148      432.100      905.429      405.948        0.208        0.087       45.774       18.054        0.156      336.551        7.931      865.812
01/12/2015  08:30:00       -2.734       97.799       11.286       26.529       39.340       36.422      703.775     1547.665     1326.560        0.664        0.179       97.838       29.823        0.093      336.546        7.921      865.823
01/12/2015  08:31:00      -42.200      130.624      -19.075       32.611       57.743       16.103     1063.503     3334.219      259.294        1.193        0.233      137.271       18.936        0.019      336.553        7.933      865.855
01/12/2015  08:32:00      -29.271       94.460      -13.224       45.226       38.351       18.738     2045.421     1470.782      351.110        0.691        0.193       98.891       20.091        0.041      336.540        7.910      865.885
01/12/2015  08:33:00      -70.517      165.569      -22.658       40.871       76.897       29.711     1670.471     5913.169      882.717        2.068        0.423      179.960       31.817        0.031      336.479        7.807      865.908
01/12/2015  08:34:00      -46.534      196.134      -19.494       37.994       56.209       26.308     1443.524     3159.404      692.106        2.315        0.265      201.579       26.770        0.018      336.510        7.859      865.926
01/12/2015  08:35:00      -21.592      203.900      -32.987       36.124       41.267       20.236     1304.925     1702.954      409.504        2.327        0.171      205.041       16.699        0.007      336.479        7.805      865.940
01/12/2015  08:36:00      -37.209      163.273      -18.209       29.587       50.249       18.874      875.377     2525.011      356.226        1.606        0.188      167.459       22.913        0.019      336.556        7.938      865.956
01/12/2015  08:37:00      -47.022      145.737      -18.472       31.686       52.114       28.746     1004.009     2715.851      826.332        1.417        0.227      153.135       26.044        0.029      336.575        7.969      865.988
01/12/2015  08:38:00      -65.760      117.308      -15.224       37.298       42.021       24.904     1391.104     1765.753      620.216        1.105        0.189      134.482       21.842        0.026      336.586        7.988      866.009
01/12/2015  08:39:00      -41.530       71.342      -10.866       20.369       33.152       17.204      414.877     1099.034      295.989        0.437        0.090       82.550       13.665        0.027      336.577        7.974      866.036
01/12/2015  08:40:00      -52.041       89.923      -16.674       22.783       33.326       17.341      519.086     1110.615      300.705        0.650        0.097      103.896       11.001        0.011      336.636        8.072      866.057
01/12/2015  08:41:00      -43.028      109.808       -0.110       77.362       61.882       43.111     5984.891     3829.334     1858.526        1.279        0.584      117.937       30.186        0.066      336.597        8.006      866.062
01/12/2015  08:42:00        3.592      184.268      -20.329       44.151       72.405       38.405     1949.293     5242.456     1474.945        2.152        0.433      184.303       33.356        0.033      336.590        7.992      866.081
01/12/2015  08:43:00      -80.049      248.911      -35.015       42.718       50.448       31.891     1824.861     2544.999     1017.010        3.749        0.269      261.466       21.737        0.007      336.575        7.966      866.105
01/12/2015  08:44:00     -112.672       62.244      -11.311       65.244       47.724       33.938     4256.731     2277.609     1151.787        1.219        0.384      128.722       36.982        0.083      336.640        8.079      866.124
01/12/2015  08:45:00      -54.740       52.499       -3.698       46.040       54.463       30.646     2119.685     2966.180      939.182        0.589        0.301       75.846       26.589        0.123      336.652        8.100      866.120
01/12/2015  08:46:00      -72.958       52.984      -10.971       35.411       55.656       28.803     1253.943     3097.614      829.609        0.671        0.259       90.168       33.593        0.139      336.665        8.119      866.132
01/12/2015  08:47:00      -88.602      183.008      -29.425       43.565       45.936       34.414     1897.869     2110.105     1184.294        2.370        0.260      203.329       28.555        0.020      336.607        8.022      866.142
01/12/2015  08:48:00      -86.879       64.731       -5.564       46.556       44.838       30.202     2167.474     2010.478      912.165        0.843        0.255      108.342       29.059        0.072      336.648        8.093      866.140
01/12/2015  08:49:00      -92.723       91.861      -26.709       39.246       38.849       25.444     1540.262     1509.264      647.413        1.072        0.185      130.522       22.708        0.030      336.618        8.041      866.153
01/12/2015  08:50:00      -63.449      102.399      -15.897       45.778       56.467       30.259     2095.650     3188.564      915.588        1.048        0.310      120.463       31.298        0.068      336.693        8.167      866.179
01/12/2015  08:51:00      -66.843       78.794       -7.474       21.790       40.821       24.671      474.819     1666.350      608.678        0.674        0.137      103.327       11.642        0.013      336.671        8.130      866.193
01/12/2015  08:52:00      -16.375      105.493      -17.641       32.373       60.315       27.373     1047.986     3637.931      749.296        0.857        0.272      106.757       20.940        0.038      336.670        8.130      866.194
01/12/2015  08:53:00      -82.348      100.005      -18.598       48.844       39.909       23.836     2385.764     1592.693      568.137        1.084        0.227      129.546       24.758        0.037      336.766        8.287      866.197
01/12/2015  08:54:00      -77.099       89.362      -19.900       42.837       54.495       30.682     1834.981     2969.734      941.362        1.003        0.287      118.025       18.154        0.024      336.697        8.175      866.214
01/12/2015  08:55:00      -54.327      105.809       -8.081       48.233       49.344       25.446     2326.460     2434.817      647.515        0.981        0.270      118.941       21.947        0.034      336.784        8.319      866.237
01/12/2015  08:56:00      -42.150      144.536      -13.969       55.333       63.395       29.290     3061.703     4018.954      857.905        1.540        0.397      150.557       18.487        0.015      336.725        8.220      866.257
01/12/2015  08:57:00      -55.553      233.958      -31.348       55.577       91.558       32.273     3088.843     8382.917     1041.556        3.566        0.626      240.463       38.315        0.025      336.635        8.068      866.284
01/12/2015  08:58:00      -96.058      144.629      -23.426       64.415       80.434       37.640     4149.257     6469.693     1416.794        2.136        0.602      173.622       31.846        0.034      336.662        8.113      866.309
01/12/2015  08:59:00     -120.782      192.786      -30.968       62.336       90.959       47.060     3885.783     8273.509     2214.683        3.354        0.719      227.496       49.262        0.047      336.633        8.065      866.330
01/12/2015  09:00:00     -132.107      248.940      -40.067       74.745      117.127       48.919     5586.862    13718.791     2393.069        5.136        1.085      281.822       46.729        0.027      336.625        8.051      866.338
01/12/2015  09:01:00     -102.818      231.049      -27.123       57.963       91.556       42.223     3359.746     8382.446     1782.814        3.911        0.676      252.894       43.593        0.030      336.608        8.021      866.346
01/12/2015  09:02:00      -65.589      174.329      -19.006       63.300      112.720       39.307     4006.945    12705.708     1545.045        2.665        0.913      186.259       37.419        0.040      336.664        8.117      866.363
01/12/2015  09:03:00     -117.399      222.603      -35.118       51.787       81.115       44.201     2681.930     6579.707     1953.758        3.789        0.561      251.663       39.016        0.024      336.593        7.997      866.375
01/12/2015  09:04:00     -126.158      228.062      -35.791       82.727       73.854       42.380     6843.734     5454.362     1796.054        4.165        0.705      260.630       46.026        0.031      336.579        7.973      866.368
01/12/2015  09:05:00     -127.816      248.211      -28.561       67.273       76.242       48.919     4525.670     5812.866     2393.068        4.574        0.637      279.187       44.806        0.026      336.584        7.983      866.374
01/12/2015  09:06:00     -108.768      283.989      -39.860       70.074       91.881       45.546     4910.320     8442.095     2074.444        5.474        0.771      304.105       48.584        0.026      336.588        7.988      866.401
01/12/2015  09:07:00      -88.411      241.005      -24.780       70.643      122.172       43.833     4990.495    14926.114     1921.302        4.417        1.092      256.710       42.088        0.027      336.587        7.987      866.425
01/12/2015  09:08:00     -159.774      278.540      -32.479      118.134      114.800       62.077    13955.676    13179.102     3853.543        6.757        1.549      321.111       70.307        0.048      336.545        7.916      866.443
01/12/2015  09:09:00     -125.040      302.733      -38.297       86.146       74.096       42.250     7421.193     5490.254     1785.034        6.172        0.735      327.539       44.524        0.018      336.584        7.979      866.461
01/12/2015  09:10:00      -55.116      187.074      -19.270       72.146      133.958       46.340     5205.100    17944.792     2147.388        3.185        1.265      195.024       54.207        0.077      336.630        8.060      866.474
01/12/2015  09:11:00      -49.529      267.785      -43.315       44.970       63.454       33.753     2022.268     4026.401     1139.244        4.161        0.359      272.326       18.784        0.005      336.582        7.978      866.492
01/12/2015  09:12:00     -120.689      236.557      -29.628       81.720      106.317       45.349     6678.213    11303.313     2056.530        4.572        1.002      265.566       43.488        0.027      336.624        8.049      866.506
01/12/2015  09:13:00     -150.138      284.537      -34.173       79.656      111.794       48.543     6345.008    12497.984     2356.449        6.293        1.060      321.718       53.104        0.027      336.581        7.977      866.516
01/12/2015  09:14:00      -65.171      309.181      -30.402       81.058      113.454       48.840     6570.464    12871.720     2385.389        6.129        1.091      315.975       53.042        0.028      336.589        7.991      866.518
01/12/2015  09:15:00      -59.594      226.411      -21.102       78.674       94.375       53.959     6189.537     8906.547     2911.542        3.663        0.900      234.122       45.033        0.037      336.626        8.051      866.518
01/12/2015  09:16:00     -146.299      269.595      -35.963       72.355       91.146       52.812     5235.249     8307.640     2789.156        5.585        0.817      306.732       46.346        0.023      336.529        7.889      866.503
01/12/2015  09:17:00     -109.670      284.927      -34.435       83.800       97.094       53.304     7022.428     9427.283     2841.363        5.684        0.965      305.305       46.507        0.023      336.586        7.986      866.486
01/12/2015  09:18:00      -62.305      324.172      -35.629       66.341      116.131       59.855     4401.091    13486.481     3582.660        6.585        1.074      330.106       63.001        0.036      336.526        7.884      866.472
01/12/2015  09:19:00      -59.945      299.720      -51.679       77.427      114.799       41.785     5994.892    13178.750     1746.017        5.850        1.046      305.655       48.456        0.025      336.551        7.926      866.463
01/12/2015  09:20:00      -45.721      265.194      -16.451       72.006       98.026       58.256     5184.837     9609.101     3393.785        4.543        0.909      269.107       61.313        0.052      336.561        7.944      866.457
01/12/2015  09:21:00      -62.955      211.587      -11.693       67.852       82.032       44.524     4603.906     6729.296     1982.389        3.109        0.666      220.754       40.571        0.034      336.558        7.940      866.460
01/12/2015  09:22:00     -113.053      261.152      -26.443       86.119       86.944       45.586     7416.417     7559.336     2078.094        4.936        0.853      284.572       40.397        0.020      336.573        7.964      866.478
01/12/2015  09:23:00      -71.098      184.141      -26.609       81.199       63.559       44.751     6593.278     4039.699     2002.608        2.615        0.632      197.390       37.240        0.036      336.598        8.006      866.492
01/12/2015  09:24:00      -65.636      249.749      -24.169       58.269       77.148       43.001     3395.272     5951.848     1849.061        3.923        0.560      258.230       39.146        0.023      336.585        7.985      866.495
01/12/2015  09:25:00      -73.929      249.676      -19.945       80.116      101.221       51.886     6418.526    10245.655     2692.120        4.378        0.968      260.391       53.037        0.041      336.561        7.944      866.500
01/12/2015  09:26:00      -54.144      256.026      -32.137       55.745      153.554       44.206     3107.454    23578.736     1954.164        4.907        1.432      261.689       56.794        0.047      336.564        7.949      866.491
01/12/2015  09:27:00      -58.115      337.411      -37.026       73.479      135.846       48.509     5399.178    18454.014     2353.086        7.239        1.310      342.379       54.999        0.026      336.522        7.878      866.491
01/12/2015  09:28:00     -119.677      325.535      -34.023       78.457       91.358       46.937     6155.513     8346.280     2203.078        6.908        0.835      346.836       38.284        0.012      336.522        7.878      866.504
01/12/2015  09:29:00     -109.714      261.137      -28.363       82.266       94.338       54.035     6767.647     8899.608     2919.757        4.981        0.929      283.248       60.109        0.045      336.541        7.909      866.513
01/12/2015  09:30:00      -97.308      241.674      -16.155       75.643      122.524       49.498     5721.854    15012.013     2450.085        4.566        1.159      260.529       44.083        0.029      336.604        8.015      866.529
01/12/2015  09:31:00     -116.639      327.738      -36.376       88.075      114.130       48.781     7757.130    13025.717     2379.569        7.275        1.158      347.874       50.520        0.021      336.537        7.902      866.563
01/12/2015  09:32:00     -100.623      252.940      -30.588       82.803      140.559       49.119     6856.301    19756.839     2412.678        5.203        1.451      272.220       58.038        0.045      336.595        7.999      866.583
01/12/2015  09:33:00      -60.917      321.786      -31.945       55.663       79.417       39.178     3098.418     6306.990     1534.931        5.961        0.547      327.501       30.732        0.009      336.577        7.969      866.601
01/12/2015  09:34:00     -102.161      191.958      -24.068       76.217      100.428       43.621     5809.077    10085.807     1902.829        3.283        0.890      217.450       42.197        0.038      336.640        8.075      866.618
01/12/2015  09:35:00     -135.784      151.220      -25.983       95.723       87.477       50.534     9162.825     7652.280     2553.699        3.067        0.968      203.236       50.748        0.062      336.618        8.041      866.635
01/12/2015  09:36:00      -64.755      210.283      -24.943       59.165       88.456       37.960     3500.550     7824.511     1440.940        3.090        0.638      220.028       36.246        0.027      336.658        8.108      866.650
01/12/2015  09:37:00     -108.821      230.837      -29.098       82.549       98.982       34.736     6814.348     9797.356     1206.619        4.189        0.891      255.201       14.068        0.003      336.627        8.053      866.656
01/12/2015  09:38:00      -82.136      189.019      -21.502       96.008      123.595       41.736     9217.518    15275.796     1741.920        3.458        1.312      206.093       45.529        0.049      336.668        8.122      866.675
01/12/2015  09:39:00     -104.138      245.196      -32.033       87.999      143.481       52.565     7743.901    20586.817     2763.039        5.154        1.555      266.394       62.067        0.054      336.664        8.117      866.710
01/12/2015  09:40:00     -143.050      316.362      -37.955      100.077      109.908       52.810    10015.331    12079.804     2788.872        7.343        1.244      347.201       48.054        0.019      336.625        8.050      866.737
01/12/2015  09:41:00     -104.193      167.380      -11.495       87.316      146.819       55.258     7624.106    21555.922     3053.393        3.561        1.612      197.160       42.184        0.046      336.737        8.240      866.735
01/12/2015  09:42:00      -81.247      229.665      -28.238       86.616      149.999       60.843     7502.330    22499.805     3701.820        4.692        1.685      243.613       71.871        0.087      336.712        8.196      866.746
01/12/2015  09:43:00     -135.239      237.523      -40.955       78.883      125.936       49.106     6222.576    15859.812     2411.399        5.043        1.225      273.325       51.049        0.035      336.619        8.039      866.748
01/12/2015  09:44:00     -163.602      231.223      -40.103       85.508      107.277       61.078     7311.593    11508.384     3730.549        5.219        1.128      283.248       54.825        0.037      336.616        8.035      866.764
01/12/2015  09:45:00      -90.773      245.148      -18.233       91.894      148.692       60.686     8444.543    22109.388     3682.742        5.145        1.712      261.414       68.023        0.068      336.621        8.045      866.765
01/12/2015  09:46:00     -145.357      294.679      -36.729       93.864      119.393       65.025     8810.420    14254.635     4228.237        6.830        1.365      328.580       73.111        0.050      336.566        7.952      866.769
01/12/2015  09:47:00     -133.270      328.415      -37.656       74.157      153.394       59.400     5499.236    23529.711     3528.407        7.979        1.628      354.425       54.844        0.024      336.564        7.947      866.770
01/12/2015  09:48:00     -129.915      228.946      -31.729       82.055      145.211       48.279     6733.011    21086.316     2330.901        5.022        1.508      263.237       65.464        0.062      336.566        7.951      866.783
01/12/2015  09:49:00      -83.815      210.457      -21.378       67.536       98.041       45.609     4561.160     9612.101     2080.156        3.401        0.813      226.533       51.688        0.052      336.660        8.108      866.797
01/12/2015  09:50:00     -116.397       70.832        0.252      122.205      104.138       53.561    14933.949    10844.655     2868.822        2.360        1.432      136.255       54.498        0.160      336.703        8.182      866.802
01/12/2015  09:51:00      -81.889       77.227      -17.022       69.002       73.947       41.903     4761.282     5468.136     1755.879        1.247        0.599      112.560       40.540        0.130      336.707        8.190      866.804
01/12/2015  09:52:00     -127.127      187.699      -29.183       85.741       81.482       39.030     7351.450     6639.351     1523.346        3.388        0.776      226.699       43.975        0.038      336.639        8.075      866.808
01/12/2015  09:53:00      -52.171      151.972      -17.644       65.596      128.407       52.590     4302.852    16488.302     2765.668        2.484        1.178      160.678       57.762        0.129      336.706        8.185      866.809
01/12/2015  09:54:00     -145.271      227.162      -38.368       75.036      126.848       45.474     5630.431    16090.389     2067.895        4.898        1.189      269.640       40.168        0.022      336.603        8.013      866.812
01/12/2015  09:55:00     -162.439      249.351      -38.597      103.366       97.751       52.244    10684.524     9555.205     2729.463        5.651        1.148      297.594       52.452        0.031      336.600        8.009      866.827
01/12/2015  09:56:00     -194.035      193.511      -51.305       72.182       90.480       43.207     5210.265     8186.720     1866.877        4.649        0.763      274.036       40.919        0.022      336.552        7.926      866.824
01/12/2015  09:57:00     -108.507      191.731      -36.065       87.713       54.071       36.775     7693.507     2923.664     1352.412        3.090        0.598      220.306       33.723        0.023      336.630        8.058      866.823
01/12/2015  09:58:00      -71.306      197.171      -18.170       57.450      100.296       43.926     3300.526    10059.268     1929.462        2.979        0.764      209.668       36.880        0.031      336.639        8.073      866.829
01/12/2015  09:59:00     -118.283      341.371      -31.588       79.180      151.576       50.707     6269.521    22975.316     2571.206        8.166        1.591      361.282       46.626        0.017      336.522        7.876      866.832
01/12/2015  10:00:00     -108.102      280.296      -31.254       73.006       88.046       41.809     5329.846     7752.077     1747.958        5.303        0.741      300.420       39.439        0.017      336.554        7.930      866.844
01/12/2015  10:01:00      -84.085      193.981      -28.599       63.528       86.965       35.578     4035.749     7562.901     1265.783        2.919        0.643      211.422       30.446        0.021      336.646        8.087      866.854
01/12/2015  10:02:00     -103.878      195.424      -21.336       60.712      110.425       41.132     3685.968    12193.622     1691.809        3.350        0.879      221.317       38.249        0.030      336.630        8.057      866.876
01/12/2015  10:03:00     -100.144      289.913      -21.922       68.161      136.729       52.274     4645.865    18694.773     2732.578        6.031        1.304      306.722       58.565        0.036      336.578        7.972      866.905
01/12/2015  10:04:00      -99.812      330.052      -40.713      101.783      107.009       59.263    10359.702    11451.006     3512.082        7.293        1.266      344.814       57.929        0.028      336.531        7.892      866.933
01/12/2015  10:05:00     -118.150      184.707      -23.232       74.298       85.213       56.375     5520.132     7261.308     3178.102        3.228        0.798      219.262       53.731        0.060      336.600        8.009      866.953
01/12/2015  10:06:00     -122.048      144.851      -21.197       88.549       76.199       50.634     7840.874     5806.288     2563.760        2.627        0.811      189.414       53.619        0.080      336.603        8.014      866.968
01/12/2015  10:07:00     -125.486      105.328       -7.108       77.219       48.876       54.700     5962.768     2388.822     2992.069        1.912        0.567      163.831       43.844        0.072      336.647        8.088      866.981
01/12/2015  10:08:00      -39.428       93.976       -5.807       39.977       48.162       28.533     1598.145     2319.571      814.159        0.757        0.237      101.912       31.252        0.094      336.717        8.208      866.993
01/12/2015  10:09:00      -44.881      217.242       -2.006       64.200       89.152       59.601     4121.693     7948.048     3552.339        3.241        0.781      221.830       47.533        0.046      336.669        8.123      867.009
01/12/2015  10:10:00     -112.022      118.069      -13.349       82.694       79.320       40.682     6838.336     6291.604     1655.050        2.072        0.739      162.755       38.118        0.055      336.647        8.091      867.008
01/12/2015  10:11:00      -68.960      244.592      -27.869       77.127      104.409       39.298     5948.642    10901.147     1544.351        4.187        0.920      254.127       39.483        0.024      336.621        8.044      867.027
01/12/2015  10:12:00      -34.653      213.764      -27.331       55.347      107.716       42.246     3063.273    11602.639     1784.694        3.204        0.823      216.554       52.954        0.060      336.646        8.087      867.008
01/12/2015  10:13:00      -78.489      237.321      -24.872       59.008       83.517       42.910     3481.896     6975.117     1841.229        3.770        0.615      249.964       39.456        0.025      336.603        8.012      866.983
01/12/2015  10:14:00      -88.209      177.164      -34.903       90.078       62.196       29.843     8114.051     3868.370      890.581        2.663        0.644      197.909       23.692        0.014      336.663        8.114      866.955
01/12/2015  10:15:00        7.728       62.174       -2.420       51.559       40.278       31.686     2658.291     1622.329     1003.998        0.461        0.264       62.653       26.830        0.183      336.728        8.225      866.930
01/12/2015  10:16:00      -19.870      169.258      -10.472       50.292       80.357       43.738     2529.291     6457.210     1912.996        2.002        0.545      170.420       37.753        0.049      336.651        8.095      866.906
01/12/2015  10:17:00     -111.520      166.181      -33.338       72.962       70.943       42.135     5323.474     5032.855     1775.321        2.665        0.607      200.132       39.782        0.040      336.643        8.082      866.897
01/12/2015  10:18:00      -59.044      167.235      -19.350       65.418       79.245       40.343     4279.476     6279.718     1627.539        2.200        0.609      177.352       34.261        0.037      336.665        8.119      866.902
01/12/2015  10:19:00      -61.520      194.827      -15.875       53.905       57.006       36.957     2905.730     3249.646     1365.791        2.476        0.376      204.310       35.496        0.030      336.680        8.143      866.899
01/12/2015  10:20:00      -32.368      163.537       -7.260       51.769      102.217       39.713     2680.021    10448.404     1577.143        2.127        0.735      166.710       51.465        0.095      336.714        8.201      866.890
01/12/2015  10:21:00      -31.857      201.539      -33.747       62.431       56.131       24.083     3897.583     3150.639      579.998        2.520        0.381      204.041       16.911        0.007      336.636        8.069      866.872
01/12/2015  10:22:00      -82.638      212.485      -27.188       39.688       90.565       28.740     1575.131     8201.942      825.997        3.166        0.530      227.989       28.571        0.016      336.643        8.080      866.868
01/12/2015  10:23:00     -112.947      258.838      -31.580       98.500       97.881       47.406     9702.278     9580.697     2247.333        5.114        1.077      282.408       53.152        0.035      336.637        8.071      866.851
01/12/2015  10:24:00      -40.936      216.524      -19.781       62.665       84.182       44.566     3926.852     7086.529     1986.099        3.097        0.650      220.360       47.659        0.047      336.693        8.165      866.831
01/12/2015  10:25:00      -16.401      198.078      -20.725       45.409       73.636       34.825     2061.976     5422.270     1212.795        2.431        0.435      198.755       32.678        0.027      336.686        8.153      866.811
01/12/2015  10:26:00      -14.631      191.690      -11.723       72.540       78.829       48.250     5262.039     6214.009     2328.090        2.545        0.690      192.247       53.151        0.076      336.732        8.231      866.793
01/12/2015  10:27:00      -40.244      144.422        0.328       75.354       88.435       47.676     5678.261     7820.834     2273.004        1.912        0.789      149.925       55.221        0.136      336.741        8.245      866.785
01/12/2015  10:28:00       21.982      208.729      -15.786       76.687      124.396       64.596     5880.905    15474.359     4172.609        3.491        1.276      209.884       72.990        0.121      336.735        8.234      866.763
01/12/2015  10:29:00     -107.187      240.934      -35.543       61.143       79.464       39.004     3738.476     6314.448     1521.329        4.119        0.579      263.701       30.882        0.014      336.648        8.088      866.773
01/12/2015  10:30:00      -67.323      131.162      -16.004       79.772       55.061       32.177     6363.580     3031.704     1035.336        1.621        0.522      147.431       36.744        0.062      336.782        8.314      866.739
01/12/2015  10:31:00        4.307      116.844       -7.444       60.987       60.697       47.533     3719.456     3684.149     2259.387        1.169        0.483      116.923       43.260        0.137      336.816        8.372      866.722
01/12/2015  10:32:00        5.609      163.365      -18.340       67.585       59.658       36.745     4567.713     3559.069     1350.218        1.826        0.474      163.461       32.917        0.041      336.750        8.262      866.706
01/12/2015  10:33:00      -25.161      198.779      -17.794       59.152       81.897       48.913     3498.972     6707.059     2392.462        2.653        0.630      200.365       44.651        0.050      336.767        8.288      866.708
01/12/2015  10:34:00     -135.641      248.479      -35.410       88.116       76.364       49.661     7764.503     5831.421     2466.262        4.872        0.803      283.090       45.958        0.026      336.731        8.227      866.723
01/12/2015  10:35:00      -50.332      249.335      -20.972       75.730       74.141       43.751     5735.001     5496.905     1914.148        3.914        0.657      254.364       33.917        0.018      336.714        8.199      866.717
01/12/2015  10:36:00     -105.503      241.589      -30.286       64.195       80.151       49.989     4121.014     6424.157     2498.949        4.173        0.652      263.621       40.416        0.024      336.734        8.232      866.686
01/12/2015  10:37:00      -66.669      240.809      -29.007       52.001       77.378       33.130     2704.055     5987.384     1097.609        3.653        0.489      249.868       34.571        0.019      336.728        8.221      866.658
01/12/2015  10:38:00      -81.741      191.276      -25.945       65.001       59.456       38.540     4225.165     3535.023     1485.329        2.659        0.462      208.010       40.077        0.037      336.757        8.271      866.633
01/12/2015  10:39:00      -65.901      211.629      -23.517       44.033       75.778       36.051     1938.922     5742.340     1299.695        2.933        0.449      221.652       38.482        0.030      336.821        8.377      866.620
01/12/2015  10:40:00      -55.538      226.052      -28.177       53.059       53.521       30.401     2815.239     2864.507      924.247        3.079        0.330      232.775       27.832        0.014      336.676        8.135      866.608
01/12/2015  10:41:00       -5.749      182.013      -18.622       36.507       98.088       35.672     1332.741     9621.242     1272.489        2.287        0.611      182.104       44.647        0.060      336.799        8.342      866.590
01/12/2015  10:42:00      -59.488      271.750      -15.120       52.683       77.777       40.717     2775.539     6049.283     1657.886        4.405        0.524      278.185       35.238        0.016      336.792        8.328      866.574
01/12/2015  10:43:00      -18.769      135.465       -9.603       39.745       72.399       37.835     1579.702     5241.660     1431.510        1.352        0.413      136.759       37.295        0.074      336.949        8.593      866.569
01/12/2015  10:44:00        6.758      288.376      -25.435       44.425       85.535       40.077     1973.598     7316.244     1606.160        4.737        0.545      288.455       36.085        0.016      336.688        8.155      866.531
01/12/2015  10:45:00        1.356      194.712      -25.893       47.424       64.517       33.322     2249.037     4162.457     1110.345        2.305        0.376      194.717       22.398        0.013      336.788        8.324      866.530
01/12/2015  10:46:00       27.171      174.718      -14.978       43.813       80.094       42.477     1919.574     6414.988     1804.317        2.081        0.507      176.818       46.532        0.069      336.782        8.314      866.531
01/12/2015  10:47:00       41.698       69.873        7.181       80.368       50.920       40.761     6458.975     2592.815     1661.493        0.869        0.536       81.370       23.524        0.084      336.978        8.642      866.532
01/12/2015  10:48:00       16.636       53.968       -5.015       53.711       35.265       30.888     2884.904     1243.611      954.072        0.415        0.254       56.473       20.710        0.134      337.065        8.787      866.541
01/12/2015  10:49:00        1.042       97.411       11.324       51.086       82.674       46.894     2609.817     6834.981     2199.018        1.063        0.582       97.416       43.402        0.198      337.267        9.125      866.552
01/12/2015  10:50:00       33.921       86.681       -5.898       37.101       72.684       44.296     1376.451     5282.941     1962.176        0.866        0.431       93.082       49.517        0.283      337.107        8.858      866.561
01/12/2015  10:51:00       -3.446       72.718        3.880       35.406       86.988       40.373     1253.561     7566.855     1630.018        0.788        0.523       72.800       50.964        0.490      337.231        9.066      866.555
01/12/2015  10:52:00      -58.495      184.168      -22.709       60.126       56.680       34.920     3615.164     3212.618     1219.399        2.295        0.402      193.235       32.919        0.029      336.982        8.647      866.549
01/12/2015  10:53:00       29.652      102.984        6.965       57.172       56.788       48.887     3268.636     3224.840     2389.940        1.021        0.444      107.168       41.669        0.151      337.149        8.929      866.532
01/12/2015  10:54:00       21.301      100.135        5.490       68.773       70.530       46.470     4729.749     4974.444     2159.422        1.119        0.593      102.375       40.090        0.153      337.289        9.161      866.522
01/12/2015  10:55:00       50.264      146.985       10.008       91.437       96.762       61.817     8360.719     9362.817     3821.374        2.288        1.077      155.342       58.323        0.141      337.132        8.897      866.509
01/12/2015  10:56:00      -92.189      110.139      -18.981       66.950       60.359       35.242     4482.286     3643.268     1242.027        1.518        0.468      143.630       38.943        0.074      337.172        8.966      866.531
01/12/2015  10:57:00      -88.645      119.593      -24.245       43.446       64.561       32.872     1887.596     4168.077     1080.571        1.494        0.357      148.864       26.303        0.031      337.082        8.817      866.545
01/12/2015  10:58:00      -91.609      192.690      -20.530       61.467       82.023       46.470     3778.194     6727.842     2159.455        2.930        0.633      213.358       48.227        0.051      337.085        8.818      866.552
01/12/2015  10:59:00      -10.743      141.042       -6.507       56.979       76.038       35.670     3246.620     5781.791     1272.330        1.517        0.515      141.450       42.352        0.090      337.311        9.198      866.570
01/12/2015  11:00:00        4.709      246.659      -37.819       40.421       99.320       40.602     1633.892     9864.559     1648.495        3.772        0.657      246.704       48.953        0.039      337.085        8.819      866.570
01/12/2015  11:01:00       13.978      103.819        2.904       75.258       81.432       45.597     5663.804     6631.164     2079.046        1.268        0.719      104.756       48.628        0.215      337.336        9.240      866.565
01/12/2015  11:02:00      -58.157      160.293      -13.677       64.321       75.229       44.020     4137.221     5659.347     1937.769        2.050        0.587      170.517       44.834        0.069      337.384        9.321      866.572
01/12/2015  11:03:00      -59.125      128.453      -16.624       48.520       73.211       30.725     2354.210     5359.906      944.045        1.446        0.433      141.406       22.308        0.025      337.355        9.272      866.571
01/12/2015  11:04:00      -99.002      189.286      -27.660       71.419       81.305       43.548     5100.648     6610.532     1896.392        3.000        0.680      213.613       49.181        0.053      337.300        9.178      866.562
01/12/2015  11:05:00     -119.371      167.899      -27.957       78.612       67.316       49.661     6179.829     4531.483     2466.196        2.820        0.659      206.008       41.502        0.041      337.216        9.038      866.549
01/12/2015  11:06:00      -16.708      137.720       -4.706       61.989       86.638       44.646     3842.590     7506.183     1993.236        1.630        0.667      138.729       44.073        0.101      337.489        9.495      866.551
01/12/2015  11:07:00        5.596      157.576       -7.353       67.563       97.089       57.131     4564.817     9426.323     3263.912        2.108        0.863      157.676       59.042        0.140      337.374        9.304      866.528
01/12/2015  11:08:00      -18.271      141.795       10.331       83.957      102.178       64.820     7048.732    10440.404     4201.673        2.111        1.085      142.967       60.986        0.182      337.456        9.443      866.524
01/12/2015  11:09:00       22.851      289.496      -21.310       74.840      125.777       63.193     5601.039    15819.884     3993.374        5.509        1.271      290.396       70.138        0.058      337.071        8.793      866.504
01/12/2015  11:10:00       39.560      216.610       -8.057       73.086      106.522       61.727     5341.568    11346.838     3810.214        3.452        1.025      220.192       68.276        0.096      337.127        8.889      866.484
01/12/2015  11:11:00       -4.108      216.177      -18.184      101.354      106.493       69.715    10272.688    11340.774     4860.224        3.677        1.324      216.216       64.664        0.089      337.251        9.097      866.458
01/12/2015  11:12:00      -54.360      239.758      -22.502       52.246       98.750       32.117     2729.636     9751.544     1031.487        3.723        0.676      245.843       33.029        0.018      337.157        8.940      866.453
01/12/2015  11:13:00       41.680      260.089      -23.077       74.463      124.647       66.781     5544.746    15536.856     4459.658        4.772        1.277      263.407       71.570        0.074      337.305        9.188      866.433
01/12/2015  11:14:00       28.384      192.634      -10.989       80.924       92.152       66.667     6548.727     8492.077     4444.534        2.876        0.974      194.714       61.936        0.101      337.302        9.182      866.431
01/12/2015  11:15:00       33.341      168.179       -8.387       54.876      120.946       54.199     3011.388    14627.973     2937.497        2.502        1.029      171.452       61.316        0.128      337.203        9.015      866.438
01/12/2015  11:16:00       20.746      232.257      -23.423       66.365      178.366       51.849     4404.312    31814.571     2688.330        4.691        1.945      233.181       74.416        0.102      337.141        8.913      866.417
01/12/2015  11:17:00      -19.442      199.096      -21.777       95.020      126.078       62.783     9028.894    15895.783     3941.709        3.467        1.443      200.043       61.576        0.095      337.360        9.281      866.411
01/12/2015  11:18:00       14.358      197.534      -15.526       72.705      102.811       51.759     5286.004    10570.018     2679.024        2.900        0.927      198.055       51.682        0.068      337.440        9.413      866.397
01/12/2015  11:19:00      -71.880      349.684      -36.089       78.987      117.450       51.871     6238.977    13794.480     2690.608        7.573        1.136      356.995       53.087        0.022      337.201        9.012      866.386
01/12/2015  11:20:00      -18.163      306.241      -41.425       37.659      113.021       40.180     1418.198    12773.708     1614.412        5.582        0.790      306.779       52.708        0.030      337.082        8.815      866.381
01/12/2015  11:21:00      -76.389      239.910      -22.341       50.266      119.250       44.434     2526.637    14220.446     1974.396        4.130        0.936      251.778       46.957        0.035      337.320        9.213      866.387
01/12/2015  11:22:00     -122.107      272.303      -27.989       58.116       66.589       40.645     3377.444     4434.043     1651.995        4.965        0.473      298.428       35.040        0.014      337.021        8.710      866.392
01/12/2015  11:23:00     -147.428      319.940      -47.154       67.927       92.329       42.108     4614.140     8524.728     1773.043        7.061        0.746      352.273       41.962        0.014      337.039        8.739      866.385
01/12/2015  11:24:00      -68.369      229.164      -23.286       93.622       81.950       47.288     8765.125     6715.735     2236.190        3.772        0.886      239.145       47.896        0.040      337.259        9.109      866.388
01/12/2015  11:25:00      -51.564      174.590      -15.345       52.781      142.837       38.481     2785.816    20402.494     1480.778        2.902        1.233      182.046       47.954        0.069      337.311        9.197      866.383
01/12/2015  11:26:00      -79.039      248.139      -24.615       59.880       73.251       38.983     3585.607     5365.643     1519.696        3.945        0.524      260.423       31.248        0.014      337.131        8.895      866.361
01/12/2015  11:27:00      -62.974      178.303      -28.210       59.081       68.628       32.158     3490.611     4709.750     1034.144        2.289        0.462      189.097       19.804        0.011      337.142        8.915      866.345
01/12/2015  11:28:00      -65.927      158.581      -20.436       47.143       74.815       33.798     2222.492     5597.217     1142.291        1.944        0.448      171.739       27.098        0.025      337.208        9.026      866.329
01/12/2015  11:29:00      -38.489      220.199      -19.125       49.519       77.121       38.392     2452.172     5947.595     1473.913        3.010        0.494      223.537       36.594        0.027      337.200        9.011      866.326
01/12/2015  11:30:00     -101.592      158.150      -16.479       43.433       78.248       34.803     1886.441     6122.753     1211.282        2.241        0.461      187.969       32.351        0.030      337.314        9.203      866.311
01/12/2015  11:31:00     -137.595      147.090      -31.761       72.965       65.534       44.107     5323.913     4294.759     1945.407        2.657        0.578      201.415       46.569        0.053      337.118        8.873      866.320
01/12/2015  11:32:00      -81.685      118.425      -17.245       58.864       53.002       34.572     3464.951     2809.229     1195.215        1.423        0.373      143.864       29.520        0.042      337.062        8.781      866.302
01/12/2015  11:33:00       24.092      138.433        0.890       45.799       91.336       47.115     2097.514     8342.315     2219.845        1.620        0.633      140.514       51.277        0.133      337.107        8.856      866.288
01/12/2015  11:34:00      -63.509      185.416      -25.227       59.020       77.406       31.971     3483.310     5991.660     1022.156        2.477        0.525      195.991       34.649        0.031      337.044        8.749      866.251
01/12/2015  11:35:00      -93.801      189.269      -18.259       64.908       72.664       38.887     4213.071     5280.046     1512.170        2.798        0.550      211.238       40.885        0.037      337.223        9.049      866.223
01/12/2015  11:36:00        4.179      179.360      -18.053       45.328       49.718       37.767     2054.642     2471.866     1426.379        1.923        0.298      179.408       26.651        0.022      337.183        8.984      866.193
01/12/2015  11:37:00       32.164      105.872       -0.176      101.902       61.335       51.398    10384.045     3761.984     2641.712        1.451        0.839      110.650       38.238        0.119      337.193        9.000      866.143
01/12/2015  11:38:00       10.085      245.636      -36.769       62.769      126.480       42.233     3940.006    15997.178     1783.617        4.175        1.086      245.842       50.798        0.043      337.064        8.784      866.116
01/12/2015  11:39:00      -54.522      161.357      -12.805       52.138       78.505       43.464     2718.321     6162.964     1889.090        1.997        0.539      170.320       44.695        0.069      337.205        9.021      866.116
01/12/2015  11:40:00       -0.967      297.720      -33.757       53.797      109.706       50.408     2894.143    12035.516     2540.965        5.362        0.874      297.722       56.119        0.036      337.022        8.714      866.088
01/12/2015  11:41:00       -4.976      264.009      -35.427       45.738       51.765       28.276     2091.984     2679.607      799.517        3.828        0.279      264.056       23.527        0.008      336.942        8.575      866.058
01/12/2015  11:42:00       19.339      169.486       -9.920       61.646       94.843       50.912     3800.185     8995.270     2591.981        2.229        0.769      170.586       53.244        0.097      337.010        8.693      866.039
01/12/2015  11:43:00       23.035      129.378        0.049       84.451       78.929       47.374     7132.019     6229.795     2244.252        1.644        0.780      131.413       53.895        0.168      337.011        8.695      866.045
01/12/2015  11:44:00      -35.192      160.556      -10.974       41.664       55.749       31.783     1735.923     3107.939     1010.142        1.649        0.293      164.368       35.403        0.046      336.956        8.606      866.065
01/12/2015  11:45:00        1.876      213.314      -26.782       42.598       66.131       28.535     1814.578     4373.351      814.271        2.661        0.350      213.322       28.674        0.018      336.914        8.532      866.075
01/12/2015  11:46:00       -2.575       83.275       -3.602       35.952       53.824       31.993     1292.540     2897.068     1023.552        0.608        0.261       83.315       29.395        0.124      337.059        8.777      866.070
01/12/2015  11:47:00      -42.434      137.792      -17.913       59.335       54.918       39.206     3520.618     3016.004     1537.089        1.459        0.404      144.178       24.340        0.028      337.083        8.816      866.068
01/12/2015  11:48:00      -29.231      170.297      -23.501       57.230       64.855       46.377     3275.304     4206.209     2150.871        2.002        0.482      172.788       36.747        0.045      337.136        8.904      866.063
01/12/2015  11:49:00       10.372      186.310      -25.453       88.233       93.444       44.964     7785.048     8731.760     2021.768        2.700        0.927      186.599       45.938        0.061      337.061        8.778      866.047
01/12/2015  11:50:00       21.061      144.351      -15.984       54.727       55.311       38.820     2995.036     3059.294     1507.026        1.455        0.378      145.880       30.956        0.045      337.111        8.863      866.046
01/12/2015  11:51:00       94.704       79.652       18.399       69.246       62.292       53.788     4794.957     3880.339     2893.165        1.361        0.578      123.747       36.434        0.087      337.129        8.894      866.041
01/12/2015  11:52:00       20.439      186.454      -19.751       63.540      107.367       53.050     4037.318    11527.762     2814.288        2.697        0.919      187.571       55.962        0.089      337.102        8.849      866.061
01/12/2015  11:53:00       30.162      232.128      -26.386       51.243       68.808       37.784     2625.807     4734.561     1427.665        3.214        0.439      234.079       42.758        0.033      336.948        8.587      866.063
01/12/2015  11:54:00       25.974      120.342       -6.358       46.361       70.514       34.708     2149.304     4972.170     1204.664        1.176        0.416      123.113       33.129        0.072      337.133        8.899      866.070
01/12/2015  11:55:00       47.481      114.842        3.354       65.100       66.905       68.066     4238.029     4476.267     4632.941        1.440        0.667      124.270       51.919        0.175      337.126        8.889      866.061
01/12/2015  11:56:00       20.190       90.425       -0.622       50.721       69.556       44.509     2572.663     4838.041     1981.077        0.899        0.470       92.652       37.690        0.165      337.148        8.926      866.057
01/12/2015  11:57:00       -6.306      179.421      -31.594       40.793       51.326       25.776     1664.067     2634.354      664.381        1.910        0.248      179.532       32.057        0.032      337.051        8.761      866.041
01/12/2015  11:58:00      -60.152      174.690      -22.747       43.154       77.149       28.884     1862.306     5952.021      834.259        2.165        0.432      184.756       31.539        0.029      337.219        9.042      866.027
01/12/2015  11:59:00       44.178      177.916      -13.347       62.422       88.186       53.653     3896.454     7776.792     2878.678        2.417        0.728      183.318       54.420        0.088      337.140        8.910      866.000
01/12/2015  12:00:00       46.163      302.462      -45.975       51.765      102.741       46.406     2679.608    10555.702     2153.555        5.556        0.769      305.965       50.615        0.027      337.095        8.833      865.978
01/12/2015  12:01:00       34.143      139.319       -9.320       63.418      107.419       54.159     4021.809    11538.923     2933.184        1.958        0.925      143.442       60.939        0.180      337.238        9.076      865.950
01/12/2015  12:02:00       93.771      139.658      -29.098       44.336      101.214       39.904     1965.667    10244.313     1592.332        2.147        0.690      168.218       43.426        0.067      337.131        8.894      865.915
01/12/2015  12:03:00       50.375       86.773       -7.015       63.088       40.851       33.148     3980.078     1668.812     1098.797        0.843        0.337      100.336       26.569        0.070      337.381        9.318      865.903
01/12/2015  12:04:00       45.367      158.012      -24.759       53.604       76.345       44.189     2873.337     5828.621     1952.679        1.915        0.533      164.396       45.578        0.077      337.324        9.221      865.887
01/12/2015  12:05:00       43.361      115.504       12.779       57.730       81.668       55.645     3332.706     6669.740     3096.343        1.424        0.655      123.375       54.139        0.193      337.404        9.353      865.861
01/12/2015  12:06:00       59.972      138.900        3.511       78.825       85.211       70.386     6213.368     7260.958     4954.158        2.066        0.921      151.294       62.613        0.171      337.348        9.261      865.842
01/12/2015  12:07:00       45.263      203.384      -18.566       66.078       81.806       50.035     4366.332     6692.297     2503.504        2.866        0.678      208.359       39.646        0.036      337.213        9.032      865.827
01/12/2015  12:08:00      -34.005      266.308      -30.444       47.349       86.163       41.052     2241.967     7424.113     1685.284        4.218        0.568      268.470       39.845        0.022      337.330        9.226      865.819
01/12/2015  12:09:00      -19.050      177.880      -24.654       42.481       70.699       39.578     1804.656     4998.388     1566.435        2.049        0.418      178.897       41.832        0.055      337.426        9.389      865.817
01/12/2015  12:10:00      -19.301      230.116      -16.254       60.859      124.399       53.067     3703.779    15475.102     2816.098        3.779        1.100      230.924       56.446        0.060      337.432        9.400      865.802
01/12/2015  12:11:00     -159.356      206.960      -37.221       88.949      101.049       38.739     7911.901    10210.923     1500.725        4.461        0.981      261.203       30.708        0.014      337.466        9.456      865.788
01/12/2015  12:12:00      -71.097       88.465      -12.596       49.529       72.581       44.673     2453.121     5268.024     1995.720        1.138        0.486      113.494       45.926        0.164      337.643        9.756      865.785
01/12/2015  12:13:00        7.594       40.949       11.414       26.526       32.450       33.256      703.612     1053.022     1105.975        0.236        0.143       41.648       27.506        0.436      338.111       10.542      865.788
01/12/2015  12:14:00      -35.182       46.540      -12.997       40.958       45.724       24.489     1677.524     2090.649      599.732        0.397        0.218       58.342       10.451        0.032      338.055       10.447      865.762
01/12/2015  12:15:00       93.231       72.104        7.766       89.052       65.213       52.335     7930.199     4252.766     2738.997        1.443        0.746      117.860       27.622        0.055      337.895       10.179      865.786
01/12/2015  12:16:00       -3.862      231.352      -34.467       88.277      130.148       51.922     7792.905    16938.490     2695.910        4.107        1.371      231.384       56.909        0.060      337.693        9.837      865.796
01/12/2015  12:17:00      -87.444      257.566      -25.756       67.438       97.633       48.818     4547.830     9532.210     2383.174        4.555        0.823      272.005       45.511        0.028      337.722        9.885      865.816
01/12/2015  12:18:00     -123.907      157.639      -14.279       93.729       87.757       55.246     8785.203     7701.258     3052.087        2.997        0.977      200.507       48.442        0.058      337.718        9.879      865.831
01/12/2015  12:19:00      -30.748      278.703      -26.442       73.251      129.028       49.058     5365.638    16648.193     2406.727        5.187        1.221      280.394       62.451        0.050      337.669        9.796      865.824
01/12/2015  12:20:00     -123.649      279.736      -35.691       80.416      105.391       48.314     6466.799    11107.337     2334.214        5.736        0.995      305.845       47.749        0.024      337.505        9.521      865.823
01/12/2015  12:21:00      -86.602      196.549      -23.450       69.862       70.773       47.283     4880.672     5008.792     2235.637        2.940        0.606      214.783       44.884        0.044      337.659        9.780      865.830
01/12/2015  12:22:00       -6.813      220.786      -11.730       67.683      124.743       57.583     4581.013    15560.929     3315.815        3.619        1.173      220.891       67.107        0.092      337.813       10.039      865.801
01/12/2015  12:23:00      -65.688      284.237      -31.315       65.028       76.395       53.816     4228.696     5836.120     2896.166        4.952        0.648      291.729       51.939        0.032      337.677        9.809      865.814
01/12/2015  12:24:00      -57.363      136.755       -8.718       52.652      100.740       39.649     2772.215    10148.535     1572.020        1.828        0.725      148.299       44.646        0.091      337.999       10.350      865.795
01/12/2015  12:25:00      -33.438      202.228      -23.102       53.716       72.457       50.394     2885.414     5249.996     2539.533        2.661        0.534      204.974       42.144        0.042      337.804       10.024      865.780
01/12/2015  12:26:00      -50.063      225.466      -24.852       45.484       70.111       27.521     2068.837     4915.576      757.416        3.085        0.387      230.958       28.815        0.016      337.756        9.942      865.771
01/12/2015  12:27:00      -85.530      215.838      -24.289       57.813       82.927       39.363     3342.326     6876.814     1549.475        3.313        0.588      232.167       35.787        0.024      337.693        9.837      865.749
01/12/2015  12:28:00      -70.017      151.286      -22.969       50.643       66.449       45.196     2564.734     4415.473     2042.659        1.867        0.451      166.703       37.675        0.051      337.752        9.938      865.738
01/12/2015  12:29:00      -29.686      148.453       -4.300       70.398       84.817       53.464     4955.908     7193.839     2858.373        1.897        0.750      151.392       45.497        0.090      337.792       10.004      865.717
01/12/2015  12:30:00      -92.206      187.443      -25.648       77.516       84.030       45.281     6008.714     7061.044     2050.400        2.970        0.756      208.894       44.305        0.045      337.553        9.604      865.696
01/12/2015  12:31:00      -73.514      149.877       -3.822       66.355      119.452       50.079     4402.923    14268.891     2507.903        2.453        1.059      166.935       51.183        0.094      337.823       10.055      865.685
01/12/2015  12:32:00      -81.834       36.364      -18.791       37.795       50.085       23.330     1428.455     2508.505      544.291        0.643        0.224       89.550       13.079        0.021      337.947       10.265      865.679
01/12/2015  12:33:00      -98.628       22.400       -8.478       50.062       37.916       29.181     2506.235     1437.648      851.534        0.755        0.240      101.139       23.743        0.055      337.795       10.011      865.684
01/12/2015  12:34:00      -46.171       18.229        7.558       42.767       52.050       35.935     1828.986     2709.189     1291.320        0.417        0.291       49.639       21.639        0.190      338.071       10.473      865.678
01/12/2015  12:35:00     -223.852      -89.779      -18.301      112.865       51.429       32.251    12738.406     2644.992     1040.153        3.746        0.821      241.185       29.458        0.015      337.803       10.020      865.671
01/12/2015  12:36:00     -152.364      -59.432        3.777       76.650       90.443       44.072     5875.287     8180.024     1942.300        2.138        0.800      163.545       46.606        0.081      337.736        9.908      865.684
01/12/2015  12:37:00      -27.097       57.640      -14.745       35.129       44.847       26.297     1234.079     2011.298      691.531        0.410        0.197       63.691       20.075        0.099      337.902       10.190      865.699
01/12/2015  12:38:00      -13.651       33.370       11.565       25.674       36.550       33.353      659.163     1335.874     1112.412        0.227        0.155       36.054       26.920        0.557      338.488       11.174      865.692
01/12/2015  12:39:00      -32.601      116.060       -9.070       45.199       71.935       32.596     2042.970     5174.656     1062.470        1.145        0.414      120.552       18.469        0.023      338.042       10.422      865.702
01/12/2015  12:40:00      -70.839       43.150      -20.427       77.021       55.934       36.057     5932.278     3128.588     1300.122        0.883        0.518       82.946       41.556        0.251      337.981       10.324      865.698
01/12/2015  12:41:00      -41.835       70.673        3.471       40.765       64.276       34.039     1661.799     4131.414     1158.683        0.685        0.348       82.127       36.434        0.197      338.276       10.817      865.694
01/12/2015  12:42:00      -93.256      120.801      -13.241       72.123       72.869       43.836     5201.714     5309.869     1921.585        1.795        0.622      152.609       36.878        0.058      338.154       10.611      865.698
01/12/2015  12:43:00     -159.931      214.766      -38.930       78.202       79.859       50.242     6115.532     6377.409     2524.294        4.412        0.751      267.773       42.508        0.025      337.684        9.820      865.702
01/12/2015  12:44:00      -74.028      121.711      -11.231       57.087       52.800       33.153     3258.920     2787.851     1099.125        1.378        0.357      142.456       31.782        0.050      337.754        9.941      865.686
01/12/2015  12:45:00      -53.978      128.078       -9.238       66.028       75.626       46.679     4359.678     5719.291     2178.966        1.583        0.613      138.988       54.759        0.155      337.718        9.881      865.672
01/12/2015  12:46:00     -123.231      200.100      -37.415       94.730       90.173       46.043     8973.866     8131.260     2120.000        3.792        0.961      235.002       46.272        0.039      337.524        9.552      865.656
01/12/2015  12:47:00      -33.175      187.008       -5.067       61.096      102.388       51.383     3732.762    10483.202     2640.220        2.647        0.843      189.928       62.018        0.107      337.734        9.905      865.631
01/12/2015  12:48:00      -95.671      252.835      -23.911       75.623      111.342       43.577     5718.863    12396.954     1898.926        4.683        1.001      270.330       47.552        0.031      337.574        9.635      865.618
01/12/2015  12:49:00      -34.624      269.091      -25.895       60.290       80.358       35.649     3634.912     6457.424     1270.835        4.282        0.568      271.309       34.167        0.016      337.572        9.633      865.608
01/12/2015  12:50:00      -86.490      132.045       -1.639       66.584       85.580       51.752     4433.460     7323.965     2678.258        1.968        0.722      157.850       53.345        0.114      337.724        9.890      865.611
01/12/2015  12:51:00      -10.848      278.935      -27.785       42.362       84.073       34.984     1794.517     7068.240     1223.870        4.439        0.504      279.146       34.608        0.015      337.422        9.382      865.596
01/12/2015  12:52:00       20.260      334.517      -54.558       59.260       93.513       37.698     3511.764     8744.627     1421.106        6.448        0.684      335.130       45.383        0.018      337.350        9.262      865.591
01/12/2015  12:53:00       18.384      122.472       -5.951       66.640      106.074       51.924     4440.934    11251.707     2696.076        1.688        0.919      123.844       55.334        0.200      337.589        9.664      865.586
01/12/2015  12:54:00      -23.206      248.858      -29.528       59.793      104.576       42.012     3575.223    10936.180     1765.018        3.981        0.814      249.937       47.701        0.036      337.502        9.517      865.605
01/12/2015  12:55:00      -17.537      191.693      -10.514       76.131       90.050       51.820     5795.957     8108.944     2685.262        2.687        0.830      192.494       54.143        0.079      337.525        9.555      865.602
01/12/2015  12:56:00       40.122      193.270      -10.615       57.489      111.416       60.466     3304.964    12413.448     3656.189        2.922        0.969      197.391       66.217        0.113      337.443        9.418      865.610
01/12/2015  12:57:00       63.085      150.505       -7.507       82.301       82.740       44.794     6773.494     6845.868     2006.538        2.115        0.781      163.191       46.985        0.083      337.502        9.516      865.594
01/12/2015  12:58:00       38.523      102.028       14.002       76.362       82.118       61.174     5831.204     6743.295     3742.255        1.420        0.816      109.058       52.751        0.234      337.559        9.615      865.565
01/12/2015  12:59:00       42.594      177.803      -26.757       79.149      101.397       52.595     6264.546    10281.308     2766.185        2.672        0.966      182.833       55.883        0.093      337.509        9.528      865.556
01/12/2015  13:00:00      -33.133      231.724      -29.543       69.791       84.034       37.854     4870.767     7061.667     1432.918        3.451        0.668      234.081       35.895        0.024      337.512        9.533      865.560
01/12/2015  13:01:00      -52.856      224.643      -30.280       58.116       68.015       35.495     3377.451     4625.976     1259.901        3.172        0.463      230.778       31.935        0.019      337.555        9.606      865.545
01/12/2015  13:02:00        3.167      175.189      -15.553       47.278       91.393       44.525     2235.164     8352.621     1982.470        2.175        0.629      175.218       49.845        0.081      337.512        9.534      865.530
01/12/2015  13:03:00       -4.568      112.291      -10.456       40.584       69.030       34.208     1647.087     4765.131     1170.210        1.016        0.379      112.384       25.975        0.053      337.757        9.946      865.499
01/12/2015  13:04:00       -3.286      103.149       -7.980       47.074       51.314       26.376     2215.972     2633.144      695.668        0.813        0.277      103.201       27.489        0.071      337.902       10.190      865.475
01/12/2015  13:05:00       20.144      193.339      -32.293       66.081       91.730       41.593     4366.660     8414.424     1729.945        2.667        0.726      194.385       41.650        0.046      337.718        9.879      865.458
01/12/2015  13:06:00        7.321      275.479      -29.737       59.970      124.627       61.417     3596.383    15531.978     3772.096        4.986        1.145      275.576       68.951        0.063      337.750        9.932      865.442
01/12/2015  13:07:00      -11.207      368.867      -39.065       75.690       92.521       48.448     5729.035     8560.183     2347.212        7.717        0.832      369.038       46.965        0.016      337.636        9.742      865.430
01/12/2015  13:08:00       -6.660      232.017      -27.304       66.524       71.502       40.431     4425.398     5112.542     1634.634        3.290        0.559      232.113       33.493        0.021      337.683        9.820      865.436
01/12/2015  13:09:00     -125.690      323.304      -44.801       72.352      106.847       50.275     5234.790    11416.314     2527.616        7.075        0.959      346.877       43.736        0.016      337.695        9.839      865.439
01/12/2015  13:10:00     -145.843      170.866      -17.417       86.948       96.714       50.655     7559.911     9353.644     2565.951        3.512        0.974      224.645       58.063        0.067      337.859       10.115      865.419
01/12/2015  13:11:00       -3.459      266.475      -33.551       43.973       78.254       38.255     1933.600     6123.679     1463.474        4.083        0.476      266.498       44.937        0.028      337.779        9.979      865.422
01/12/2015  13:12:00      -22.450      173.399      -18.567       48.883       72.639       33.249     2389.510     5276.395     1105.466        1.984        0.439      174.846       32.868        0.035      337.996       10.346      865.417
01/12/2015  13:13:00     -116.591      215.143      -25.453       83.609       92.390       49.205     6990.473     8535.830     2421.149        3.923        0.897      244.704       41.662        0.029      338.054       10.442      865.424
01/12/2015  13:14:00     -157.880      157.283      -35.076       89.166       83.029       44.610     7950.499     6893.801     1990.070        3.386        0.842      222.854       39.150        0.031      337.959       10.283      865.429
01/12/2015  13:15:00      -66.318      240.801      -21.035       56.130       93.153       43.299     3150.604     8677.551     1874.790        3.826        0.685      249.766       47.241        0.036      338.074       10.475      865.430
01/12/2015  13:16:00     -112.448      261.301      -36.890       88.045      106.969       49.864     7751.835    11442.376     2486.442        5.198        1.084      284.469       36.914        0.017      338.002       10.354      865.436
01/12/2015  13:17:00     -111.398      281.642      -32.823       63.283      119.101       44.959     4004.717    14184.940     2021.332        5.651        1.011      302.873       39.000        0.017      337.924       10.224      865.432
01/12/2015  13:18:00      -96.604      215.653      -32.738       82.972      121.530       39.085     6884.377    14769.445     1527.675        4.004        1.159      236.301       49.433        0.044      338.031       10.403      865.430
01/12/2015  13:19:00       -7.215      188.836       -6.448       52.012       97.593       55.453     2705.223     9524.453     3075.066        2.553        0.765      188.974       59.468        0.099      338.180       10.655      865.406
01/12/2015  13:20:00      -13.382       73.713       22.738       51.636       68.658       37.766     2666.227     4713.936     1426.257        0.747        0.440       74.918       18.623        0.062      338.593       11.350      865.374
01/12/2015  13:21:00      -13.936      192.267        0.893       57.886      114.316       53.011     3350.832    13068.188     2810.129        2.819        0.961      192.771       59.066        0.094      338.249       10.770      865.370
01/12/2015  13:22:00      -46.995      368.425      -39.139       81.356      146.853       55.091     6618.753    21565.842     3034.979        8.534        1.561      371.410       58.521        0.025      337.941       10.251      865.351
01/12/2015  13:23:00      -40.314      405.553      -42.523       63.928       69.666       39.786     4086.763     4853.287     1582.898        8.921        0.526      407.552       29.160        0.005      337.861       10.118      865.348
01/12/2015  13:24:00       76.410      212.448       -3.959       78.165      107.384       63.863     6109.761    11531.310     4078.459        3.635        1.086      225.771       65.416        0.084      337.947       10.262      865.300
01/12/2015  13:25:00       72.673      151.258       -5.833       86.369      110.914       64.665     7459.621    12301.940     4181.549        2.606        1.197      167.810       56.569        0.114      338.130       10.571      865.258
01/12/2015  13:26:00       55.064       95.573        0.546       65.945       90.936       61.404     4348.783     8269.429     3770.484        1.427        0.819      110.301       45.988        0.174      338.316       10.884      865.226
01/12/2015  13:27:00      -34.222      327.098      -33.820       91.711       92.429       55.794     8410.853     8543.195     3112.922        6.468        1.003      328.884       46.177        0.020      337.919       10.214      865.224
01/12/2015  13:28:00      -88.847      319.851      -31.158       66.437      104.194       62.820     4413.914    10856.451     3946.350        6.519        0.961      331.962       53.450        0.026      337.830       10.066      865.218
01/12/2015  13:29:00      -41.305      207.630      -19.418       53.230       90.266       39.256     2833.464     8147.912     1541.064        2.886        0.626      211.698       45.217        0.046      337.936       10.245      865.197
01/12/2015  13:30:00      -81.443      180.942      -31.622       66.791       70.241       45.797     4461.010     4933.784     2097.386        2.593        0.575      198.426       39.966        0.041      338.202       10.692      865.194
01/12/2015  13:31:00     -107.635      114.702      -11.110       78.335       90.386       41.673     6136.309     8169.649     1736.672        2.045        0.802      157.295       37.239        0.056      338.397       11.019      865.187
01/12/2015  13:32:00     -113.648       79.713      -20.055      104.706       51.164       37.997    10963.306     2617.715     1443.759        1.735        0.751      138.817       32.537        0.055      338.198       10.687      865.172
01/12/2015  13:33:00      -21.756       62.680        2.799       42.519       70.595       30.413     1807.858     4983.646      924.949        0.606        0.386       66.349       29.417        0.197      338.535       11.252      865.161
01/12/2015  13:34:00      -61.291       39.086       -3.582       47.396       52.889       30.557     2246.403     2797.219      933.739        0.564        0.299       72.694       11.345        0.024      338.474       11.151      865.130
01/12/2015  13:35:00      -34.706        9.411       -3.026       36.408       32.317       23.134     1325.534     1044.408      535.194        0.210        0.145       35.959       23.686        0.434      338.423       11.065      865.114
01/12/2015  13:36:00      -34.577       14.662       16.785       34.073       24.890       18.697     1160.996      619.532      349.572        0.191        0.107       37.558       17.170        0.209      338.768       11.643      865.110
01/12/2015  13:37:00      -77.596      109.340      -12.919       42.595       65.217       38.174     1814.329     4253.257     1457.288        1.283        0.376      134.076       38.929        0.084      338.398       11.023      865.096
01/12/2015  13:38:00      -43.282       58.893        9.706       50.193       53.802       43.420     2519.325     2894.641     1885.255        0.637        0.365       73.087       21.028        0.083      338.567       11.306      865.060
01/12/2015  13:39:00       18.523      152.640      -18.260      156.151       78.294       61.528    24383.071     6130.009     3785.723        2.913        1.715      153.759       29.135        0.036      338.334       10.913      865.043
01/12/2015  13:40:00       47.733      244.933      -15.686       89.652      173.957       74.694     8037.522    30260.929     5579.257        5.319        2.194      249.541       87.953        0.124      338.183       10.658      865.043
01/12/2015  13:41:00       35.425      207.463      -15.848       72.997      108.965       62.104     5328.549    11873.362     3856.950        3.280        1.053      210.466       60.253        0.082      338.272       10.807      865.050
01/12/2015  13:42:00       37.265      223.468      -33.202       85.256      102.109       45.404     7268.546    10426.210     2061.536        3.609        0.988      226.554       47.512        0.044      338.180       10.653      865.057
01/12/2015  13:43:00      -57.248      237.375      -36.504       72.017       85.480       31.834     5186.442     7306.886     1013.420        3.723        0.675      244.181       32.518        0.018      338.147       10.599      865.060
01/12/2015  13:44:00     -154.124      193.127      -33.459       85.194       84.865       43.190     7258.049     7201.999     1865.358        3.925        0.816      247.087       47.942        0.038      338.276       10.815      865.076
01/12/2015  13:45:00     -143.632      248.075      -35.649       54.997       94.469       42.729     3024.693     8924.442     1825.770        4.861        0.689      286.655       45.578        0.025      338.010       10.368      865.076
01/12/2015  13:46:00     -138.047      133.377      -40.044       78.382       43.024       29.269     6143.722     1851.024      856.652        2.365        0.443      191.954       35.433        0.034      337.923       10.223      865.055
01/12/2015  13:47:00       20.591        0.595        5.187       23.479       44.341       21.278      551.240     1966.100      452.768        0.171        0.149       20.599       13.536        0.432      338.202       10.694      865.018
01/12/2015  13:48:00      -85.453      -15.889      -10.087       77.607       63.640       34.663     6022.796     4049.990     1201.532        0.946        0.564       86.918       30.842        0.126      338.154       10.612      864.990
01/12/2015  13:49:00       -2.337      149.879       -3.860       41.341      125.168       46.796     1709.100    15667.099     2189.867        2.102        0.978      149.897       65.536        0.191      338.198       10.684      865.007
01/12/2015  13:50:00      -22.507      351.647      -41.014       55.718       64.654       32.898     3104.449     4180.180     1082.290        6.710        0.418      352.367       34.105        0.009      337.855       10.109      865.018
01/12/2015  13:51:00       24.581      208.225      -17.556       77.658      126.585       61.695     6030.759    16023.756     3806.304        3.506        1.293      209.671       73.799        0.124      337.942       10.255      864.987
01/12/2015  13:52:00       69.948       80.764        9.319       67.931       81.488       47.536     4614.586     6640.334     2259.675        1.251        0.676      106.844       43.821        0.168      338.150       10.607      864.971
01/12/2015  13:53:00      -70.112      240.486      -31.976       82.319       76.526       44.261     6776.494     5856.290     1959.037        3.918        0.730      250.498       39.562        0.025      338.200       10.685      864.986
01/12/2015  13:54:00      -66.876      147.303      -16.522       48.399       65.803       36.404     2342.478     4329.973     1325.232        1.722        0.400      161.773       25.218        0.024      338.208       10.703      865.020
01/12/2015  13:55:00      -20.780      185.987      -17.999       50.262       70.622       39.225     2526.269     4987.465     1538.589        2.220        0.453      187.144       35.627        0.036      338.200       10.687      865.013
01/12/2015  13:56:00      -23.461      253.761      -30.176       56.484       99.057       39.008     3190.428     9812.358     1521.633        4.019        0.726      254.843       45.341        0.032      338.160       10.619      865.028
01/12/2015  13:57:00      -56.826      305.539      -33.783       73.977       95.185       53.558     5472.529     9060.252     2868.445        5.756        0.870      310.778       49.718        0.026      338.061       10.453      865.040
01/12/2015  13:58:00       -3.019      276.246      -26.099       85.308       95.907       58.323     7277.478     9198.232     3401.554        4.844        0.994      276.262       53.404        0.037      338.158       10.619      865.033
01/12/2015  13:59:00       18.080      260.348      -32.614       84.167      118.953       61.155     7084.167    14149.918     3739.977        4.707        1.249      260.975       69.082        0.070      338.158       10.618      865.032
01/12/2015  14:00:00      -15.322      308.213      -39.473       76.332       98.758       52.506     5826.518     9753.227     2756.924        5.756        0.917      308.593       55.715        0.033      338.050       10.433      865.045
01/12/2015  14:01:00     -144.947      272.579      -43.083       92.504      132.340       39.762     8556.916    17513.968     1580.983        6.240        1.383      308.721       53.255        0.030      337.956       10.277      865.064
01/12/2015  14:02:00     -153.374      127.852      -27.580       72.985       73.036       33.263     5326.868     5334.315     1106.427        2.620        0.588      199.674       30.087        0.023      337.987       10.329      865.075
01/12/2015  14:03:00     -127.122      264.284      -37.951       56.300       59.567       42.016     3169.656     3548.236     1765.304        4.796        0.424      293.267       39.501        0.018      337.875       10.141      865.098
01/12/2015  14:04:00      -69.964      109.410      -11.688       47.806       51.777       31.532     2285.398     2680.837      994.264        1.148        0.298      129.867       33.278        0.066      338.022       10.391      865.104
01/12/2015  14:05:00       -2.111      144.569      -12.234       52.476       49.850       39.663     2753.765     2484.989     1573.143        1.393        0.341      144.584       37.611        0.068      338.094       10.510      865.108
01/12/2015  14:06:00      -61.971      219.631      -27.703       42.904       66.586       34.639     1840.749     4433.674     1199.891        3.016        0.374      228.207       32.033        0.020      337.961       10.285      865.124
01/12/2015  14:07:00      -71.599      162.033      -28.060       66.147       78.548       32.953     4375.390     6169.783     1085.932        2.190        0.582      177.147       33.421        0.036      338.061       10.455      865.128
01/12/2015  14:08:00      -68.676      164.773      -17.448       47.607       75.444       27.979     2266.466     5691.821      782.841        2.045        0.437      178.512       33.896        0.036      338.055       10.444      865.108
01/12/2015  14:09:00      -29.516      178.321      -22.775       43.006       60.962       28.702     1849.490     3716.397      823.803        1.979        0.319      180.747       25.250        0.020      338.156       10.615      865.090
01/12/2015  14:10:00       50.975       73.971       -1.214       48.726       51.382       39.667     2374.253     2640.152     1573.471        0.733        0.329       89.834       31.413        0.122      338.313       10.879      865.058
01/12/2015  14:11:00      119.501      173.496      -12.776       98.951       94.741       72.786     9791.397     8975.816     5297.852        3.430        1.203      210.669       56.366        0.072      338.226       10.730      865.049
01/12/2015  14:12:00       53.422      244.863      -37.759       77.562      116.530       50.536     6015.877    13579.213     2553.845        4.319        1.107      250.623       52.898        0.045      338.050       10.437      865.048
01/12/2015  14:13:00      -59.382      391.872      -59.977      108.351       85.115       51.558    11740.001     7244.631     2658.204        9.116        1.082      396.346       43.198        0.012      338.175       10.646      865.078
01/12/2015  14:14:00     -146.946      305.795      -35.668       79.071       99.584       52.698     6252.225     9916.893     2777.120        6.766        0.947      339.269       55.534        0.027      338.112       10.540      865.105
01/12/2015  14:15:00     -117.280      207.539      -24.804       64.813      108.454       48.538     4200.725    11762.336     2355.901        3.788        0.916      238.384       55.997        0.055      338.045       10.427      865.121
01/12/2015  14:16:00     -105.185      111.063      -22.938       78.090       60.219       33.279     6097.993     3626.368     1107.474        1.738        0.542      152.967       28.163        0.034      338.102       10.524      865.094
01/12/2015  14:17:00      -70.330      216.362      -26.470       69.724      103.416       57.337     4861.473    10694.766     3287.578        3.565        0.942      227.505       59.855        0.069      338.179       10.651      865.090
01/12/2015  14:18:00       14.263      275.065      -14.880       95.041      178.004       72.611     9032.751    31685.254     5272.418        6.103        2.300      275.434       97.596        0.126      338.249       10.770      865.121
01/12/2015  14:19:00       23.525      289.016      -24.246       89.641      147.840       70.363     8035.423    21856.776     4950.911        5.975        1.742      289.972       83.693        0.083      338.025       10.393      865.141
01/12/2015  14:20:00      -23.000      338.631      -38.755       54.607       88.972       41.044     2981.930     7915.949     1684.602        6.464        0.629      339.411       38.937        0.013      337.985       10.325      865.145
01/12/2015  14:21:00      -34.557      322.270      -35.192       65.525       96.091       40.153     4293.495     9233.570     1612.229        6.071        0.757      324.117       35.458        0.012      338.186       10.663      865.153
01/12/2015  14:22:00        5.191      206.836       -7.754       86.298      106.563       49.827     7447.349    11355.623     2482.687        3.207        1.064      206.901       43.990        0.045      338.172       10.641      865.140
01/12/2015  14:23:00       47.632      337.952      -39.221      106.489      184.227       68.084    11339.887    33939.478     4635.368        8.396        2.496      341.292       88.314        0.067      338.013       10.372      865.145
01/12/2015  14:24:00       17.558      283.871      -33.696       71.750      119.994       63.187     5148.034    14398.571     3992.610        5.278        1.177      284.414       57.675        0.041      337.945       10.258      865.175
01/12/2015  14:25:00       18.421      335.395      -47.713       81.094      111.225       51.743     6576.194    12371.043     2677.305        6.836        1.081      335.901       60.384        0.032      337.938       10.246      865.199
01/12/2015  14:26:00       10.835      350.680      -47.925       87.677      141.002       63.753     7687.258    19881.705     4064.427        7.851        1.582      350.847       71.682        0.042      337.924       10.223      865.220
01/12/2015  14:27:00       -7.309      303.689      -26.105       93.441      131.505       63.658     8731.245    17293.641     4052.346        6.151        1.504      303.777       72.094        0.056      337.945       10.258      865.229
01/12/2015  14:28:00       19.273      219.269      -34.201       69.192      119.029       54.515     4787.592    14168.012     2971.908        3.577        1.096      220.114       50.589        0.053      338.028       10.398      865.259
01/12/2015  14:29:00       44.485      145.118       19.462       91.538      123.871       72.142     8379.280    15344.119     5204.493        2.617        1.446      151.783       77.730        0.262      337.977       10.314      865.266
01/12/2015  14:30:00       63.217      196.168      -19.460       75.467      106.945       73.206     5695.230    11437.221     5359.130        3.267        1.125      206.103       69.084        0.112      337.986       10.328      865.287
01/12/2015  14:31:00      -20.951      255.200      -24.457       86.253      122.747       52.424     7439.646    15066.941     2748.305        4.571        1.263      256.059       54.958        0.046      337.974       10.309      865.306
01/12/2015  14:32:00       20.904      176.315      -13.522       87.013       98.553       57.187     7571.228     9712.598     3270.307        2.613        1.028      177.550       53.495        0.091      338.016       10.378      865.327
01/12/2015  14:33:00      -47.254      277.919      -33.187       67.510      170.871       55.247     4557.614    29197.022     3052.274        5.868        1.840      281.908       49.821        0.031      337.946       10.262      865.337
01/12/2015  14:34:00      -37.807      358.665      -43.171       63.165       85.715       50.625     3989.802     7347.088     2562.901        7.291        0.695      360.652       49.997        0.019      337.791        9.999      865.336
01/12/2015  14:35:00      -51.752      292.577      -37.967       71.593       95.340       40.727     5125.526     9089.715     1658.726        5.279        0.794      297.119       45.533        0.023      337.825       10.056      865.308
01/12/2015  14:36:00        0.291      342.023      -42.351       85.592      103.253       54.902     7326.040    10661.181     3014.259        6.988        1.050      342.024       59.279        0.030      337.893       10.170      865.325
01/12/2015  14:37:00       31.621      324.874      -39.403       62.570       91.614       52.279     3914.977     8393.093     2733.109        6.157        0.752      326.410       51.626        0.025      337.803       10.022      865.343
01/12/2015  14:38:00       20.156      172.721      -15.952       68.014       88.565       48.720     4625.953     7843.829     2373.625        2.267        0.742      173.893       55.376        0.101      337.880       10.150      865.344
01/12/2015  14:39:00      -59.427      372.451      -49.602       63.210       73.653       32.634     3995.506     5424.721     1064.982        7.760        0.524      377.162       27.523        0.005      337.786        9.990      865.358
01/12/2015  14:40:00      -81.566      308.937      -41.874       55.313       59.866       32.293     3059.565     3583.917     1042.846        5.577        0.384      319.523       24.253        0.006      337.798       10.010      865.360
01/12/2015  14:41:00      -46.507      208.096      -20.039       60.453       87.383       39.388     3654.604     7635.721     1551.379        2.935        0.642      213.230       39.130        0.034      337.868       10.130      865.336
01/12/2015  14:42:00      -96.461      257.581      -39.838       66.319       59.376       32.396     4398.255     3525.451     1049.492        4.311        0.449      275.051       29.763        0.012      337.803       10.020      865.312
01/12/2015  14:43:00      -88.116      226.635      -32.384       95.056       91.239       44.930     9035.549     8324.564     2018.740        3.977        0.969      243.162       44.451        0.033      337.821       10.051      865.322
01/12/2015  14:44:00       -4.763      293.476      -29.218       63.369       71.931       40.630     4015.639     5174.125     1650.800        4.892        0.542      293.515       34.939        0.014      337.845       10.090      865.314
01/12/2015  14:45:00        9.629      171.330       -9.498       58.165       86.991       43.167     3383.202     7567.380     1863.355        2.117        0.641      171.600       51.900        0.091      337.948       10.265      865.313
01/12/2015  14:46:00       49.624      258.130      -25.023       75.413      122.305       71.219     5687.188    14958.439     5072.204        4.771        1.286      262.857       70.221        0.071      337.842       10.086      865.281
01/12/2015  14:47:00       56.891      142.770       -6.010       83.860       97.612       61.811     7032.512     9528.054     3820.589        2.202        1.019      153.688       56.297        0.134      337.882       10.155      865.278
01/12/2015  14:48:00       16.377      102.813       -9.971       52.269       75.201       41.893     2732.084     5655.190     1754.996        1.054        0.507      104.109       42.621        0.168      337.947       10.265      865.287
01/12/2015  14:49:00       45.123      119.798       -9.694       76.140       71.959       50.229     5797.285     5178.147     2522.924        1.499        0.675      128.014       49.060        0.147      338.009       10.368      865.295
01/12/2015  14:50:00       86.067       92.875       22.432       96.054       59.041       52.641     9226.420     3485.830     2771.112        1.601        0.774      126.622       32.580        0.066      338.016       10.380      865.320
01/12/2015  14:51:00       31.906      106.570       -1.791       54.652       82.286       49.644     2986.790     6770.970     2464.519        1.230        0.611      111.244       53.650        0.233      338.119       10.553      865.319
01/12/2015  14:52:00       60.076       96.802        4.213       90.521       61.360       44.910     8194.032     3765.042     2016.902        1.348        0.699      113.929       48.613        0.182      338.178       10.652      865.331
01/12/2015  14:53:00       73.471      165.162      -10.552       93.787       67.812       44.918     8796.021     4598.532     2017.613        2.410        0.771      180.767       46.685        0.067      338.198       10.684      865.336
01/12/2015  14:54:00      228.612      140.127       34.124      142.369       74.642       73.401    20268.824     5571.405     5387.771        5.214        1.561      268.140       43.528        0.026      338.173       10.640      865.328
01/12/2015  14:55:00       68.860      218.808      -15.524       93.658      124.524       78.508     8771.812    15506.203     6163.450        4.165        1.522      229.388       80.202        0.122      338.018       10.381      865.351
01/12/2015  14:56:00       67.178      179.291      -26.059       69.263       95.674       60.095     4797.346     9153.526     3611.436        2.745        0.878      191.463       62.369        0.106      338.107       10.531      865.345
01/12/2015  14:57:00       45.982      159.660       20.336      105.385      102.709       71.339    11106.015    10549.205     5089.237        2.738        1.337      166.149       66.008        0.158      338.167       10.632      865.346
01/12/2015  14:58:00       78.596      248.325      -31.639       77.354      155.039       74.999     5983.685    24037.220     5624.792        5.224        1.782      260.466       87.387        0.113      338.032       10.404      865.375
01/12/2015  14:59:00       72.709      142.611       -4.236       73.914       78.201       51.850     5463.266     6115.324     2688.408        1.995        0.713      160.076       48.921        0.093      338.007       10.366      865.391
01/12/2015  15:00:00       38.802       86.986      -13.613       64.290       62.372       44.883     4133.267     3890.283     2014.486        0.965        0.502       95.248       39.835        0.175      338.097       10.518      865.386
01/12/2015  15:01:00       30.797      111.396      -14.058       58.182       72.721       34.784     3385.141     5288.364     1209.957        1.172        0.494      115.575       30.320        0.069      338.077       10.482      865.386
01/12/2015  15:02:00       37.885      164.322        1.532       83.984      118.556       66.542     7053.298    14055.551     4427.851        2.698        1.277      168.633       69.241        0.169      338.158       10.617      865.389
01/12/2015  15:03:00       89.434      148.021       -3.344       79.916      117.367       69.489     6386.638    13775.126     4828.757        2.745        1.250      172.942       55.725        0.104      338.156       10.613      865.378
01/12/2015  15:04:00       98.503      153.790       17.857      112.751      103.219       76.246    12712.725    10654.255     5813.521        3.142        1.459      182.632       69.601        0.145      338.085       10.494      865.392
01/12/2015  15:05:00       26.548      280.859      -25.892       83.571      136.430       67.638     6984.046    18613.154     4574.856        5.521        1.509      282.111       78.215        0.077      338.033       10.406      865.393
01/12/2015  15:06:00      111.901       84.059        8.735      104.988       87.816       59.983    11022.545     7711.711     3597.907        2.099        1.117      139.956       33.717        0.058      338.168       10.635      865.380
01/12/2015  15:07:00       70.518      122.265       -3.394       65.141      105.254       55.760     4243.406    11078.312     3109.198        1.918        0.922      141.143       50.661        0.129      338.247       10.768      865.366
01/12/2015  15:08:00       53.992      239.666      -26.600       84.694      134.421       84.001     7173.118    18068.958     7056.164        4.668        1.615      245.673       84.178        0.117      337.957       10.279      865.381
01/12/2015  15:09:00       39.822      296.216      -39.911       92.114      162.121       72.614     8484.915    26283.256     5272.798        6.548        2.002      298.881       79.974        0.072      337.951       10.268      865.389
01/12/2015  15:10:00       -8.530      398.585      -55.885       49.213       97.716       30.547     2421.946     9548.372      933.102        8.748        0.645      398.676       31.399        0.006      337.975       10.310      865.402
01/12/2015  15:11:00       54.205      174.470       -2.122       89.131       85.924       56.603     7944.399     7382.895     3203.915        2.595        0.927      182.697       52.155        0.081      338.042       10.424      865.411
01/12/2015  15:12:00      122.523      132.489        8.609       81.265       80.911       58.014     6604.052     6546.609     3365.659        2.458        0.826      180.459       51.823        0.082      338.117       10.547      865.402
01/12/2015  15:13:00      140.939      110.728       25.579      100.666       73.916       52.443    10133.639     5463.644     2750.277        2.556        0.917      179.233       35.061        0.038      338.077       10.480      865.392
01/12/2015  15:14:00      144.494      136.295        0.373      116.194      116.543       74.104    13501.040    13582.347     5491.329        3.601        1.629      198.632       73.157        0.136      337.995       10.345      865.389
01/12/2015  15:15:00      119.166      246.498      -23.651      101.541      124.696       95.068    10310.545    15549.191     9037.852        5.520        1.745      273.792       82.476        0.091      337.875       10.140      865.396
01/12/2015  15:16:00      117.052      233.171      -19.989      104.047      143.893       87.547    10825.698    20705.099     7664.550        5.383        1.960      260.902       86.443        0.110      337.866       10.125      865.414
01/12/2015  15:17:00      153.084      160.975        6.567      144.878      108.458       87.078    20989.541    11763.100     7582.529        4.486        2.017      222.143       58.438        0.069      337.924       10.224      865.431
01/12/2015  15:18:00       81.879      182.290      -13.113      100.265      118.579       80.622    10052.975    14061.057     6499.844        3.535        1.531      199.834       74.579        0.139      337.878       10.147      865.468
01/12/2015  15:19:00      125.071      174.827      -11.931      104.687      113.742       76.138    10959.436    12937.289     5796.983        3.802        1.485      214.958       67.810        0.100      337.903       10.189      865.487
01/12/2015  15:20:00       75.772      143.069      -21.508       82.587      107.061       59.960     6820.536    11462.024     3595.157        2.427        1.094      161.895       60.235        0.138      337.993       10.341      865.504
01/12/2015  15:21:00       75.574       88.089        5.114       95.818       88.271       60.831     9181.023     7791.692     3700.455        1.708        1.034      116.065       56.497        0.237      338.034       10.411      865.513
01/12/2015  15:22:00      -13.317      245.855      -28.949       74.627       99.578       55.834     5569.241     9915.836     3117.474        4.003        0.930      246.216       53.151        0.047      338.034       10.409      865.513
01/12/2015  15:23:00      -51.581      245.534      -32.070       60.972       97.297       39.805     3717.571     9466.767     1584.417        3.937        0.738      250.893       31.910        0.016      338.004       10.358      865.522
01/12/2015  15:24:00      -14.305      325.258      -34.099       50.456       85.578       43.918     2545.807     7323.674     1928.786        5.948        0.590      325.573       45.828        0.020      337.821       10.051      865.533
01/12/2015  15:25:00        4.410      280.402      -41.927       50.704       69.342       31.480     2570.912     4808.368      991.013        4.439        0.419      280.437       20.940        0.006      337.805       10.023      865.562
01/12/2015  15:26:00       63.039      117.665        4.164       64.732       80.346       48.891     4190.230     6455.538     2390.336        1.543        0.652      133.488       43.050        0.104      337.889       10.166      865.588
01/12/2015  15:27:00       18.909      277.109      -23.310       70.846      131.203       59.224     5019.166    17214.154     3507.489        5.171        1.287      277.754       73.303        0.070      337.851       10.102      865.616
01/12/2015  15:28:00       58.531      138.835        6.258       64.751      121.230       66.301     4192.738    14696.637     4395.848        2.301        1.164      150.669       67.039        0.198      337.824       10.057      865.639
01/12/2015  15:29:00       21.382      173.173      -23.990       43.652      102.267       44.278     1905.482    10458.613     1960.532        2.267        0.716      174.488       57.460        0.108      337.793       10.005      865.644
01/12/2015  15:30:00       80.011       76.844       10.848       65.806       56.095       49.469     4330.408     3146.612     2447.154        1.117        0.496      110.936       32.246        0.084      337.843       10.090      865.634
01/12/2015  15:31:00       67.901       91.488        7.625       72.757       77.645       62.312     5293.638     6028.774     3882.769        1.412        0.760      113.932       53.078        0.217      337.826       10.061      865.621
01/12/2015  15:32:00       32.820      158.637       -7.310       68.274       85.114       57.807     4661.391     7244.430     3341.634        2.077        0.762      161.997       48.054        0.088      337.797       10.012      865.609
01/12/2015  15:33:00      124.485       96.588       30.255       88.207       63.091       61.586     7780.453     3980.422     3792.805        2.064        0.778      157.562       42.176        0.072      337.797       10.012      865.599
01/12/2015  15:34:00       66.745      109.832       10.226       82.826       59.052       52.030     6860.181     3487.140     2707.165        1.484        0.653      128.522       40.859        0.101      337.791       10.004      865.600
01/12/2015  15:35:00       35.922      210.099      -24.668       56.342       68.769       48.073     3174.425     4729.129     2310.979        2.813        0.511      213.148       45.091        0.045      337.755        9.941      865.602
01/12/2015  15:36:00       81.664      184.490      -17.507       60.717       96.181       60.712     3686.594     9250.713     3685.984        2.881        0.831      201.756       61.671        0.093      337.791       10.001      865.612
01/12/2015  15:37:00       76.716      147.222       -4.490       69.566       95.520       67.890     4839.430     9124.061     4609.084        2.307        0.929      166.011       58.817        0.126      337.799       10.015      865.609
01/12/2015  15:38:00       21.658      145.802       -8.094       57.786       97.178       40.714     3339.256     9443.540     1657.660        1.811        0.722      147.402       44.873        0.093      337.815       10.042      865.596
01/12/2015  15:39:00       38.943      123.974       -5.909       65.416       67.504       48.418     4279.242     4556.776     2344.324        1.405        0.559      129.946       46.979        0.131      337.784        9.990      865.586
01/12/2015  15:40:00       50.284      115.792       -4.672       65.344       79.128       51.417     4269.816     6261.172     2643.720        1.456        0.659      126.239       46.575        0.136      337.806       10.028      865.586
01/12/2015  15:41:00       69.205      123.735       20.589       67.262       88.364       65.623     4524.206     7808.224     4306.367        1.858        0.832      141.773       60.876        0.184      337.746        9.929      865.582
01/12/2015  15:42:00       28.284      205.312      -10.243       61.186       77.773       52.944     3743.744     6048.588     2803.106        2.782        0.630      207.251       52.931        0.065      337.751        9.933      865.577
01/12/2015  15:43:00       24.895      163.047      -17.069       51.313       90.810       39.870     2633.020     8246.388     1589.611        1.998        0.623      164.937       49.451        0.090      337.789        9.999      865.579
01/12/2015  15:44:00       64.609      117.469        8.535       78.052       70.114       58.330     6092.048     4916.005     3402.368        1.623        0.721      134.064       44.136        0.108      337.867       10.130      865.576
01/12/2015  15:45:00      158.129      132.506       12.764       89.162       58.920       56.429     7949.853     3471.601     3184.206        2.866        0.730      206.307       46.733        0.051      337.835       10.075      865.590
01/12/2015  15:46:00      210.942      125.887       29.590       82.294       63.378       54.608     6772.302     4016.782     2982.073        3.749        0.689      245.650       37.435        0.023      337.797       10.010      865.577
01/12/2015  15:47:00      208.391      142.516       32.235       94.518       77.244       59.883     8933.612     5966.683     3585.986        4.163        0.924      252.464       45.991        0.033      337.783        9.987      865.565
01/12/2015  15:48:00      181.627      134.106       24.734       78.768       76.775       49.318     6204.414     5894.327     2432.237        3.306        0.727      225.771       41.218        0.033      337.816       10.043      865.571
01/12/2015  15:49:00       96.068      136.384        5.061       72.621       82.069       54.846     5273.877     6735.319     3008.129        2.143        0.751      166.822       48.289        0.084      337.827       10.061      865.563
01/12/2015  15:50:00       71.259      146.654       -2.682       70.214      101.487       61.928     4929.982    10299.606     3835.097        2.283        0.953      163.049       62.561        0.147      337.791       10.002      865.556
01/12/2015  15:51:00      119.206      151.072        1.042       75.856       88.521       51.200     5754.071     7835.926     2621.449        2.662        0.811      192.439       54.250        0.079      337.782        9.987      865.549
01/12/2015  15:52:00      140.417      107.427       17.497       79.929       69.610       64.905     6388.609     4845.506     4212.620        2.350        0.772      176.798       40.117        0.051      337.823       10.056      865.540
01/12/2015  15:53:00      202.000      141.220       23.369       86.702       62.743       58.750     7517.252     3936.734     3451.539        3.810        0.745      246.469       26.438        0.012      337.838       10.077      865.550
01/12/2015  15:54:00       94.216      134.339       -1.679       83.426       62.800       55.093     6959.897     3943.798     3035.197        2.043        0.697      164.084       41.619        0.064      337.850       10.102      865.567
01/12/2015  15:55:00      -18.551      121.245      -15.292       61.198       62.676       26.600     3745.182     3928.223      707.559        1.183        0.419      122.656       21.358        0.030      337.881       10.155      865.586
01/12/2015  15:56:00      -47.811      283.216      -36.059       42.797       55.588       25.524     1831.611     3090.046      651.492        4.468        0.279      287.223       22.034        0.006      337.799       10.014      865.607
01/12/2015  15:57:00       23.824      257.992      -38.160       47.680       80.940       34.298     2273.337     6551.308     1176.348        3.929        0.500      259.090       27.866        0.012      337.796       10.008      865.618
01/12/2015  15:58:00       74.082      122.149        3.309       96.364       97.787       75.973     9285.960     9562.302     5771.930        2.252        1.231      142.859       56.451        0.156      337.728        9.896      865.617
01/12/2015  15:59:00       80.399      149.582       -5.321       81.947      115.232       73.552     6715.265    13278.391     5409.968        2.713        1.270      169.820       70.289        0.171      337.693        9.837      865.618
01/12/2015  16:00:00      133.590       78.067       28.263       86.589       63.370       51.709     7497.676     4015.819     2673.861        1.946        0.709      154.728       27.699        0.032      337.705        9.857      865.631
01/12/2015  16:01:00      246.761      146.173       25.022       71.415       62.436       52.789     5100.034     3898.243     2786.662        4.733        0.589      286.806       43.844        0.023      337.692        9.835      865.637
01/12/2015  16:02:00      227.651      166.490       13.446       84.129       82.731       60.389     7077.701     6844.439     3646.781        4.864        0.878      282.035       32.900        0.014      337.644        9.753      865.670
01/12/2015  16:03:00      210.575      169.087       25.369      114.111       82.489       62.857    13021.256     6804.399     3950.988        4.867        1.189      270.060       39.951        0.022      337.610        9.698      865.686
01/12/2015  16:04:00      158.941      113.249       27.610       70.304       61.512       54.689     4942.722     3783.751     2990.938        2.528        0.586      195.161       33.096        0.029      337.619        9.714      865.692
01/12/2015  16:05:00      180.477      145.015        6.766       88.151       66.040       57.449     7770.664     4361.345     3300.396        3.454        0.772      231.519       38.235        0.027      337.611        9.699      865.694
01/12/2015  16:06:00      177.606      105.263       15.821       95.996       61.827       62.151     9215.234     3822.564     3862.740        2.988        0.845      206.456       49.571        0.058      337.613        9.704      865.691
01/12/2015  16:07:00      183.921      122.343        6.084       79.894       46.985       42.558     6382.974     2207.623     1811.224        2.962        0.520      220.895       27.485        0.015      337.594        9.671      865.699
01/12/2015  16:08:00      102.055       66.207       34.907       81.701       56.345       47.109     6674.983     3174.727     2219.241        1.404        0.603      121.649       30.109        0.061      337.617        9.711      865.714
01/12/2015  16:09:00      173.430      111.124       20.678       71.944       58.371       47.328     5175.872     3407.193     2239.899        2.684        0.541      205.977       28.555        0.019      337.601        9.684      865.720
01/12/2015  16:10:00      137.458       91.915       12.413       74.164       56.710       44.620     5500.282     3215.995     1990.904        1.910        0.535      165.357       28.868        0.030      337.590        9.666      865.741
01/12/2015  16:11:00       66.941       86.299       -2.311       63.120       68.591       34.143     3984.100     4704.714     1165.743        1.089        0.493      109.218       34.886        0.102      337.594        9.675      865.740
01/12/2015  16:12:00      120.593       79.889       12.799       72.367       52.228       43.103     5236.912     2727.754     1857.890        1.545        0.491      144.654       30.221        0.044      337.593        9.671      865.752
01/12/2015  16:13:00       75.375       83.881       -0.193       80.510       62.881       47.642     6481.848     3954.027     2269.776        1.271        0.635      112.771       28.462        0.064      337.553        9.602      865.769
01/12/2015  16:14:00      124.327      100.828        9.095       87.960       60.807       55.045     7737.049     3697.458     3029.938        2.008        0.723      160.073       32.014        0.040      337.546        9.590      865.781
01/12/2015  16:15:00      114.294       87.810        1.909       57.293       41.288       39.729     3282.515     1704.734     1578.428        1.367        0.328      144.131       24.007        0.028      337.542        9.587      865.807
01/12/2015  16:16:00      138.452      100.376       28.380       75.353       52.431       42.547     5678.087     2748.977     1810.208        2.014        0.512      171.010       18.613        0.012      337.545        9.588      865.817
01/12/2015  16:17:00      135.130       83.691        9.166       77.425       60.306       45.047     5994.611     3636.823     2029.203        1.850        0.583      158.948       33.528        0.044      337.545        9.590      865.827
01/12/2015  16:18:00      119.676       89.326       19.474       68.889       44.147       33.793     4745.634     1948.990     1141.980        1.526        0.392      149.337       21.933        0.022      337.542        9.583      865.836
01/12/2015  16:19:00      101.273      104.248       -6.858       69.127       54.641       51.991     4778.495     2985.678     2703.035        1.582        0.523      145.340       42.779        0.087      337.531        9.569      865.836
01/12/2015  16:20:00       62.918       52.137       15.968       48.865       47.891       28.023     2387.793     2293.511      785.302        0.620        0.273       81.712       30.783        0.142      337.562        9.619      865.830
01/12/2015  16:21:00       23.763       59.301        7.418       39.500       42.951       28.407     1560.225     1844.812      806.975        0.417        0.211       63.885       22.246        0.121      337.541        9.583      865.832
01/12/2015  16:22:00       59.767       61.358        3.044       32.145       26.239       25.252     1033.328      688.481      637.639        0.485        0.118       85.656       20.831        0.059      337.547        9.594      865.841
01/12/2015  16:23:00       67.536       41.806        4.586       40.606       34.331       31.733     1648.815     1178.600     1007.012        0.508        0.192       79.429        4.011        0.003      337.560        9.616      865.849
01/12/2015  16:24:00       54.953       53.985       22.911       33.094       27.452       26.685     1095.237      753.590      712.098        0.451        0.128       77.034       13.501        0.031      337.571        9.637      865.864
01/12/2015  16:25:00      102.935       86.227       12.348       50.823       42.299       30.734     2582.999     1789.218      944.586        1.175        0.266      134.279       18.827        0.020      337.527        9.562      865.855
01/12/2015  16:26:00      108.128       51.280       17.633       44.422       43.620       27.637     1973.333     1902.743      763.778        0.964        0.232      119.671       23.417        0.038      337.522        9.554      865.829
01/12/2015  16:27:00      141.980       90.205       23.618       38.566       35.759       31.878     1487.347     1278.679     1016.219        1.632        0.189      168.212       15.675        0.009      337.504        9.521      865.821
01/12/2015  16:28:00       88.586       61.500       15.569       40.183       34.451       30.348     1614.708     1186.887      921.005        0.780        0.186      107.841       17.926        0.028      337.497        9.508      865.805
01/12/2015  16:29:00      131.621       67.256       26.701       64.173       40.415       30.272     4118.133     1633.348      916.367        1.461        0.333      147.809       10.493        0.005      337.499        9.510      865.799
01/12/2015  16:30:00      107.599       53.738       18.588       45.349       48.957       32.505     2056.561     2396.790     1056.577        1.016        0.275      120.272       17.271        0.021      337.485        9.490      865.790
01/12/2015  16:31:00       65.166       39.638       15.195       32.135       23.055       21.050     1032.635      531.511      443.111        0.403        0.100       76.275       11.859        0.024      337.488        9.494      865.796
01/12/2015  16:32:00       74.018       51.609       14.891       24.022       19.604       18.228      577.043      384.328      332.247        0.483        0.065       90.234       12.863        0.020      337.476        9.475      865.791
01/12/2015  16:33:00       54.572       19.099       15.185       48.860       40.107       23.368     2387.292     1608.599      546.063        0.406        0.227       57.818       21.150        0.134      337.484        9.488      865.795
01/12/2015  16:34:00       91.928       66.462       12.049       56.134       37.546       37.540     3151.059     1409.678     1409.243        0.949        0.298      113.437       19.197        0.029      337.483        9.487      865.796
01/12/2015  16:35:00       70.500       57.724       45.737       45.595       30.182       36.187     2078.882      910.950     1309.517        0.735        0.215       91.117       24.423        0.072      337.482        9.487      865.795
01/12/2015  16:36:00      133.243       62.222       26.178       69.164       40.249       46.742     4783.691     1619.943     2184.822        1.545        0.429      147.056       33.173        0.051      337.491        9.499      865.806
01/12/2015  16:37:00      137.611       90.955       11.305       44.693       47.158       38.669     1997.465     2223.859     1495.293        1.653        0.286      164.954       22.970        0.019      337.476        9.475      865.821
01/12/2015  16:38:00       82.081       92.061       -1.053       62.858       43.408       30.987     3951.176     1884.237      960.179        1.100        0.340      123.339       25.229        0.042      337.472        9.469      865.843
01/12/2015  16:39:00       53.033       46.551        9.369       31.244       35.814       18.108      976.210     1282.618      327.900        0.383        0.129       70.566       12.038        0.029      337.445        9.423      865.854
01/12/2015  16:40:00        9.925        9.290       -8.566       18.888       19.821       11.222      356.756      392.863      125.938        0.057        0.044       13.595        5.934        0.191      337.440        9.416      865.868
01/12/2015  16:41:00       -1.047       24.619       -9.930       17.622       17.480       15.321      310.544      305.557      234.729        0.078        0.043       24.642       12.302        0.249      337.452        9.434      865.868
01/12/2015  16:42:00       26.999       73.658       -1.594       24.125       42.566       25.552      582.036     1811.867      652.930        0.460        0.152       78.450       25.269        0.104      337.465        9.456      865.886
01/12/2015  16:43:00       35.605      139.749       -4.733       38.433       76.957       42.940     1477.107     5922.442     1843.826        1.503        0.462      144.213       43.192        0.090      337.454        9.437      865.882
01/12/2015  16:44:00       23.313      123.523      -18.494       33.379       46.857       25.523     1114.144     2195.582      651.406        1.005        0.198      125.704       23.319        0.034      337.454        9.439      865.884
01/12/2015  16:45:00       26.640       71.175       -1.905       37.593       55.643       33.122     1413.226     3096.140     1097.097        0.569        0.280       75.997       26.017        0.117      337.428        9.393      865.882
01/12/2015  16:46:00       16.733       55.557        5.699       30.785       36.468       25.109      947.739     1329.905      630.451        0.315        0.145       58.022       25.644        0.195      337.423        9.386      865.878
01/12/2015  16:47:00       -1.810      118.951      -16.227       44.727       72.551       24.384     2000.538     5263.661      594.571        1.114        0.393      118.965       32.600        0.075      337.500        9.516      865.878
01/12/2015  16:48:00        0.043      171.695      -24.437       41.158       49.958       22.205     1693.988     2495.769      493.043        1.738        0.234      171.695       25.414        0.022      337.450        9.433      865.874
01/12/2015  16:49:00       -0.578      136.763      -18.248       27.617       28.122       19.935      762.679      790.849      397.423        1.049        0.098      136.764       11.768        0.007      337.449        9.431      865.884
01/12/2015  16:50:00       39.825       83.517       -6.335       30.133       46.746       25.993      908.004     2185.227      675.646        0.618        0.188       92.526       27.066        0.086      337.435        9.405      865.874
01/12/2015  16:51:00       31.556       49.210       19.887       43.255       45.790       40.048     1870.994     2096.739     1603.846        0.469        0.279       58.459       28.628        0.240      337.433        9.402      865.872
01/12/2015  16:52:00       13.512       74.932       -9.151       27.031       29.632       19.960      730.673      878.081      398.410        0.394        0.100       76.140       17.150        0.051      337.413        9.368      865.879
01/12/2015  16:53:00       67.053       83.209       -8.571       41.996       40.304       32.743     1763.647     1624.444     1072.084        0.798        0.223      106.863       21.881        0.042      337.385        9.324      865.871
01/12/2015  16:54:00       48.032       41.733       -3.876       41.297       24.317       22.800     1705.429      591.336      519.851        0.344        0.141       63.630       14.686        0.053      337.358        9.277      865.883
01/12/2015  16:55:00       25.158       66.896        0.040       34.380       36.440       28.854     1181.950     1327.878      832.576        0.422        0.167       71.470       24.750        0.120      337.354        9.269      865.891
01/12/2015  16:56:00       26.989      105.883       -9.556       28.489       36.479       24.169      811.650     1330.708      584.129        0.738        0.136      109.269       14.832        0.018      337.352        9.268      865.887
01/12/2015  16:57:00       46.637       82.024       -9.854       32.123       34.467       18.857     1031.860     1187.957      355.582        0.579        0.129       94.355       15.853        0.028      337.338        9.244      865.900
01/12/2015  16:58:00       33.764       44.743       -2.861       35.433       19.062       13.625     1255.522      363.365      185.630        0.248        0.090       56.053       13.985        0.062      337.334        9.237      865.906
01/12/2015  16:59:00       61.085       46.984        7.120       44.526       31.454       25.889     1982.596      989.331      670.224        0.482        0.182       77.064       19.807        0.066      337.337        9.241      865.917
01/12/2015  17:00:00       29.982       47.654       -1.971       32.117       24.384       15.193     1031.509      594.568      230.823        0.251        0.093       56.301       15.120        0.072      337.336        9.239      865.933
01/12/2015  17:01:00       51.607       82.533       -1.902       55.100       48.836       36.129     3035.968     2384.970     1305.326        0.810        0.336       97.339       31.311        0.103      337.322        9.219      865.936
01/12/2015  17:02:00       83.782       57.453       -0.919       38.825       30.626       22.955     1507.416      937.967      526.940        0.665        0.149      101.589       16.084        0.025      337.302        9.184      865.953
01/12/2015  17:03:00       32.079       53.340      -10.040       31.925       39.264       20.984     1019.209     1541.662      440.341        0.349        0.150       62.243       23.330        0.140      337.299        9.179      865.978
01/12/2015  17:04:00       49.527       64.946       -4.386       31.602       37.978       32.865      998.718     1442.344     1080.077        0.511        0.176       81.675       25.093        0.094      337.285        9.154      865.991
01/12/2015  17:05:00       31.263       55.661        5.686       41.703       53.861       37.430     1739.164     2900.987     1401.037        0.507        0.302       63.840       38.533        0.364      337.282        9.150      865.996
01/12/2015  17:06:00       35.272       94.517        1.265       55.124       62.283       37.107     3038.670     3879.141     1376.949        0.924        0.415      100.884       32.079        0.101      337.262        9.118      866.002
01/12/2015  17:07:00       99.997       60.157        4.670       51.226       35.642       32.787     2624.126     1270.349     1075.014        0.930        0.248      116.697       16.010        0.019      337.243        9.087      866.005
01/12/2015  17:08:00       53.338       79.955        6.170       43.214       43.044       38.452     1867.484     1852.749     1478.588        0.724        0.260       96.113       29.394        0.094      337.222        9.052      865.999
01/12/2015  17:09:00       32.028      106.520       -2.515       46.613       68.485       35.835     2172.810     4690.249     1284.114        1.026        0.407      111.231       39.176        0.124      337.203        9.019      866.010
01/12/2015  17:10:00       49.589      123.986      -12.903       51.483       62.003       35.900     2650.528     3844.365     1288.777        1.289        0.389      133.535       34.858        0.068      337.189        8.995      866.027
01/12/2015  17:11:00       46.238       90.887       -1.117       56.562       78.380       51.537     3199.217     6143.371     2656.018        1.120        0.600      101.972       49.054        0.231      337.179        8.979      866.019
01/12/2015  17:12:00       13.049      116.963       -5.558       40.730       70.085       37.343     1658.968     4911.842     1394.530        1.092        0.398      117.689       32.555        0.077      337.153        8.934      866.038
01/12/2015  17:13:00       35.952      109.734       -9.918       32.694       68.342       34.568     1068.873     4670.578     1194.949        1.018        0.347      115.474       40.813        0.125      337.165        8.956      866.046
01/12/2015  17:14:00       31.752      164.210      -11.879       50.887      100.716       50.622     2589.494    10143.629     2562.610        2.170        0.765      167.251       55.331        0.109      337.167        8.957      866.038
01/12/2015  17:15:00       17.574      122.927      -25.590       45.507       48.981       27.437     2070.880     2399.142      752.765        1.065        0.261      124.177       25.030        0.041      337.124        8.885      866.036
01/12/2015  17:16:00       -0.475       83.809       -6.053       35.903       40.473       21.503     1289.001     1638.094      462.391        0.522        0.169       83.810       16.024        0.037      337.148        8.927      866.027
01/12/2015  17:17:00        3.774      172.037      -25.773       56.286       47.099       27.686     3168.085     2218.320      766.500        1.821        0.308      172.078       27.186        0.025      337.133        8.901      866.019
01/12/2015  17:18:00       14.739      146.761       -9.962       62.659       74.514       39.413     3926.156     5552.320     1553.388        1.644        0.552      147.500       44.519        0.091      337.116        8.871      866.027
01/12/2015  17:19:00       15.537      152.150      -16.141       43.085       65.305       30.598     1856.321     4264.680      936.252        1.535        0.353      152.941       32.340        0.045      337.094        8.835      866.026
01/12/2015  17:20:00       21.925      142.457      -12.785       42.427       49.048       30.386     1800.092     2405.676      923.299        1.303        0.256      144.134       29.189        0.041      337.085        8.820      866.024
01/12/2015  17:21:00       -3.095      141.535      -15.134       41.977       40.351       27.852     1762.050     1628.170      775.750        1.222        0.208      141.569       24.841        0.031      337.065        8.785      866.033
01/12/2015  17:22:00       23.796      168.337      -26.731       45.516       57.118       38.264     2071.721     3262.448     1464.144        1.821        0.340      170.011       37.673        0.049      337.062        8.783      866.019
01/12/2015  17:23:00       20.908      138.704      -11.015       44.795       80.915       41.514     2006.557     6547.174     1723.399        1.504        0.514      140.271       43.351        0.096      337.041        8.744      866.017
01/12/2015  17:24:00       -2.439      107.372      -13.212       42.068       40.251       22.305     1769.684     1620.121      497.503        0.780        0.194      107.400       22.139        0.042      337.038        8.742      866.026
01/12/2015  17:25:00       -7.077      127.593      -19.440       51.743       51.602       35.610     2677.350     2662.792     1268.081        1.166        0.330      127.789       34.972        0.075      337.046        8.755      866.035
01/12/2015  17:26:00      -16.914       98.514       -6.755       29.694       50.253       23.097      881.760     2525.396      533.451        0.699        0.197       99.955       24.200        0.059      337.016        8.705      866.045
01/12/2015  17:27:00       -9.870      138.870      -11.958       42.479       66.472       30.596     1804.478     4418.470      936.090        1.334        0.358      139.220       34.042        0.060      337.005        8.686      866.066
01/12/2015  17:28:00      -51.123       88.040       -7.776       52.359       40.314       27.157     2741.447     1625.224      737.524        0.776        0.255      101.806       22.946        0.051      337.044        8.752      866.085
01/12/2015  17:29:00      -35.309      167.926      -20.267       67.116       74.144       30.907     4504.531     5497.274      955.216        2.041        0.548      171.598       34.344        0.040      337.024        8.716      866.099
01/12/2015  17:30:00        6.634      194.889      -31.644       39.260       40.501       25.195     1541.374     1640.324      634.805        2.142        0.191      195.002       23.586        0.015      336.992        8.664      866.096
01/12/2015  17:31:00      -47.722      131.786      -12.425       41.148       60.138       27.066     1693.121     3616.539      732.567        1.292        0.302      140.160       33.529        0.057      336.978        8.640      866.111
01/12/2015  17:32:00      -41.347      156.369      -24.729       27.974       64.542       23.274      782.529     4165.606      541.702        1.613        0.274      161.743       28.355        0.031      336.990        8.659      866.127
01/12/2015  17:33:00      -37.800      105.329      -14.219       40.363       37.212       24.616     1629.150     1384.716      605.928        0.817        0.181      111.906       16.454        0.022      336.992        8.665      866.137
01/12/2015  17:34:00      -41.252      118.540      -22.989       42.695       42.409       24.599     1822.866     1798.518      605.092        1.025        0.211      125.513       23.907        0.036      337.053        8.766      866.162
01/12/2015  17:35:00      -95.105      119.291      -26.923       45.390       51.924       22.598     2060.274     2696.094      510.655        1.463        0.263      152.562       24.565        0.026      336.995        8.670      866.165
01/12/2015  17:36:00      -94.008       57.536      -20.922       26.286       32.709       20.222      690.952     1069.852      408.921        0.738        0.108      110.218       17.577        0.025      336.950        8.595      866.176
01/12/2015  17:37:00      -87.815      165.617      -27.888       67.100       53.021       25.415     4502.431     2811.191      645.899        2.194        0.398      187.458       29.431        0.025      337.082        8.813      866.191
01/12/2015  17:38:00      -49.217      158.523      -21.114       37.075       83.495       26.945     1374.555     6971.387      726.025        1.853        0.454      165.987       14.185        0.007      337.012        8.698      866.196
01/12/2015  17:39:00      -58.237       51.268       -5.384       47.959       35.946       19.006     2300.105     1292.088      361.214        0.500        0.198       77.588       23.812        0.094      336.999        8.675      866.211
01/12/2015  17:40:00      -79.328      172.340      -31.502       66.679       61.372       35.209     4446.099     3766.471     1239.654        2.322        0.473      189.721       31.699        0.028      336.971        8.628      866.223
01/12/2015  17:41:00      -75.604       93.608      -18.782       48.517       48.874       21.741     2353.909     2388.668      472.688        1.002        0.261      120.326       26.222        0.047      336.964        8.617      866.229
01/12/2015  17:42:00      -75.956       61.710      -11.905       44.383       37.893       20.548     1969.824     1435.859      422.215        0.677        0.191       97.864       17.445        0.032      336.932        8.565      866.244
01/12/2015  17:43:00     -100.048      115.428      -23.634       31.915       55.531       25.884     1018.537     3083.646      669.970        1.433        0.239      152.752       25.553        0.028      336.917        8.539      866.240
01/12/2015  17:44:00      -75.284       19.433      -12.923       33.101       41.123       23.130     1095.686     1691.114      535.009        0.477        0.166       77.751       12.867        0.027      336.841        8.415      866.237
01/12/2015  17:45:00     -147.599       44.053      -18.598       66.103       41.477       28.178     4369.570     1720.361      793.983        1.548        0.344      154.033       30.918        0.040      336.882        8.480      866.243
01/12/2015  17:46:00     -117.610       17.419       -6.464       40.716       26.281       21.496     1657.810      690.691      462.096        0.849        0.141      118.893       21.867        0.034      336.871        8.464      866.236
01/12/2015  17:47:00     -135.479      -41.534       -4.911       42.641       34.186       31.160     1818.233     1168.715      970.967        1.203        0.198      141.703       22.472        0.025      336.800        8.345      866.234
01/12/2015  17:48:00     -107.725      -25.233      -10.727       32.421       35.715       18.567     1051.119     1275.550      344.735        0.751        0.134      110.641       13.053        0.014      336.743        8.252      866.243
01/12/2015  17:49:00      -96.048      -22.079      -15.913       28.960       42.284       17.922      838.690     1787.908      321.202        0.646        0.147       98.553       10.716        0.012      336.698        8.174      866.253
01/12/2015  17:50:00      -66.433      -40.534       -3.419       44.871       27.010       24.521     2013.400      729.548      601.270        0.471        0.167       77.822       17.056        0.048      336.661        8.114      866.268
01/12/2015  17:51:00     -115.603      -14.546      -10.594       55.342       55.557       22.139     3062.711     3086.537      490.121        1.016        0.332      116.515       16.346        0.020      336.632        8.064      866.281
01/12/2015  17:52:00      -70.311       18.278      -13.783       32.969       48.757       18.221     1086.933     2377.254      331.994        0.463        0.190       72.648       14.780        0.041      336.579        7.978      866.292
01/12/2015  17:53:00      -88.182       20.628      -17.807       29.424       21.889       15.607      865.781      479.135      243.580        0.505        0.079       90.562        7.031        0.006      336.569        7.960      866.311
01/12/2015  17:54:00      -57.155       -8.965       -2.196       30.008       25.847       19.020      900.494      668.086      361.759        0.264        0.097       57.853       15.606        0.073      336.570        7.961      866.324
01/12/2015  17:55:00      -83.657       54.296      -21.390       68.708       81.306       32.866     4720.770     6610.665     1080.194        1.141        0.621       99.732       50.814        0.260      336.645        8.085      866.328
01/12/2015  17:56:00     -124.942      154.331      -29.683       63.148       82.458       37.934     3987.680     6799.284     1438.970        2.627        0.611      198.566       38.372        0.037      336.728        8.222      866.334
01/12/2015  17:57:00      -96.529       64.628       -8.925       37.997       34.866       25.529     1443.755     1215.665      651.740        0.844        0.166      116.167       19.414        0.028      336.714        8.201      866.339
01/12/2015  17:58:00      -84.216       58.417      -21.953       39.249       43.033       23.898     1540.519     1851.866      571.113        0.747        0.198      102.493       24.432        0.057      336.625        8.053      866.336
01/12/2015  17:59:00      -76.809       14.801      -10.825       31.772       44.243       20.568     1009.462     1957.445      423.025        0.481        0.169       78.222       24.897        0.101      336.701        8.182      866.332
01/12/2015  18:00:00      -97.474       38.292      -12.974       29.065       49.692       17.602      844.759     2469.304      309.841        0.738        0.181      104.726       15.073        0.021      336.604        8.019      866.336
01/12/2015  18:01:00      -62.008      -10.289       -3.514       31.364       26.662       16.615      983.731      710.879      276.062        0.297        0.099       62.856        8.515        0.018      336.537        7.906      866.332
01/12/2015  18:02:00      -67.389       31.300      -11.496       43.777       36.991       24.313     1916.418     1368.347      591.121        0.476        0.194       74.304       22.495        0.092      336.546        7.921      866.321
01/12/2015  18:03:00      -45.824       51.067      -11.194       37.717       50.699       26.519     1422.537     2570.392      703.249        0.476        0.235       68.612       13.460        0.038      336.532        7.898      866.322
01/12/2015  18:04:00      -67.772      -20.123       -9.371       20.906       23.467       16.492      437.042      550.716      271.991        0.317        0.063       70.697       12.427        0.031      336.480        7.811      866.312
01/12/2015  18:05:00      -55.037       13.760       -8.723       19.887       22.881       17.626      395.509      523.545      310.679        0.226        0.061       56.731       13.620        0.058      336.484        7.817      866.305
01/12/2015  18:06:00      -76.309       11.002       -8.981       24.023       25.599       13.199      577.083      655.310      174.220        0.372        0.070       77.098       13.583        0.031      336.444        7.749      866.300
01/12/2015  18:07:00      -77.124       18.217      -12.246       30.308       45.436       15.858      918.572     2064.396      251.470        0.483        0.162       79.246       17.967        0.051      336.415        7.702      866.307
01/12/2015  18:08:00     -119.415       39.413      -19.767       32.374       41.741       26.918     1048.090     1742.325      724.572        0.986        0.176      125.751       15.090        0.014      336.362        7.611      866.300
01/12/2015  18:09:00      -90.543       25.937      -14.956       27.436       58.895       27.057      752.760     3468.624      732.096        0.702        0.248       94.185       22.505        0.057      336.452        7.762      866.291
01/12/2015  18:10:00      -61.391        5.761      -10.207       24.284       30.266       19.977      589.689      916.010      399.075        0.291        0.095       61.660       21.596        0.123      336.397        7.671      866.276
01/12/2015  18:11:00      -81.849      -13.141      -10.692       26.948       21.448       20.061      726.184      460.030      402.426        0.429        0.079       82.897       14.578        0.031      336.416        7.702      866.275
01/12/2015  18:12:00      -74.758        0.496       -6.267       28.780       38.994       23.223      828.288     1520.494      539.293        0.426        0.144       74.759       18.920        0.064      336.352        7.596      866.262
01/12/2015  18:13:00      -96.737        9.902      -13.225       29.666       33.838       18.402      880.051     1145.001      338.644        0.600        0.118       97.243       15.117        0.024      336.322        7.545      866.250
01/12/2015  18:14:00     -120.754      -18.391       -9.971       29.558       34.953       26.547      873.659     1221.711      704.738        0.891        0.140      122.147       21.289        0.030      336.318        7.540      866.258
01/12/2015  18:15:00     -100.924      -26.889      -11.815       36.553       31.833       22.862     1336.142     1013.335      522.652        0.696        0.144      104.444       18.557        0.032      336.322        7.546      866.254
01/12/2015  18:16:00      -91.715      -55.806        0.250       49.903       27.902       23.209     2490.342      778.545      538.679        0.767        0.190      107.359       26.864        0.063      336.280        7.476      866.252
01/12/2015  18:17:00     -136.802      -28.383      -15.996       49.150       39.072       18.821     2415.771     1526.612      354.213        1.204        0.215      139.715       17.197        0.015      336.228        7.389      866.250
01/12/2015  18:18:00      -94.455      -36.765       -9.809       33.950       41.229       19.275     1152.629     1699.811      371.531        0.680        0.161      101.358       14.077        0.019      336.271        7.460      866.265
01/12/2015  18:19:00      -94.942      -46.069        1.583       34.969       31.428       20.606     1222.832      987.728      424.619        0.689        0.132      105.529       14.464        0.019      336.217        7.372      866.291
01/12/2015  18:20:00     -105.267      -15.685       -7.269       40.734       28.398       23.721     1659.268      806.443      562.682        0.720        0.151      106.429       23.368        0.048      336.124        7.214      866.304
01/12/2015  18:21:00      -86.840       -6.981       -6.480       27.405       27.916       16.149      751.037      779.293      260.792        0.471        0.090       87.120       15.189        0.030      336.152        7.263      866.315
01/12/2015  18:22:00      -30.852        5.859       -0.186       16.155       25.556        9.460      260.976      653.127       89.491        0.099        0.050       31.403        8.596        0.075      336.130        7.224      866.330
01/12/2015  18:23:00      -38.894      -32.773       -5.503       18.002       17.231       13.275      324.057      296.903      176.217        0.171        0.040       50.861        7.497        0.022      336.203        7.347      866.347
01/12/2015  18:24:00      -51.226      -21.665       -1.378       25.829       23.188       13.900      667.157      537.680      193.200        0.225        0.070       55.619       13.734        0.061      336.172        7.296      866.359
01/12/2015  18:25:00      -75.175      -53.027       -6.130       18.922       23.089       12.293      358.032      533.116      151.107        0.477        0.052       91.996        7.986        0.008      336.145        7.249      866.368
01/12/2015  18:26:00      -78.392      -47.806       -1.220       29.335       23.687       18.553      860.518      561.056      344.220        0.510        0.088       91.819       15.436        0.028      336.155        7.266      866.375
01/12/2015  18:27:00      -30.337      -15.798       -1.074       26.431       21.604       15.189      698.601      466.718      230.719        0.128        0.070       34.204       13.716        0.161      336.217        7.370      866.386
01/12/2015  18:28:00      -30.937      -18.746        1.187       27.419       17.127       12.389      751.808      293.318      153.477        0.125        0.060       36.173        8.841        0.060      336.169        7.290      866.386
01/12/2015  18:29:00      -59.627      -34.268        0.564       17.323       19.283       14.047      300.098      371.844      197.320        0.280        0.043       68.772        9.004        0.017      336.093        7.164      866.385
01/12/2015  18:30:00      -78.399      -38.429       -4.221       19.965       28.139       18.237      398.600      791.820      332.573        0.458        0.076       87.311       13.828        0.025      336.098        7.170      866.402
01/12/2015  18:31:00      -41.640      -28.008       -4.652       28.309       30.411       20.792      801.419      924.799      432.311        0.235        0.108       50.183       18.189        0.131      336.194        7.331      866.409
01/12/2015  18:32:00      -69.408      -17.308       -1.214       35.146       20.280       13.466     1235.238      411.296      181.331        0.347        0.091       71.533       13.417        0.035      336.110        7.190      866.409
01/12/2015  18:33:00     -102.555      -43.574       -9.917       30.592       22.215       22.214      935.851      493.498      493.475        0.722        0.096      111.428       20.452        0.034      336.100        7.175      866.409
01/12/2015  18:34:00      -66.836      -12.574       -9.545       21.251       18.895       18.868      451.613      357.029      356.003        0.294        0.058       68.009       13.725        0.041      336.130        7.224      866.402
01/12/2015  18:35:00      -53.867      -30.397       -3.552       43.338       28.069       12.285     1878.163      787.857      150.912        0.333        0.141       61.851        6.321        0.010      336.148        7.254      866.398
01/12/2015  18:36:00      -28.119       -9.958       11.648       31.495       19.510       15.246      991.917      380.659      232.441        0.132        0.080       29.830       18.788        0.397      336.097        7.169      866.392
01/12/2015  18:37:00      -23.424      -20.430        7.344       37.456       18.736       17.685     1402.940      351.026      312.752        0.154        0.103       31.081       16.232        0.273      336.076        7.134      866.378
01/12/2015  18:38:00      -30.595      -17.732       -1.019       16.513       17.186       12.115      272.672      295.366      146.767        0.098        0.036       35.362        7.741        0.048      336.113        7.196      866.376
01/12/2015  18:39:00      -10.726      -25.749        0.166       17.461       17.926       12.495      304.890      321.354      156.129        0.078        0.039       27.894       11.889        0.182      336.093        7.163      866.377
01/12/2015  18:40:00       -1.912       -8.081        5.896       15.074       14.466       13.638      227.211      209.254      185.986        0.036        0.031        8.304       10.605        1.631      336.040        7.074      866.378
01/12/2015  18:41:00      -36.293      -18.922       -5.728       26.337       19.930       11.136      693.621      397.223      124.001        0.146        0.061       40.929        7.443        0.033      336.055        7.098      866.371
01/12/2015  18:42:00      -38.575      -25.552       -6.628       22.964       15.478       18.772      527.348      239.572      352.372        0.165        0.056       46.270       16.782        0.132      336.042        7.078      866.375
01/12/2015  18:43:00       -2.006      -29.685      -13.847       22.342       15.740        8.929      499.180      247.752       79.731        0.095        0.041       29.753       11.194        0.142      336.096        7.168      866.384
01/12/2015  18:44:00       -8.394        0.898        0.165       14.597       17.336        8.818      213.060      300.543       77.763        0.033        0.030        8.442        7.966        0.890      336.053        7.096      866.379
01/12/2015  18:45:00      -11.032       11.486       14.419        7.602        9.036        8.777       57.787       81.652       77.034        0.034        0.011       15.926        6.447        0.164      335.988        6.987      866.383
01/12/2015  18:46:00       -0.547       10.182       27.563       10.520       13.284        8.846      110.662      176.464       78.252        0.061        0.018       10.197        6.212        0.371      335.988        6.989      866.392
01/12/2015  18:47:00       -2.090       21.933       38.158        8.920       15.711        8.545       79.562      246.848       73.010        0.117        0.020       22.033        8.726        0.157      335.972        6.960      866.413
01/12/2015  18:48:00       24.636        3.116       17.659       20.312       24.536       13.783      412.590      602.029      189.980        0.107        0.060       24.833       13.637        0.302      336.006        7.018      866.428
01/12/2015  18:49:00       -6.353       16.019       35.946       13.808       20.150        9.507      190.662      406.013       90.374        0.114        0.034       17.233        8.763        0.259      335.939        6.906      866.439
01/12/2015  18:50:00        0.581       -0.113       13.747       12.420       16.160       15.186      154.254      261.151      230.616        0.042        0.032        0.591        6.296      113.344      335.991        6.992      866.463
01/12/2015  18:51:00        8.172       -4.045       21.827       22.719       27.314       21.516      516.173      746.059      462.933        0.114        0.086        9.118       22.411        6.041      335.984        6.981      866.489
01/12/2015  18:52:00       63.089      -96.172      -15.808       39.100       34.725       24.563     1528.798     1205.859      603.323        0.841        0.167      115.019       26.479        0.053      336.170        7.291      866.509
01/12/2015  18:53:00       70.712      -99.985      -15.626       36.519       30.278       14.877     1333.631      916.741      221.316        0.886        0.124      122.463       10.879        0.008      336.247        7.420      866.523
01/12/2015  18:54:00      -27.096      -46.373       -7.527       24.560       37.499       21.454      603.212     1406.148      460.258        0.271        0.123       53.709       23.336        0.189      336.099        7.171      866.542
01/12/2015  18:55:00      -23.126      -10.723        2.210       23.397       11.266        9.306      547.403      126.917       86.595        0.071        0.038       25.491        4.807        0.036      336.035        7.066      866.567
01/12/2015  18:56:00       -6.864       -2.771       -5.399       10.201        3.813        5.925      104.061       14.537       35.106        0.012        0.008        7.402        6.904        0.870      335.967        6.952      866.570
01/12/2015  18:57:00       23.969       15.490        8.981       17.489       14.308       12.926      305.867      204.731      167.084        0.079        0.034       28.539        6.368        0.050      335.919        6.874      866.564
01/12/2015  18:58:00       54.738       36.921       13.872       19.760       13.594       15.458      390.462      184.794      238.944        0.268        0.041       66.025        5.633        0.007      335.950        6.924      866.568
01/12/2015  18:59:00       66.723       40.876       13.862       26.333       15.449       17.465      693.421      238.679      305.019        0.378        0.062       78.248       12.707        0.026      336.069        7.124      866.567
01/12/2015  19:00:00       71.396       53.181       25.995       26.450       25.205       18.754      699.586      635.306      351.712        0.514        0.084       89.026       10.799        0.015      335.906        6.852      866.571
01/12/2015  19:01:00       74.607       58.211       47.689       36.477       25.248       27.593     1330.585      637.465      761.351        0.698        0.136       94.629       13.542        0.020      335.988        6.988      866.567
01/12/2015  19:02:00       36.272       46.227       54.909       29.976       28.705       21.061      898.538      823.955      443.577        0.432        0.108       58.759       14.686        0.062      335.984        6.981      866.562
01/12/2015  19:03:00       17.021       30.333       38.840       21.649       37.584       22.933      468.688     1412.539      525.913        0.256        0.120       34.782       23.310        0.449      335.997        7.003      866.563
01/12/2015  19:04:00       52.012       -4.530       17.306       36.642       26.579       26.440     1342.645      706.460      699.074        0.289        0.137       52.209       24.981        0.229      336.019        7.039      866.571
01/12/2015  19:05:00       34.268       -0.923       30.744       23.976       36.162       25.140      574.865     1307.668      632.017        0.232        0.126       34.280       22.860        0.445      336.032        7.061      866.572
01/12/2015  19:06:00       24.040       45.914       67.256       28.199       46.609       24.159      795.201     2172.365      583.681        0.538        0.178       51.826       28.097        0.294      336.032        7.060      866.553
01/12/2015  19:07:00       32.888       66.497       73.079       34.804       64.974       31.111     1211.318     4221.677      967.870        0.862        0.320       74.186       38.039        0.263      335.973        6.964      866.543
01/12/2015  19:08:00       38.716       99.514       96.322       36.071       32.783       22.330     1301.127     1074.721      498.639        1.178        0.144      106.780       19.062        0.032      335.862        6.779      866.557
01/12/2015  19:09:00       91.571       91.097       75.713       63.061       33.848       47.222     3976.689     1145.704     2229.884        1.488        0.368      129.166       38.898        0.091      335.868        6.787      866.584
01/12/2015  19:10:00       97.814       54.171       42.035       47.571       34.999       45.846     2263.004     1224.907     2101.813        0.993        0.279      111.812       23.339        0.044      335.837        6.737      866.605
01/12/2015  19:11:00      129.197       62.864       29.087       38.020       29.951       31.267     1445.486      897.057      977.651        1.240        0.166      143.679       20.144        0.020      335.787        6.653      866.620
01/12/2015  19:12:00      152.936       92.893       22.804       46.595       33.589       32.760     2171.092     1128.239     1073.226        1.845        0.219      178.937       29.535        0.027      335.688        6.488      866.637
01/12/2015  19:13:00      168.941       82.697       18.733       41.085       41.754       28.979     1688.013     1743.434      839.807        2.000        0.214      188.095       24.065        0.016      335.634        6.398      866.654
01/12/2015  19:14:00      165.565       81.780        9.847       49.959       41.644       33.494     2495.947     1734.209     1121.865        1.977        0.268      184.661       21.249        0.013      335.647        6.419      866.664
01/12/2015  19:15:00      106.668       83.672       31.014       49.254       43.473       40.714     2425.915     1889.880     1657.615        1.266        0.299      135.570       26.376        0.038      335.737        6.570      866.674
01/12/2015  19:16:00      137.668      104.571       21.986       51.415       34.857       36.916     2643.461     1215.000     1362.785        1.780        0.261      172.880       34.609        0.040      335.773        6.629      866.683
01/12/2015  19:17:00       81.686       78.575        5.692       51.835       51.549       43.311     2686.842     2657.254     1875.836        1.005        0.361      113.343       32.689        0.083      335.875        6.799      866.692
01/12/2015  19:18:00       80.944       78.895       13.779       75.195       40.647       41.582     5654.325     1652.193     1729.042        1.100        0.452      113.033       36.573        0.105      336.006        7.017      866.696
01/12/2015  19:19:00       10.747       92.991      -10.249       24.898       23.445       20.945      619.905      549.654      438.685        0.524        0.080       93.610       13.157        0.020      335.868        6.788      866.701
01/12/2015  19:20:00       61.185       67.164       -6.114       33.662       33.367       25.124     1133.142     1113.389      631.206        0.558        0.144       90.855       20.635        0.052      335.813        6.696      866.704
01/12/2015  19:21:00       89.610       63.003        9.609       26.254       22.306       17.696      689.263      497.543      313.153        0.680        0.075      109.541       15.941        0.021      335.779        6.641      866.707
01/12/2015  19:22:00       45.472       33.181       13.328       33.392       18.810       21.083     1114.994      353.803      444.503        0.263        0.096       56.291       11.872        0.044      335.728        6.555      866.717
01/12/2015  19:23:00       18.752       35.343        1.734       22.803       23.918       19.964      519.966      572.063      398.544        0.155        0.075       40.010       16.284        0.166      335.732        6.562      866.723
01/12/2015  19:24:00       24.734       87.913      -12.473       25.312       22.134       13.971      640.680      489.931      195.185        0.491        0.066       91.326       11.981        0.017      335.866        6.785      866.721
01/12/2015  19:25:00       27.997       77.129      -15.342       12.327       27.792       12.062      151.946      772.372      145.482        0.402        0.053       82.053       13.051        0.025      335.825        6.719      866.725
01/12/2015  19:26:00       23.742       74.649      -12.238       13.873       18.487       11.429      192.447      341.760      130.617        0.348        0.033       78.333        6.618        0.007      335.897        6.837      866.723
01/12/2015  19:27:00       21.629       54.066       -8.965       12.623       24.497        9.019      159.332      600.104       81.345        0.216        0.042       58.232       10.668        0.034      335.873        6.797      866.713
01/12/2015  19:28:00       24.045       27.654       -2.633       13.757       16.740       13.032      189.243      280.233      169.840        0.099        0.032       36.646        7.515        0.042      335.828        6.722      866.708
01/12/2015  19:29:00       53.968       24.517        6.351       17.228       17.204        9.137      296.787      295.973       83.477        0.211        0.034       59.275        9.135        0.024      335.839        6.740      866.697
01/12/2015  19:30:00       62.084       26.930        7.643        9.988       13.492       11.053       99.760      182.029      122.173        0.252        0.020       67.673        5.540        0.007      335.814        6.697      866.696
01/12/2015  19:31:00       45.953       22.248        9.036       18.070       14.191       10.040      326.531      201.382      100.798        0.166        0.031       51.056       10.400        0.041      335.781        6.643      866.704
01/12/2015  19:32:00       49.021       36.593       -4.218       14.244       14.152       11.634      202.891      200.280      135.342        0.215        0.027       61.173        8.819        0.021      335.877        6.803      866.701
01/12/2015  19:33:00       54.341       33.431        3.800       19.327       18.279       16.446      373.527      334.125      270.465        0.253        0.049       63.801       12.005        0.035      335.896        6.834      866.693
01/12/2015  19:34:00       38.479       30.422        2.278       18.038       24.226       14.191      325.363      586.898      201.385        0.176        0.056       49.052       10.113        0.043      335.896        6.836      866.695
01/12/2015  19:35:00       26.168       37.897       -4.319       17.119       23.228       16.917      293.045      539.521      286.188        0.163        0.056       46.054       15.232        0.109      335.823        6.714      866.714
01/12/2015  19:36:00       -3.521       63.116      -12.807       27.352       19.072        7.239      748.113      363.751       52.409        0.266        0.058       63.214        5.153        0.007      335.904        6.849      866.725
01/12/2015  19:37:00       10.212       38.902       -1.483       17.247       13.043        8.102      297.449      170.112       65.649        0.108        0.027       40.220        8.681        0.047      335.838        6.739      866.717
01/12/2015  19:38:00       20.724        4.763        5.429        8.653       12.008        7.870       74.881      144.187       61.930        0.038        0.014       21.264        5.787        0.074      335.832        6.729      866.709
01/12/2015  19:39:00        8.566       16.702       -4.490        8.362       12.252        6.934       69.925      150.117       48.081        0.032        0.013       18.770        4.784        0.065      335.836        6.736      866.708
01/12/2015  19:40:00        7.811       19.362       -2.490        7.981        9.101        5.322       63.690       82.824       28.328        0.031        0.009       20.879        3.604        0.030      335.838        6.740      866.710
01/12/2015  19:41:00       13.245       41.155       -8.577       12.655        9.795        8.266      160.140       95.937       68.320        0.113        0.016       43.234        8.127        0.035      335.886        6.820      866.721
01/12/2015  19:42:00       18.179       18.921        0.289       10.015       13.844        7.524      100.305      191.645       56.605        0.052        0.017       26.239        4.794        0.033      335.837        6.738      866.733
01/12/2015  19:43:00       21.442       24.164        0.347       21.831       23.236       11.845      476.585      539.906      140.298        0.110        0.058       32.306       11.970        0.137      335.848        6.757      866.745
01/12/2015  19:44:00       32.895       41.178       -3.416       23.918       34.337       19.192      572.052     1178.997      368.318        0.245        0.106       52.704       19.166        0.132      335.809        6.692      866.765
01/12/2015  19:45:00      -19.624       73.352      -17.930       38.146       33.182       22.102     1455.081     1101.041      488.498        0.457        0.152       75.932       20.728        0.075      335.872        6.794      866.776
01/12/2015  19:46:00       -7.261       77.049       -9.741       23.544       33.602       18.317      554.325     1129.123      335.518        0.405        0.101       77.391       17.892        0.053      335.900        6.842      866.783
01/12/2015  19:47:00        2.642       54.528       -1.232       18.736       20.472       16.514      351.020      419.091      272.711        0.201        0.052       54.592       13.167        0.058      335.816        6.701      866.789
01/12/2015  19:48:00       -5.486       41.497        0.449       28.550       33.179       13.002      815.107     1100.866      169.048        0.192        0.104       41.858       13.225        0.100      335.732        6.563      866.793
01/12/2015  19:49:00      -95.336       19.956      -16.647       45.323       29.241       20.821     2054.190      855.012      433.499        0.655        0.167       97.403       23.862        0.060      335.788        6.655      866.798
01/12/2015  19:50:00      -82.675      113.730      -28.735       30.821       35.661       30.598      949.920     1271.721      936.225        1.188        0.158      140.604       22.508        0.026      335.816        6.701      866.795
01/12/2015  19:51:00      -88.628      -20.564      -10.770       21.866       52.344       18.006      478.102     2739.878      324.229        0.597        0.177       90.983       14.107        0.024      335.788        6.654      866.790
01/12/2015  19:52:00      -74.251      -39.522       -3.004       32.283       23.370       18.522     1042.205      546.143      343.081        0.451        0.097       84.114       18.526        0.049      335.745        6.584      866.790
01/12/2015  19:53:00      -21.587      -36.988        0.438       37.718       27.426       21.771     1422.678      752.160      473.998        0.224        0.132       42.826       19.382        0.205      335.787        6.652      866.796
01/12/2015  19:54:00      -43.744      -29.460       -6.964       33.012       20.122       20.291     1089.786      404.892      411.719        0.237        0.095       52.739       21.075        0.160      335.762        6.612      866.812
01/12/2015  19:55:00      -35.196      -20.474       -2.613       49.204       26.134       21.510     2421.073      682.987      462.676        0.262        0.178       40.718       22.956        0.318      335.771        6.630      866.831
01/12/2015  19:56:00      -89.511       -6.486       -6.949       40.590       31.849       20.454     1647.585     1014.354      418.363        0.559        0.154       89.746       14.127        0.025      335.707        6.521      866.859
01/12/2015  19:57:00      -71.024      -10.024       -1.216       40.488       45.761       27.521     1639.276     2094.025      757.414        0.482        0.225       71.728       32.618        0.207      335.717        6.537      866.880
01/12/2015  19:58:00      -39.197      -15.538        9.166       41.478       21.744       20.845     1720.431      472.809      434.518        0.224        0.131       42.164       26.604        0.398      335.669        6.458      866.876
01/12/2015  19:59:00      -88.222      -42.242      -17.096       36.358       34.145       16.959     1321.874     1165.881      287.616        0.632        0.139       97.813       15.252        0.024      335.647        6.421      866.870
01/12/2015  20:00:00      -49.647      -58.396       -0.489       48.019       39.272       29.484     2305.793     1542.263      869.335        0.530        0.236       76.648       19.840        0.067      335.606        6.352      866.862
01/12/2015  20:01:00     -128.850       -8.189       -5.302       37.789       35.558       27.747     1428.000     1264.377      769.875        1.008        0.173      129.110       18.984        0.022      335.518        6.206      866.862
01/12/2015  20:02:00     -112.482      -12.552       -9.741       36.716       27.271       21.493     1348.039      743.687      461.960        0.773        0.128      113.180       10.353        0.008      335.516        6.201      866.868
01/12/2015  20:03:00      -53.046      -20.537       -6.715       22.046       30.687       15.124      486.045      941.696      228.732        0.247        0.083       56.883        4.334        0.006      335.582        6.314      866.890
01/12/2015  20:04:00      -55.429        0.768       -3.619       38.029       40.699       26.315     1446.218     1656.444      692.456        0.344        0.190       55.435       25.006        0.203      335.571        6.294      866.892
01/12/2015  20:05:00       -4.838        7.011        2.714       24.263       16.329       11.208      588.698      266.638      125.617        0.053        0.049        8.518       13.567        2.537      335.568        6.290      866.894
01/12/2015  20:06:00      -77.650       -5.055       -8.007       35.268       27.419       16.313     1243.806      751.777      266.109        0.419        0.113       77.814       13.391        0.030      335.620        6.375      866.896
01/12/2015  20:07:00      -83.247      -26.871       -2.754       29.161       48.012       20.646      850.389     2305.151      426.259        0.562        0.179       87.476       21.161        0.059      335.488        6.155      866.906
01/12/2015  20:08:00      -90.474      -27.998       -5.784       49.380       22.900       18.422     2438.370      524.406      339.374        0.615        0.165       94.707       18.435        0.038      335.507        6.187      866.906
01/12/2015  20:09:00      -75.380      -12.665        4.670       53.148       23.592       19.045     2824.693      556.583      362.710        0.480        0.187       76.436       20.365        0.071      335.516        6.202      866.905
01/12/2015  20:10:00     -134.394      -62.387       -1.517       46.821       35.291       23.993     2192.188     1245.475      575.679        1.298        0.201      148.168       26.352        0.032      335.453        6.096      866.926
01/12/2015  20:11:00      -99.982      -42.359        0.096       46.098       40.858       21.416     2125.021     1669.407      458.634        0.802        0.213      108.585       22.015        0.041      335.418        6.039      866.941
01/12/2015  20:12:00      -92.413      -18.894       -1.079       23.856       36.757       20.823      569.110     1351.044      433.612        0.563        0.118       94.325       21.806        0.053      335.530        6.224      866.960
01/12/2015  20:13:00      -98.954      -19.014      -10.072       36.142       23.650       14.252     1306.258      559.331      203.107        0.616        0.103      100.764       10.449        0.011      335.391        5.994      866.981
01/12/2015  20:14:00      -88.855      -10.976       -5.224       35.796       28.721       18.914     1281.323      824.886      357.750        0.525        0.123       89.530       16.890        0.036      335.351        5.927      866.992
01/12/2015  20:15:00      -91.882        4.101       -8.502       26.133       24.386       16.718      682.920      594.698      279.478        0.504        0.078       91.973       11.251        0.015      335.360        5.940      867.001
01/12/2015  20:16:00      -97.088      -19.279      -13.366       40.364       39.437       18.285     1629.258     1555.314      334.357        0.675        0.176       98.984       19.690        0.040      335.389        5.989      866.992
01/12/2015  20:17:00      -97.009      -24.137       -4.986       40.077       28.508       24.407     1606.204      812.688      595.693        0.652        0.151       99.967       20.370        0.042      335.412        6.027      867.003
01/12/2015  20:18:00      -26.787      -11.932       -2.314       27.100       13.914        9.372      734.397      193.596       87.827        0.094        0.051       29.324       12.140        0.171      335.353        5.928      867.011
01/12/2015  20:19:00        3.720       -4.539        1.722        6.860        7.138        6.119       47.057       50.946       37.447        0.009        0.007        5.869        4.304        0.538      335.390        5.992      867.010
01/12/2015  20:20:00      -29.323       25.131       -2.150       21.188       17.309        7.941      448.943      299.605       63.061        0.115        0.041       38.618        8.546        0.049      335.382        5.977      867.011
01/12/2015  20:21:00      -74.949       38.695      -11.618       17.579       17.901        8.200      309.005      320.459       67.247        0.397        0.035       84.348        5.309        0.004      335.388        5.987      867.029
01/12/2015  20:22:00      -69.502       12.438      -11.374       18.832       13.803        5.767      354.643      190.510       33.257        0.285        0.029       70.606        5.585        0.006      335.412        6.029      867.035
01/12/2015  20:23:00       -8.616      -37.695       -7.750       12.869       22.689        9.407      165.618      514.779       88.496        0.116        0.038       38.667       10.806        0.078      335.467        6.118      867.008
01/12/2015  20:24:00      -12.728      -31.644       -0.049       11.132       19.274        7.269      123.914      371.502       52.834        0.086        0.027       34.108        7.007        0.042      335.526        6.218      866.994
01/12/2015  20:25:00      -57.664       75.338      -16.745       33.441       31.969       15.087     1118.306     1022.020      227.628        0.582        0.118       94.873       20.882        0.048      335.385        5.983      867.007
01/12/2015  20:26:00      -55.603       28.032      -13.324       22.034       29.953       10.453      485.477      897.172      109.265        0.277        0.075       62.269       17.988        0.083      335.409        6.025      867.007
01/12/2015  20:27:00      -55.681      -46.072       -4.330       24.078       19.791       11.513      579.774      391.699      132.540        0.317        0.055       72.270        7.729        0.011      335.408        6.022      867.000
01/12/2015  20:28:00     -141.416      -73.337        3.800       44.782       31.966       22.789     2005.423     1021.816      519.332        1.447        0.177      159.301       19.623        0.015      335.323        5.878      867.008
01/12/2015  20:29:00     -138.121      -58.454        5.728       81.659       66.345       37.967     6668.255     4401.639     1441.494        1.752        0.626      149.981       42.887        0.082      335.346        5.918      867.011
01/12/2015  20:30:00     -181.002      -36.050      -10.223       35.726       46.112       21.798     1276.382     2126.355      475.145        1.902        0.194      184.557       17.949        0.009      335.456        6.102      867.010
01/12/2015  20:31:00     -173.454      -85.931       -7.260       34.567       31.442       22.684     1194.852      988.605      514.573        2.011        0.135      193.572       20.255        0.011      335.331        5.892      867.013
01/12/2015  20:32:00     -151.622      -45.121       -3.048       46.781       31.120       24.954     2188.428      968.452      622.719        1.441        0.189      158.193       24.527        0.024      335.306        5.852      867.008
01/12/2015  20:33:00     -172.311       -9.747      -10.795       47.342       35.974       18.378     2241.241     1294.106      337.747        1.689        0.194      172.587       18.207        0.011      335.198        5.672      867.021
01/12/2015  20:34:00     -109.191      -43.082       -4.091       31.993       27.638       16.235     1023.555      763.876      263.589        0.792        0.103      117.383       15.196        0.017      335.152        5.596      867.023
01/12/2015  20:35:00     -108.776       -7.415      -13.927       30.115       26.597       14.999      906.941      707.425      224.968        0.696        0.092      109.028       10.752        0.010      335.203        5.679      867.026
01/12/2015  20:36:00     -130.282      -18.095      -15.979       29.506       25.545       17.730      870.631      652.528      314.354        0.970        0.092      131.532       19.131        0.021      335.211        5.695      867.024
01/12/2015  20:37:00      -82.350      -15.893       -4.004       38.112       31.683       21.486     1452.539     1003.841      461.636        0.498        0.146       83.869       16.805        0.040      335.163        5.614      867.021
01/12/2015  20:38:00     -107.723       11.610      -15.502       28.050       26.111       19.399      786.823      681.798      376.315        0.691        0.092      108.347       15.657        0.021      335.224        5.715      867.025
01/12/2015  20:39:00     -117.265        8.426      -18.474       20.078       19.425       14.237      403.108      377.331      202.695        0.757        0.049      117.568        8.525        0.005      335.056        5.437      867.032
01/12/2015  20:40:00      -87.798       -4.987      -21.573       22.896       21.619       12.130      524.224      467.362      147.145        0.467        0.057       87.939        7.280        0.007      335.100        5.510      867.029
01/12/2015  20:41:00      -98.431      -12.683      -11.373       26.585       33.870       15.097      706.761     1147.174      227.911        0.603        0.104       99.245       13.344        0.018      335.012        5.364      867.012
01/12/2015  20:42:00     -103.709        9.230       -8.149       25.212       25.298       16.178      635.645      640.004      261.732        0.622        0.077      104.119       13.028        0.016      334.960        5.278      866.996
01/12/2015  20:43:00      -72.704       20.570       -2.999       26.057       25.493       18.218      678.973      649.914      331.883        0.369        0.083       75.557        9.300        0.015      334.842        5.082      866.997
01/12/2015  20:44:00      -93.121        0.619      -13.681       35.915       22.877       16.231     1289.860      523.339      263.448        0.547        0.104       93.123       12.803        0.019      334.858        5.108      866.991
01/12/2015  20:45:00     -104.032       -4.213      -12.391       21.641       21.022       15.170      468.342      441.926      230.125        0.607        0.057      104.117       10.044        0.009      334.855        5.102      866.981
01/12/2015  20:46:00      -83.572       -6.500       -9.412       30.294       32.365       17.840      917.707     1047.497      318.254        0.470        0.114       83.825       16.697        0.040      334.805        5.019      866.982
01/12/2015  20:47:00      -83.873      -21.628       -8.759       50.703       49.029       29.082     2570.757     2403.810      845.790        0.670        0.291       86.616       24.880        0.083      334.862        5.116      866.982
01/12/2015  20:48:00      -77.229       22.953      -24.536       29.151       27.862       21.723      849.776      776.269      471.908        0.460        0.105       80.567       13.440        0.028      334.822        5.049      866.997
01/12/2015  20:49:00     -108.694       20.579      -19.195       37.186       50.508       24.623     1382.777     2551.013      606.278        0.857        0.227      110.625       23.884        0.047      334.886        5.155      867.012
01/12/2015  20:50:00     -127.737       55.839      -21.615       28.784       40.997       21.798      828.540     1680.793      475.168        1.144        0.149      139.408       16.559        0.014      334.917        5.205      867.014
01/12/2015  20:51:00      -99.517       35.402      -16.860       30.190       40.875       20.816      911.459     1670.751      433.301        0.723        0.151      105.626       12.132        0.013      334.856        5.104      867.014
01/12/2015  20:52:00     -105.518       79.362      -31.549       36.033       52.946       27.581     1298.392     2803.291      760.706        1.164        0.243      132.031       16.600        0.016      334.876        5.137      867.020
01/12/2015  20:53:00      -67.277       -2.695       -8.501       32.290       33.975       27.475     1042.648     1154.269      754.898        0.378        0.148       67.331       18.324        0.074      334.925        5.219      867.022
01/12/2015  20:54:00      -90.259       12.589      -11.717       31.947       46.032       25.863     1020.636     2118.970      668.889        0.612        0.190       91.133       21.252        0.054      334.875        5.136      867.024
01/12/2015  20:55:00      -96.704      -27.180       -9.469       39.962       39.260       27.421     1596.986     1541.371      751.891        0.703        0.195      100.451       23.008        0.052      334.898        5.175      867.026
01/12/2015  20:56:00      -47.794       10.827       -7.093       32.198       37.492       24.564     1036.722     1405.683      603.411        0.275        0.152       49.005       11.427        0.054      334.916        5.206      867.037
01/12/2015  20:57:00      -77.143      -12.865      -12.093       34.994       42.547       33.717     1224.598     1810.263     1136.828        0.522        0.209       78.209       17.464        0.050      334.965        5.285      867.046
01/12/2015  20:58:00      -59.368       20.554       -6.259       47.792       80.110       39.818     2284.113     6417.669     1585.488        0.714        0.514       62.826       46.477        0.547      334.955        5.269      867.060
01/12/2015  20:59:00      -80.192       16.903       -0.361       64.088       67.435       36.461     4107.307     4547.465     1329.368        0.835        0.499       81.954       26.203        0.102      334.969        5.294      867.082
01/12/2015  21:00:00      -39.014       44.988        8.290       45.192       37.451       29.024     2042.332     1402.550      842.367        0.395        0.214       59.549       23.412        0.155      334.961        5.280      867.098
01/12/2015  21:01:00      -92.992       22.027       -7.740       36.299       57.249       24.928     1317.598     3277.425      621.387        0.720        0.261       95.565       28.149        0.087      334.965        5.285      867.102
01/12/2015  21:02:00      -88.049       16.075      -10.868       42.912       43.265       20.125     1841.441     1871.828      405.030        0.612        0.206       89.505       16.774        0.035      335.030        5.396      867.114
01/12/2015  21:03:00      -31.266        6.650       -5.908       39.386       38.652       27.971     1551.283     1494.013      782.351        0.244        0.191       31.965       22.277        0.486      334.997        5.338      867.131
01/12/2015  21:04:00      -55.418       25.088      -11.479       33.736       34.217       20.541     1138.110     1170.779      421.915        0.328        0.137       60.833       15.452        0.065      334.946        5.256      867.135
01/12/2015  21:05:00      -74.954       30.924      -21.051       33.011       41.502       20.411     1089.746     1722.395      416.610        0.512        0.161       81.083       12.985        0.026      335.043        5.416      867.143
01/12/2015  21:06:00     -112.579      101.433      -21.654       67.126       52.017       39.561     4505.944     2705.755     1565.067        1.610        0.439      151.535       30.630        0.041      335.085        5.483      867.151
01/12/2015  21:07:00     -105.498       68.377       -6.090       66.722       46.465       43.843     4451.833     2159.009     1922.228        1.219        0.427      125.719       35.955        0.082      335.131        5.560      867.177
01/12/2015  21:08:00     -105.282       47.102      -23.057       38.176       61.068       21.670     1457.430     3729.246      469.578        0.974        0.283      115.338       17.031        0.022      335.120        5.543      867.193
01/12/2015  21:09:00      -85.972      -22.005       -1.015       36.057       54.118       28.920     1300.087     2928.775      836.357        0.647        0.253       88.744       18.646        0.044      335.090        5.494      867.202
01/12/2015  21:10:00      -85.397       40.529      -17.213       37.464       40.767       31.033     1403.583     1661.969      963.042        0.663        0.201       94.527       20.571        0.047      335.115        5.534      867.205
01/12/2015  21:11:00      -85.026      159.696      -23.998       67.025       65.925       46.180     4492.391     4346.141     2132.613        2.214        0.549      180.921       42.266        0.055      335.175        5.633      867.212
01/12/2015  21:12:00      -83.269      110.462      -20.410       62.289       59.700       24.255     3879.967     3564.113      588.298        1.379        0.402      138.331       22.605        0.027      335.208        5.689      867.218
01/12/2015  21:13:00     -121.155      157.119      -22.972       64.088       61.713       43.390     4107.231     3808.505     1882.656        2.484        0.490      198.406       37.065        0.035      335.172        5.627      867.221
01/12/2015  21:14:00     -135.433      157.175      -25.393       69.833       84.709       35.345     4876.689     7175.599     1249.267        2.849        0.665      207.476       28.358        0.019      335.179        5.638      867.230
01/12/2015  21:15:00      -71.439       71.633      -13.685       80.523       43.842       33.742     6483.994     1922.155     1138.516        0.998        0.477      101.167       35.068        0.120      335.138        5.573      867.240
01/12/2015  21:16:00      -41.475       78.552       -5.238       33.921       44.856       24.852     1150.663     2012.083      617.629        0.585        0.189       88.829       20.490        0.053      335.179        5.641      867.274
01/12/2015  21:17:00       -2.568      105.550       -4.092       52.011       58.602       28.223     2705.186     3434.237      796.511        0.905        0.347      105.581       31.417        0.089      335.151        5.594      867.293
01/12/2015  21:18:00       29.093       99.445        0.474       51.550       40.863       32.088     2657.383     1669.816     1029.670        0.805        0.268      103.613       25.394        0.060      335.069        5.458      867.318
01/12/2015  21:19:00       33.974       83.649        0.389       53.209       35.713       23.193     2831.248     1275.407      537.928        0.640        0.232       90.285       16.947        0.035      335.018        5.375      867.328
01/12/2015  21:20:00       92.322       55.011       19.675       55.753       44.285       34.757     3108.409     1961.158     1208.080        0.911        0.314      107.468       23.050        0.046      334.940        5.244      867.332
01/12/2015  21:21:00        3.425       68.499       75.479       36.186       44.815       31.813     1309.405     2008.375     1012.057        0.736        0.216       68.585       26.957        0.154      334.919        5.209      867.342
01/12/2015  21:22:00       40.142       50.876       61.165       74.407       41.294       51.930     5536.456     1705.233     2696.686        0.894        0.497       64.806       55.802        0.741      334.969        5.292      867.367
01/12/2015  21:23:00       99.784       52.694       26.499       57.677       38.918       38.005     3326.623     1514.645     1444.377        0.986        0.314      112.843       36.249        0.103      334.976        5.305      867.375
01/12/2015  21:24:00       56.861       20.510       -4.983       31.512       30.968       18.161      993.022      959.042      329.819        0.298        0.114       60.447        7.099        0.014      334.932        5.231      867.395
01/12/2015  21:25:00       82.784       64.807       22.208       31.071       28.094       21.896      965.394      789.284      479.443        0.689        0.112      105.133       12.437        0.014      334.850        5.094      867.407
01/12/2015  21:26:00       87.035       51.903       -0.228       25.176       28.837       25.961      633.814      831.594      673.963        0.620        0.107      101.336       11.676        0.013      334.864        5.118      867.432
01/12/2015  21:27:00       99.687       50.991       18.408       52.277       32.248       24.474     2732.874     1039.907      598.963        0.862        0.219      111.971       21.765        0.038      334.929        5.225      867.439
01/12/2015  21:28:00       89.416       10.852       27.158       63.693       38.029       41.900     4056.804     1446.170     1755.639        0.805        0.363       90.073       33.277        0.136      334.994        5.334      867.458
01/12/2015  21:29:00       23.228       19.619       40.560       36.501       25.165       19.612     1332.317      633.297      384.633        0.246        0.118       30.404       13.219        0.189      334.936        5.238      867.456
01/12/2015  21:30:00       44.061       22.745        3.756       37.155       36.349       28.811     1380.470     1321.272      830.071        0.300        0.177       49.585       21.994        0.197      334.955        5.272      867.454
01/12/2015  21:31:00       54.300       27.965       12.069       33.466       23.832       24.933     1119.963      567.983      621.637        0.309        0.115       61.078       19.072        0.098      334.944        5.251      867.443
01/12/2015  21:32:00       61.371       59.089       11.561       31.714       28.954       27.888     1005.749      838.341      777.731        0.501        0.131       85.193       11.848        0.019      334.939        5.243      867.446
01/12/2015  21:33:00      -31.728       93.584      -20.669       54.622       35.490       24.691     2983.566     1259.508      609.657        0.752        0.243       98.816       17.482        0.031      334.989        5.326      867.468
01/12/2015  21:34:00       68.444       29.964       39.052       56.892       24.623       32.770     3236.685      606.314     1073.891        0.601        0.246       74.716       21.196        0.080      334.903        5.183      867.475
01/12/2015  21:35:00       64.287       45.980       34.833       60.865       30.629       32.313     3704.544      938.139     1044.161        0.657        0.284       79.038       22.806        0.083      334.889        5.160      867.476
01/12/2015  21:36:00       59.253       18.872       18.695       39.979       38.426       27.710     1598.297     1476.581      767.832        0.403        0.192       62.186       17.722        0.081      334.842        5.082      867.475
01/12/2015  21:37:00       61.647       54.410       37.904       40.762       47.427       39.862     1661.558     2249.348     1588.958        0.685        0.275       82.224       29.868        0.132      334.915        5.202      867.462
01/12/2015  21:38:00       36.080       58.432       53.018       43.217       38.392       32.944     1867.679     1473.955     1085.293        0.598        0.221       68.673       27.945        0.166      334.944        5.251      867.457
01/12/2015  21:39:00        7.514       40.820       49.710       34.767       32.976       25.190     1208.757     1087.412      634.521        0.356        0.147       41.506       22.876        0.304      334.885        5.154      867.446
01/12/2015  21:40:00       -1.278       19.117       35.999       21.955       19.386       22.121      482.026      375.833      489.321        0.150        0.067       19.160       14.127        0.544      334.861        5.114      867.452
01/12/2015  21:41:00        3.593        3.809       14.053       26.221       11.797       13.143      687.566      139.171      172.745        0.061        0.050        5.236       12.437        5.641      334.845        5.086      867.468
01/12/2015  21:42:00       15.970       18.275        6.386        8.880        9.510       10.327       78.846       90.449      106.655        0.045        0.014       24.269        5.421        0.050      334.871        5.129      867.480
01/12/2015  21:43:00       15.987        2.402       -6.422        8.857       15.133        8.068       78.447      229.005       65.098        0.034        0.019       16.166        4.926        0.093      334.859        5.109      867.501
01/12/2015  21:44:00       22.047       22.949        3.907       17.245       21.827       15.611      297.397      476.410      243.712        0.102        0.051       31.824       11.290        0.126      334.969        5.292      867.510
01/12/2015  21:45:00       23.333       19.871        0.851       19.456       21.390       19.601      378.554      457.548      384.211        0.108        0.061       30.648       15.793        0.266      334.965        5.285      867.500
01/12/2015  21:46:00       16.932       -3.694        1.037       16.076       18.979       14.101      258.429      360.197      198.851        0.056        0.041       17.330       11.923        0.473      334.902        5.180      867.485
01/12/2015  21:47:00        1.878       -8.255        7.094       17.321        7.890        6.233      300.005       62.253       38.845        0.026        0.020        8.466        7.827        0.855      334.890        5.161      867.472
01/12/2015  21:48:00      -64.898      -22.774       -7.206       13.864       19.448       10.755      192.202      378.211      115.677        0.273        0.034       68.778        7.051        0.011      335.048        5.424      867.470
01/12/2015  21:49:00      -16.902      -23.184        1.772       30.742       22.714       14.960      945.081      515.924      223.795        0.126        0.084       28.691       18.174        0.401      335.082        5.482      867.465
01/12/2015  21:50:00      -26.730        4.076       -0.951       25.036       10.483        7.296      626.813      109.891       53.231        0.076        0.039       27.039       10.974        0.165      334.865        5.120      867.460
01/12/2015  21:51:00      -26.449      -18.350       -0.583       29.110       15.784        7.700      847.417      249.138       59.286        0.110        0.058       32.191        5.184        0.026      334.928        5.223      867.443
01/12/2015  21:52:00       20.592       -3.733        0.947       19.238       18.759       13.780      370.117      351.916      189.902        0.068        0.046       20.928        6.002        0.082      334.979        5.310      867.456
01/12/2015  21:53:00       24.793       19.422        5.127       18.190       12.468       10.721      330.867      155.456      114.932        0.081        0.030       31.495        6.707        0.045      334.846        5.088      867.471
01/12/2015  21:54:00       17.101       25.025       -4.908        6.056       12.199        7.109       36.674      148.808       50.545        0.059        0.012       30.310        6.450        0.045      334.800        5.010      867.495
01/12/2015  21:55:00        8.970        3.011       12.533       20.706       20.071       15.943      428.752      402.855      254.185        0.067        0.054        9.462       15.053        2.531      334.725        4.888      867.525
01/12/2015  21:56:00        8.012      -53.842        3.778       14.091       25.896       15.425      198.546      670.607      237.944        0.204        0.055       54.435       10.738        0.039      334.964        5.284      867.558
01/12/2015  21:57:00        2.161        0.305       21.756       18.158       18.364       10.334      329.703      337.249      106.797        0.063        0.039        2.182        4.184        3.677      334.845        5.087      867.577
01/12/2015  21:58:00      -11.760      -16.067       25.149       14.116       26.624       14.123      199.260      708.841      199.447        0.107        0.055       19.911        7.593        0.145      334.934        5.234      867.581
01/12/2015  21:59:00       -5.846       -3.740       11.098        6.078        8.422        7.112       36.938       70.937       50.577        0.016        0.008        6.940        1.148        0.027      334.849        5.092      867.574
01/12/2015  22:00:00      -10.303        0.844        0.973        8.211        5.506        4.443       67.423       30.313       19.736        0.011        0.006       10.338        3.514        0.116      334.821        5.047      867.563
01/12/2015  22:01:00       13.528       16.861       11.224        8.134        5.788        8.176       66.168       33.501       66.850        0.038        0.008       21.617        5.364        0.062      334.761        4.946      867.556
01/12/2015  22:02:00       20.342       13.647        4.746        5.313        4.432        5.648       28.229       19.642       31.906        0.035        0.004       24.496        3.581        0.021      334.785        4.986      867.560
01/12/2015  22:03:00       17.147        2.282        0.914        5.745        5.145        3.940       33.006       26.471       15.522        0.019        0.004       17.298        3.379        0.038      334.839        5.077      867.568
01/12/2015  22:04:00        0.791       -8.661        3.873       12.102        7.391        5.666      146.448       54.627       32.099        0.016        0.012        8.697        3.409        0.154      334.881        5.145      867.571
01/12/2015  22:05:00      -53.322        8.376       -5.979       18.944       10.073        9.752      358.858      101.457       95.109        0.175        0.028       53.976        6.718        0.015      334.823        5.051      867.574
01/12/2015  22:06:00      -73.691       -9.185       -1.342       29.727       18.097       14.754      883.710      327.487      217.692        0.347        0.071       74.261       15.160        0.042      334.680        4.812      867.567
01/12/2015  22:07:00     -135.338       -5.175      -11.041       25.022       29.132       16.622      626.079      848.657      276.301        1.011        0.088      135.437       15.424        0.013      334.867        5.122      867.565
01/12/2015  22:08:00     -145.504      -23.620       -7.561       39.883       30.663       21.411     1590.646      940.218      458.429        1.239        0.149      147.409       21.818        0.022      334.827        5.055      867.574
01/12/2015  22:09:00     -140.794      -19.893      -15.452       33.552       32.339       21.185     1125.764     1045.836      448.783        1.154        0.131      142.192       16.986        0.014      334.989        5.326      867.590
01/12/2015  22:10:00      -68.257       -5.809       -8.745       34.239       19.001       18.536     1172.304      361.027      343.582        0.332        0.094       68.504       17.761        0.067      334.936        5.237      867.599
01/12/2015  22:11:00      -42.474       17.868       -7.381       36.571       38.061       21.338     1337.459     1448.640      455.317        0.271        0.162       46.079       20.048        0.189      334.897        5.173      867.598
01/12/2015  22:12:00     -100.723       38.734      -19.131       40.504       31.798       21.724     1640.578     1011.132      471.915        0.757        0.156      107.914       19.529        0.033      334.914        5.201      867.603
01/12/2015  22:13:00      -43.937       16.151       -6.142       22.868       30.738       24.481      522.926      944.855      599.319        0.215        0.103       46.812       20.938        0.200      334.906        5.187      867.608
01/12/2015  22:14:00      -43.851       28.553        3.854       31.934       76.999       31.049     1019.780     5928.872      964.059        0.533        0.396       52.328       32.146        0.377      334.856        5.104      867.610
01/12/2015  22:15:00     -103.718       59.959      -25.719       57.800       60.048       29.524     3340.876     3605.734      871.653        1.141        0.391      119.802       38.512        0.103      334.869        5.126      867.609
01/12/2015  22:16:00      -88.666       40.498       -9.795       42.056       55.822       31.133     1768.681     3116.062      969.246        0.772        0.293       97.477       23.761        0.059      334.805        5.019      867.606
01/12/2015  22:17:00      -63.992        3.613       -6.033       31.547       40.607       18.153      995.212     1648.895      329.526        0.356        0.149       64.094       16.404        0.065      334.709        4.862      867.608
01/12/2015  22:18:00      -95.534       95.609      -29.639       38.428       46.075       24.844     1476.729     2122.875      617.247        1.168        0.211      135.158       24.231        0.032      334.854        5.102      867.603
01/12/2015  22:19:00      -92.112       74.994      -17.367       40.916       47.688       26.315     1674.115     2274.167      692.466        0.952        0.232      118.780       24.684        0.043      334.849        5.093      867.600
01/12/2015  22:20:00      -81.472       47.990      -11.506       37.785       50.359       25.555     1427.688     2536.076      653.075        0.684        0.231       94.555       18.956        0.040      334.790        4.994      867.602
01/12/2015  22:21:00      -85.232       65.100      -16.680       63.322       33.179       23.857     4009.715     1100.842      569.168        0.873        0.284      107.250       28.863        0.072      334.813        5.033      867.601
01/12/2015  22:22:00      -97.788      132.030      -33.344       35.994       29.352       22.777     1295.578      861.550      518.782        1.539        0.134      164.300       15.670        0.009      334.837        5.072      867.601
01/12/2015  22:23:00      -92.336       39.756      -23.947       33.904       42.186       19.096     1149.483     1779.646      364.670        0.699        0.165      100.531       20.751        0.043      334.829        5.061      867.595
01/12/2015  22:24:00      -46.396       -2.403       -5.424       19.301       24.876       15.800      372.537      618.836      249.630        0.171        0.062       46.459        9.621        0.043      334.803        5.017      867.608
01/12/2015  22:25:00      -70.001       13.062       -5.533       17.535       24.192       16.176      307.491      585.276      261.652        0.313        0.058       71.209        8.139        0.013      334.756        4.939      867.622
01/12/2015  22:26:00      -60.259        5.189       -9.847       28.859       31.949       15.795      832.870     1020.717      249.467        0.293        0.105       60.482       13.915        0.053      334.720        4.879      867.644
01/12/2015  22:27:00     -114.748      -42.023       -5.465       19.353       25.431       13.692      374.539      646.760      187.464        0.809        0.060      122.201        6.736        0.003      334.617        4.708      867.657
01/12/2015  22:28:00     -110.544      -49.959      -16.681       37.439       29.995       15.329     1401.703      899.692      234.985        0.876        0.127      121.309        9.691        0.006      334.572        4.632      867.675
01/12/2015  22:29:00     -124.919      -20.347       -8.648       42.725       32.556       24.044     1825.406     1059.901      578.101        0.978        0.173      126.566       20.252        0.026      334.492        4.500      867.691
01/12/2015  22:30:00     -118.935      -40.429       -4.227       42.266       32.358       19.076     1786.426     1047.045      363.876        0.950        0.160      125.619       18.407        0.021      334.551        4.597      867.695
01/12/2015  22:31:00     -100.246      -11.367        5.162       59.927       37.124       29.079     3591.270     1378.172      845.579        0.801        0.291      100.888       30.929        0.094      334.525        4.556      867.684
01/12/2015  22:32:00     -143.527      -18.733      -18.853       30.611       34.142       18.959      937.059     1165.684      359.456        1.188        0.123      144.744       17.086        0.014      334.483        4.486      867.671
01/12/2015  22:33:00     -103.785        3.440      -12.055       34.584       24.638       17.463     1196.066      607.027      304.973        0.652        0.105      103.842       14.090        0.018      334.464        4.453      867.654
01/12/2015  22:34:00      -83.689        9.072      -16.735       19.351       31.633       13.344      374.460     1000.636      178.054        0.446        0.078       84.179        5.823        0.005      334.509        4.529      867.630
01/12/2015  22:35:00     -113.831       18.127      -15.280       47.047       49.928       21.423     2213.402     2492.853      458.941        0.934        0.258      115.265       21.373        0.034      334.600        4.678      867.618
01/12/2015  22:36:00     -110.714      -15.790      -11.456       53.936       34.111       30.907     2909.040     1163.556      955.232        0.883        0.251      111.835       32.366        0.084      334.462        4.450      867.629
01/12/2015  22:37:00      -58.330        8.130       -4.855       38.591       33.631       22.327     1489.293     1131.046      498.494        0.330        0.156       58.894       23.428        0.158      334.473        4.469      867.645
01/12/2015  22:38:00      -61.330       19.178       -5.870       19.441       33.982       15.959      377.959     1154.780      254.699        0.298        0.089       64.259       12.399        0.037      334.477        4.476      867.645
01/12/2015  22:39:00      -88.826       50.214      -17.888       33.204       29.448       17.041     1102.532      867.156      290.395        0.650        0.113      102.037       15.325        0.023      334.607        4.690      867.637
01/12/2015  22:40:00     -116.423       72.128      -20.875       24.563       41.807       24.748      603.350     1747.801      612.473        1.108        0.148      136.956       23.522        0.029      334.667        4.790      867.625
01/12/2015  22:41:00     -116.227       90.122      -30.188       27.508       48.335       27.082      756.680     2336.285      733.415        1.318        0.191      147.074       19.133        0.017      334.719        4.876      867.626
01/12/2015  22:42:00      -82.165       46.562      -15.462       20.329       29.433       17.336      413.278      866.292      300.544        0.537        0.079       94.441       11.076        0.014      334.655        4.771      867.627
01/12/2015  22:43:00      -46.032       48.841      -11.420       25.461       50.258       23.957      648.263     2525.819      573.927        0.419        0.187       67.115       19.186        0.082      334.656        4.772      867.623
01/12/2015  22:44:00      -50.619        8.575       -9.147       18.677       25.654       10.886      348.830      658.136      118.503        0.192        0.056       51.341       10.249        0.040      334.615        4.704      867.629
01/12/2015  22:45:00      -86.470       49.236       -9.619       38.080       60.451       29.338     1450.075     3654.263      860.717        0.798        0.298       99.505       30.498        0.094      334.632        4.733      867.622
01/12/2015  22:46:00      -79.978       21.267      -13.601       29.124       26.477       19.516      848.231      701.011      380.880        0.448        0.097       82.758        8.440        0.010      334.612        4.701      867.606
01/12/2015  22:47:00      -93.368       41.356      -21.712       38.186       48.128       29.471     1458.180     2316.341      868.538        0.777        0.232      102.117       15.321        0.023      334.669        4.793      867.588
01/12/2015  22:48:00      -98.010       66.218       -9.505       58.167       62.650       29.604     3383.424     3925.035      876.411        1.113        0.409      118.283       14.888        0.016      334.673        4.799      867.573
01/12/2015  22:49:00      -57.284       47.399      -14.840       54.956       38.827       37.861     3020.116     1507.530     1433.475        0.585        0.298       74.351       35.449        0.227      334.629        4.727      867.560
01/12/2015  22:50:00     -110.326       49.802      -15.433       34.928       33.126       29.258     1219.961     1097.319      856.028        0.903        0.159      121.046       21.036        0.030      334.623        4.718      867.561
01/12/2015  22:51:00      -90.469       53.785      -21.514       30.245       40.747       22.311      914.786     1660.341      497.793        0.731        0.154      105.250       21.192        0.041      334.615        4.705      867.561
01/12/2015  22:52:00      -97.015       76.554      -27.271       40.034       43.430       25.794     1602.743     1886.166      665.343        1.008        0.208      123.582       20.776        0.028      334.638        4.742      867.558
01/12/2015  22:53:00     -108.616       69.403       -9.003       57.213       72.993       34.597     3273.311     5327.949     1196.959        1.325        0.490      128.896       34.622        0.072      334.632        4.731      867.555
01/12/2015  22:54:00     -127.974      151.031      -29.377       48.651       51.151       35.002     2366.959     2616.393     1225.130        2.313        0.310      197.959       30.404        0.024      334.641        4.744      867.557
01/12/2015  22:55:00     -136.948      168.986      -41.223       59.671       83.436       35.723     3560.642     6961.491     1276.132        3.040        0.590      217.511       45.034        0.043      334.700        4.841      867.551
01/12/2015  22:56:00     -107.056      148.977      -24.904       62.969       71.542       35.788     3965.069     5118.325     1280.799        2.232        0.518      183.453       28.986        0.025      334.670        4.793      867.536
01/12/2015  22:57:00      -95.550      119.698      -25.245       47.322       41.655       27.933     2239.370     1735.134      780.262        1.442        0.238      153.158       25.435        0.028      334.656        4.770      867.535
01/12/2015  22:58:00     -119.829      139.841      -25.561       62.363       50.810       36.511     3889.156     2581.700     1333.054        2.118        0.390      184.158       30.922        0.028      334.712        4.863      867.541
01/12/2015  22:59:00     -131.739      131.911      -32.349       43.388       54.227       31.536     1882.538     2940.532      994.549        2.081        0.291      186.429       24.017        0.017      334.670        4.793      867.532
01/12/2015  23:00:00     -126.409       54.018      -20.664       65.430       53.796       26.640     4281.068     2893.968      709.686        1.360        0.394      137.467       22.825        0.028      334.696        4.838      867.521
01/12/2015  23:01:00     -119.856       66.035      -20.790       61.130       57.677       42.310     3736.912     3326.601     1790.167        1.400        0.443      136.843       45.691        0.111      334.710        4.862      867.518
01/12/2015  23:02:00      -99.164       38.059      -17.809       44.956       41.830       26.012     2020.998     1749.718      676.611        0.802        0.222      106.217        2.818        0.001      334.675        4.804      867.533
01/12/2015  23:03:00     -168.376       96.823      -25.906       55.374       44.800       32.997     3066.331     2007.072     1088.820        2.228        0.308      194.230       25.727        0.018      334.712        4.862      867.536
01/12/2015  23:04:00     -107.411       68.095      -14.337       47.023       49.590       27.819     2211.135     2459.119      773.903        1.091        0.272      127.178       28.498        0.050      334.682        4.815      867.543
01/12/2015  23:05:00      -64.894       66.946      -19.927       24.848       48.344       20.049      617.427     2337.099      401.973        0.622        0.168       93.236        9.267        0.010      334.657        4.775      867.549
01/12/2015  23:06:00      -34.709       17.182       -6.136       26.337       24.717       14.300      693.618      610.923      204.503        0.152        0.075       38.729        7.838        0.041      334.643        4.752      867.560
01/12/2015  23:07:00      -35.494        2.612       -2.525       32.250       19.884       19.563     1040.032      395.359      382.695        0.155        0.091       35.590       19.698        0.306      334.617        4.708      867.559
01/12/2015  23:08:00      -44.207       71.868       -9.140       32.964       60.277       30.488     1086.650     3633.349      929.529        0.643        0.282       84.376       36.151        0.184      334.578        4.643      867.561
01/12/2015  23:09:00      -51.628        8.621       -3.622       41.120       49.977       24.292     1690.875     2497.698      590.116        0.376        0.239       52.343       17.545        0.112      334.552        4.600      867.547
01/12/2015  23:10:00      -37.510       64.102       -6.794       31.465       56.374       24.090      990.052     3178.033      580.329        0.515        0.237       74.271       22.912        0.095      334.521        4.548      867.549
01/12/2015  23:11:00      -17.398      -30.606       -7.142       53.299       22.538       19.384     2840.761      507.967      375.756        0.251        0.186       35.206       11.024        0.098      334.546        4.589      867.565
01/12/2015  23:12:00       17.294        3.187        2.034       15.639       21.768       16.006      244.570      473.856      256.194        0.064        0.049       17.585       11.769        0.448      334.590        4.662      867.576
01/12/2015  23:13:00       -3.343       10.351        3.436       27.999       10.097       14.072      783.972      101.940      198.028        0.061        0.054       10.877        7.540        0.480      334.626        4.722      867.594
01/12/2015  23:14:00       -5.795       -4.158      -14.298       27.950       44.583       18.458      781.223     1987.615      340.712        0.168        0.155        7.132       19.494        7.471      334.491        4.500      867.611
01/12/2015  23:15:00       83.518      -86.271      -21.887       34.229       26.828       16.859     1171.612      719.736      284.235        0.854        0.109      120.075        2.778        0.001      334.280        4.150      867.621
01/12/2015  23:16:00       31.742      -22.349       16.524       32.834       50.641       39.177     1078.084     2564.485     1534.870        0.348        0.259       38.821       36.797        0.898      334.198        4.013      867.623
01/12/2015  23:17:00       -2.532       13.914       54.143       20.630       30.395       14.557      425.580      923.847      211.893        0.235        0.078       14.142       11.327        0.641      334.104        3.855      867.628
01/12/2015  23:18:00        2.893      -24.557       24.626       26.430       39.644       31.823      698.559     1571.642     1012.683        0.225        0.164       24.727       30.605        1.532      334.185        3.990      867.624
01/12/2015  23:19:00      -12.786      -53.444        1.232       25.892       23.483       21.609      670.411      551.458      466.929        0.235        0.084       54.953       11.780        0.046      334.212        4.036      867.599
01/12/2015  23:20:00      -20.298       -4.713       -0.858       13.754       23.018       11.371      189.181      529.807      129.291        0.064        0.042       20.838        9.897        0.226      334.239        4.081      867.577
01/12/2015  23:21:00      -14.676       12.068       20.107       17.077       15.136       16.990      291.635      229.097      288.659        0.079        0.040       19.000        9.384        0.244      334.096        3.842      867.568
01/12/2015  23:22:00       -8.588       40.501       43.949       20.000       24.362       22.102      399.993      593.509      488.485        0.256        0.074       41.402       16.572        0.160      334.029        3.732      867.564
01/12/2015  23:23:00       -1.400       25.502       56.584       25.514       27.324       17.904      650.987      746.618      320.567        0.279        0.086       25.541       14.290        0.313      334.067        3.795      867.562
01/12/2015  23:24:00       41.981      -38.693       14.183       46.305       48.444       39.564     2144.174     2346.817     1565.303        0.476        0.303       57.092       38.326        0.451      334.135        3.908      867.572
01/12/2015  23:25:00       28.054      -12.852       43.161       35.522       46.641       27.237     1261.815     2175.371      741.846        0.350        0.209       30.858       28.356        0.844      334.073        3.805      867.571
01/12/2015  23:26:00       22.724        2.353       41.514       35.445       33.971       29.271     1256.359     1154.059      856.816        0.276        0.163       22.845       23.791        1.085      334.080        3.818      867.576
01/12/2015  23:27:00       13.128       51.686       68.924       31.532       32.387       20.526      994.291     1048.911      421.296        0.503        0.123       53.327       20.258        0.144      334.056        3.777      867.582
01/12/2015  23:28:00       27.380       61.577       66.049       34.541       41.161       32.287     1193.077     1694.237     1042.423        0.642        0.196       67.390       29.192        0.188      334.079        3.813      867.603
01/12/2015  23:29:00       95.601       69.281       45.824       47.043       41.610       36.760     2213.020     1731.399     1351.293        1.067        0.265      118.066       32.726        0.077      334.140        3.916      867.629
01/12/2015  23:30:00      102.746       48.204       28.536       49.509       34.217       28.310     2451.130     1170.815      801.434        0.906        0.221      113.492       13.407        0.014      334.055        3.774      867.644
01/12/2015  23:31:00       97.613       57.326        8.493       31.554       25.582       20.418      995.667      654.423      416.876        0.748        0.103      113.202       12.814        0.013      334.032        3.738      867.649
01/12/2015  23:32:00       74.695       52.962       16.205       30.780       21.850       18.990      947.409      477.416      360.627        0.522        0.089       91.566       17.004        0.034      334.133        3.904      867.643
01/12/2015  23:33:00       55.902       53.452        4.001       42.774       29.783       26.240     1829.636      887.049      688.541        0.470        0.170       77.345       19.505        0.064      334.161        3.951      867.653
01/12/2015  23:34:00       26.138       69.664       -5.119       30.342       34.817       26.831      920.617     1212.258      719.888        0.421        0.143       74.406       25.002        0.113      334.239        4.080      867.655
01/12/2015  23:35:00       41.310       96.189      -11.263       31.057       62.816       30.629      964.513     3945.891      938.162        0.847        0.292      104.685       33.135        0.100      334.264        4.123      867.668
01/12/2015  23:36:00       36.713      145.200       -7.721       65.179       83.408       44.376     4248.242     6956.884     1969.191        1.783        0.659      149.769       42.653        0.081      334.499        4.510      867.664
01/12/2015  23:37:00      -51.818       96.707       -5.095       29.757       41.213       25.121      885.495     1698.530      631.069        0.764        0.161      109.714       20.065        0.033      334.650        4.762      867.664
01/12/2015  23:38:00        6.810      135.154      -12.926       32.386       58.471       27.702     1048.873     3418.825      767.401        1.186        0.262      135.326       33.574        0.062      334.641        4.747      867.670
01/12/2015  23:39:00      -21.167       64.482        0.699       48.152       67.618       25.390     2318.640     4572.261      644.667        0.607        0.377       67.868       22.101        0.106      334.657        4.773      867.666
01/12/2015  23:40:00      -33.316       39.773       -3.967       43.067       50.040       21.005     1854.730     2503.973      441.208        0.375        0.240       51.883       20.819        0.161      334.613        4.701      867.654
01/12/2015  23:41:00       20.551       82.744      -18.231       22.121       26.731       11.690      489.340      714.528      136.649        0.447        0.067       85.258       10.707        0.016      334.356        4.277      867.661
01/12/2015  23:42:00      -46.754       97.311      -16.240       43.396       31.425       21.687     1883.256      987.550      470.325        0.763        0.167      107.960       18.632        0.030      334.342        4.250      867.664
01/12/2015  23:43:00      -81.792      112.196      -19.012       27.290       62.499       21.724      744.717     3906.143      471.934        1.238        0.256      138.844       17.960        0.017      334.713        4.867      867.663
01/12/2015  23:44:00     -108.683       20.983      -14.996       31.242       27.429       18.151      976.059      752.366      329.447        0.727        0.103      110.690       13.754        0.015      334.609        4.694      867.657
01/12/2015  23:45:00      -90.542        4.063      -11.749       43.125       23.762       13.302     1859.776      564.656      176.936        0.548        0.130       90.633       17.990        0.039      334.483        4.487      867.663
01/12/2015  23:46:00       -8.660       90.297      -13.803       26.953       24.918       10.729      726.462      620.906      115.108        0.494        0.073       90.711       13.221        0.021      334.345        4.257      867.682
01/12/2015  23:47:00       -2.235       68.237       -6.957       33.217       31.724       18.823     1103.372     1006.435      354.323        0.359        0.123       68.274       16.182        0.056      334.324        4.223      867.689
01/12/2015  23:48:00       20.394       34.214       -1.077       24.131       31.315       15.540      582.293      980.641      241.483        0.170        0.090       39.831        9.639        0.059      334.396        4.342      867.684
01/12/2015  23:49:00      -15.667       12.852        0.887       27.446       17.291       14.389      753.308      298.996      207.034        0.084        0.063       20.264       17.764        0.768      334.311        4.201      867.675
01/12/2015  23:50:00      -43.590       31.484      -11.222       15.697       12.980        9.651      246.402      168.491       93.137        0.176        0.025       53.771        8.019        0.022      334.301        4.185      867.668
01/12/2015  23:51:00      -49.943       54.214      -14.773       26.574       50.965       15.568      706.157     2597.382      242.375        0.460        0.177       73.712       15.390        0.044      334.330        4.231      867.661
01/12/2015  23:52:00      -45.232       82.355       -6.164       36.515       39.009       20.950     1333.365     1521.700      438.885        0.608        0.165       93.959       18.589        0.039      334.249        4.097      867.660
01/12/2015  23:53:00      -67.668       45.626       -9.988       19.183       28.245       12.701      367.969      797.772      161.323        0.404        0.066       81.613       11.359        0.019      334.237        4.077      867.663
01/12/2015  23:54:00      -55.645      -17.344      -11.151       19.994       21.112       14.792      399.778      445.696      218.807        0.229        0.053       58.286       10.915        0.035      334.188        3.997      867.661
01/12/2015  23:55:00      -82.042       -5.109      -16.119       22.583       19.049       15.565      509.983      362.867      242.271        0.407        0.056       82.201        4.604        0.003      334.126        3.893      867.651
01/12/2015  23:56:00      -71.892        9.584       -9.401       24.302       24.899       13.722      590.577      619.955      188.285        0.337        0.070       72.528       10.185        0.020      334.209        4.031      867.653
01/12/2015  23:57:00      -50.106      101.113      -21.389       28.726       46.856       20.489      825.162     2195.501      419.791        0.832        0.172      112.847       22.996        0.042      334.235        4.076      867.653
01/12/2015  23:58:00      -55.817       66.907      -10.929       45.599       28.720       20.435     2079.292      824.863      417.580        0.552        0.166       87.132       23.945        0.076      334.224        4.055      867.642
01/12/2015  23:59:00      -68.223       47.104      -10.778       37.042       37.508       26.623     1372.123     1406.866      708.788        0.524        0.174       82.904       21.188        0.065      334.193        4.004      867.637
